[[{"header":{"parameterUnit":"m.s-1","parameterCategory":1,"la1":30.6,"la2":28.766,"lo1":-90.7593,"lo2":-88.6598,"dy":0.0162,"dx":0.0183,"nx":116,"ny":114,"refTime":"2024-05-30T12:00:00:Z","depth":0,"parameterNumber":2,"parameterNumberName":"U-component_of_WINDS"},"data":[0.0,0.0,0.0,0.0,0.0,0.0,0.0,0.0,0.0,0.0,0.0,0.0,0.0,0.0,0.0,0.0,0.0,0.0,0.0,0.0,0.0,0.0,0.0,0.0,0.0,0.0,0.0,0.0,0.0,0.0,0.0,0.0,0.0,0.0,0.0,0.0,0.0,0.0,0.0,0.0,0.0,0.0,0.0,0.0,0.0,0.0,0.0,0.0,0.0,0.0,0.0,0.0,0.0,0.0,0.0,0.0,0.0,0.0,0.0,0.0,0.0,0.0,0.0,0.0,0.0,0.0,0.0,0.0,0.0,0.0,0.0,0.0,0.0,0.0,0.0,0.0,0.0,0.0,0.0,0.0,0.0,0.0,0.0,0.0,0.0,0.0,0.0,0.0,0.0,0.0,0.0,0.0,0.0,0.0,0.0,0.0,0.0,0.0,0.0,0.0,0.0,0.0,0.0,0.0,0.0,0.0,0.0,0.0,0.0,0.0,0.0,0.0,0.0,0.0,0.0,0.0,0.0,0.0,0.0,0.0,0.0,0.0,0.0,0.0,0.0,0.0,0.0,0.0,0.0,0.0,0.0,0.0,0.0,0.0,0.0,0.0,0.0,0.0,0.0,0.0,0.0,0.0,0.0,0.0,0.0,0.0,0.0,0.0,0.0,0.0,0.0,0.0,0.0,0.0,0.0,0.0,0.0,0.0,0.0,0.0,0.0,0.0,0.0,0.0,0.0,0.0,0.0,0.0,0.0,0.0,0.0,0.0,0.0,0.0,0.0,0.0,0.0,0.0,0.0,0.0,0.0,0.0,0.0,0.0,0.0,0.0,0.0,0.0,0.0,0.0,0.0,0.0,0.0,0.0,0.0,0.0,0.0,0.0,0.0,0.0,0.0,0.0,0.0,0.0,0.0,0.0,0.0,0.0,0.0,0.0,0.0,0.0,0.0,0.0,0.0,0.0,0.0,0.0,0.0,0.0,0.0,0.0,0.0,0.0,0.0,0.0,0.0,0.0,0.0,0.0,0.0,0.0,0.0,0.0,0.0,0.0,0.0,0.0,0.0,0.0,0.0,0.0,0.0,0.0,0.0,0.0,0.0,0.0,0.0,0.0,0.0,0.0,0.0,0.0,0.0,0.0,0.0,0.0,0.0,0.0,0.0,0.0,0.0,0.0,0.0,0.0,0.0,0.0,0.0,0.0,0.0,0.0,0.0,0.0,0.0,0.0,0.0,0.0,0.0,0.0,0.0,0.0,0.0,0.0,0.0,0.0,0.0,0.0,0.0,0.0,0.0,0.0,0.0,0.0,0.0,0.0,0.0,0.0,0.0,0.0,0.0,0.0,0.0,0.0,0.0,0.0,0.0,0.0,0.0,0.0,0.0,0.0,0.0,0.0,0.0,0.0,0.0,0.0,0.0,0.0,0.0,0.0,0.0,0.0,0.0,0.0,0.0,0.0,0.0,0.0,0.0,0.0,0.0,0.0,0.0,0.0,0.0,0.0,0.0,0.0,0.0,0.0,0.0,0.0,0.0,0.0,0.0,0.0,0.0,0.0,0.0,0.0,0.0,0.0,0.0,0.0,0.0,0.0,0.0,0.0,0.0,0.0,0.0,0.0,0.0,0.0,0.0,0.0,0.0,0.0,0.0,0.0,0.0,0.0,0.0,0.0,0.0,0.0,0.0,0.0,0.0,0.0,0.0,0.0,0.0,0.0,0.0,0.0,0.0,0.0,0.0,0.0,0.0,0.0,0.0,0.0,0.0,0.0,0.0,0.0,0.0,0.0,0.0,0.0,0.0,0.0,0.0,0.0,0.0,0.0,0.0,0.0,0.0,0.0,0.0,0.0,0.0,0.0,0.0,0.0,0.0,0.0,0.0,0.0,0.0,0.0,0.0,0.0,0.0,0.0,0.0,0.0,0.0,0.0,0.0,0.0,0.0,0.0,0.0,0.0,0.0,0.0,0.0,0.0,0.0,0.0,0.0,0.0,0.0,0.0,0.0,0.0,0.0,0.0,0.0,0.0,0.0,0.0,0.0,0.0,0.0,0.0,0.0,0.0,0.0,0.0,0.0,0.0,0.0,0.0,0.0,0.0,0.0,0.0,0.0,0.0,0.0,0.0,0.0,0.0,0.0,0.0,0.0,0.0,0.0,0.0,0.0,0.0,0.0,0.0,0.0,0.0,0.0,0.0,0.0,0.0,0.0,0.0,0.0,0.0,0.0,0.0,0.0,0.0,0.0,0.0,0.0,0.0,0.0,0.0,0.0,0.0,0.0,0.0,0.0,0.0,0.0,0.0,0.0,0.0,0.0,0.0,0.0,0.0,0.0,0.0,0.0,0.0,0.0,0.0,0.0,0.0,0.0,0.0,0.0,0.0,0.0,0.0,0.0,0.0,0.0,0.0,0.0,0.0,0.0,0.0,0.0,0.0,0.0,0.0,0.0,0.0,0.0,0.0,0.0,0.0,0.0,0.0,0.0,0.0,0.0,0.0,0.0,0.0,0.0,0.0,0.0,0.0,0.0,0.0,0.0,0.0,0.0,0.0,0.0,0.0,0.0,0.0,0.0,0.0,0.0,0.0,0.0,0.0,0.0,0.0,0.0,0.0,0.0,0.0,0.0,0.0,0.0,0.0,0.0,0.0,0.0,0.0,0.0,0.0,0.0,0.0,0.0,0.0,0.0,0.0,0.0,0.0,0.0,0.0,0.0,0.0,0.0,0.0,0.0,0.0,0.0,0.0,0.0,0.0,0.0,0.0,0.0,0.0,0.0,0.0,0.0,0.0,0.0,0.0,0.0,0.0,0.0,0.0,0.0,0.0,0.0,0.0,0.0,0.0,0.0,0.0,0.0,0.0,0.0,0.0,0.0,0.0,0.0,0.0,0.0,0.0,0.0,0.0,0.0,0.0,0.0,0.0,0.0,0.0,0.0,0.0,0.0,0.0,0.0,0.0,0.0,0.0,0.0,0.0,0.0,0.0,0.0,0.0,0.0,0.0,0.0,0.0,0.0,0.0,0.0,0.0,0.0,0.0,0.0,0.0,0.0,0.0,0.0,0.0,0.0,0.0,0.0,0.0,0.0,0.0,0.0,0.0,0.0,0.0,0.0,0.0,0.0,0.0,0.0,0.0,0.0,0.0,0.0,0.0,0.0,0.0,0.0,0.0,0.0,0.0,0.0,0.0,0.0,0.0,0.0,0.0,0.0,0.0,0.0,0.0,0.0,0.0,0.0,0.0,0.0,0.0,0.0,0.0,0.0,0.0,0.0,0.0,0.0,0.0,0.0,0.0,0.0,0.0,0.0,0.0,0.0,0.0,0.0,0.0,0.0,0.0,0.0,0.0,0.0,0.0,0.0,0.0,0.0,0.0,0.0,0.0,0.0,0.0,0.0,0.0,0.0,0.0,0.0,0.0,0.0,0.0,0.0,0.0,0.0,0.0,0.0,0.0,0.0,0.0,0.0,0.0,0.0,0.0,0.0,0.0,0.0,0.0,0.0,0.0,0.0,0.0,0.0,0.0,0.0,0.0,0.0,0.0,0.0,0.0,0.0,0.0,0.0,0.0,0.0,0.0,0.0,0.0,0.0,0.0,0.0,0.0,0.0,0.0,0.0,0.0,0.0,0.0,0.0,0.0,0.0,0.0,0.0,0.0,0.0,0.0,0.0,0.0,0.0,0.0,0.0,0.0,0.0,0.0,0.0,0.0,0.0,0.0,0.0,0.0,0.0,0.0,0.0,0.0,0.0,0.0,0.0,0.0,0.0,0.0,0.0,0.0,0.0,0.0,0.0,0.0,0.0,0.0,0.0,0.0,0.0,0.0,0.0,0.0,0.0,0.0,0.0,0.0,0.0,0.0,0.0,0.0,0.0,0.0,0.0,0.0,0.0,0.0,0.0,0.0,0.0,0.0,0.0,0.0,0.0,0.0,0.0,0.0,0.0,0.0,0.0,0.0,0.0,0.0,0.0,0.0,0.0,0.0,0.0,0.0,0.0,0.0,0.0,0.0,0.0,0.0,0.0,0.0,0.0,0.0,0.0,0.0,0.0,0.0,0.0,0.0,0.0,0.0,0.0,0.0,0.0,0.0,0.0,0.0,0.0,0.0,0.0,0.0,0.0,0.0,0.0,0.0,0.0,0.0,0.0,0.0,0.0,0.0,0.0,0.0,0.0,0.0,0.0,0.0,0.0,0.0,0.0,0.0,0.0,0.0,0.0,0.0,0.0,0.0,0.0,0.0,0.0,0.0,0.0,0.0,0.0,0.0,0.0,0.0,0.0,0.0,0.0,0.0,0.0,0.0,0.0,0.0,0.0,0.0,0.0,0.0,0.0,0.0,0.0,0.0,0.0,0.0,0.0,0.0,0.0,0.0,0.0,0.0,0.0,0.0,0.0,0.0,0.0,0.0,0.0,0.0,0.0,0.0,0.0,0.0,0.0,0.0,0.0,0.0,0.0,0.0,0.0,0.0,0.0,0.0,0.0,0.0,0.0,0.0,0.0,0.0,0.0,0.0,0.0,0.0,0.0,0.0,0.0,0.0,0.0,0.0,0.0,0.0,0.0,0.0,0.0,0.0,0.0,0.0,0.0,0.0,0.0,0.0,0.0,0.0,0.0,0.0,0.0,0.0,0.0,0.0,0.0,0.0,0.0,0.0,0.0,0.0,0.0,0.0,0.0,0.0,0.0,0.0,0.0,0.0,0.0,0.0,0.0,0.0,0.0,0.0,0.0,0.0,0.0,0.0,0.0,0.0,0.0,0.0,0.0,0.0,0.0,0.0,0.0,0.0,0.0,0.0,0.0,0.0,0.0,0.0,0.0,0.0,0.0,0.0,0.0,0.0,0.0,0.0,0.0,0.0,0.0,0.0,0.0,0.0,0.0,0.0,0.0,0.0,0.0,0.0,0.0,0.0,0.0,0.0,0.0,0.0,0.0,0.0,0.0,0.0,0.0,0.0,0.0,0.0,0.0,0.0,0.0,0.0,0.0,0.0,0.0,0.0,0.0,0.0,0.0,0.0,0.0,0.0,0.0,0.0,0.0,0.0,0.0,0.0,0.0,0.0,0.0,0.0,0.0,0.0,0.0,0.0,0.0,0.0,0.0,0.0,0.0,0.0,0.0,0.0,0.0,0.0,0.0,0.0,0.0,0.0,0.0,0.0,0.0,0.0,0.0,0.0,0.0,0.0,0.0,0.0,0.0,0.0,0.0,0.0,0.0,0.0,0.0,0.0,0.0,0.0,0.0,0.0,0.0,0.0,0.0,0.0,0.0,0.0,0.0,0.0,0.0,0.0,0.0,0.0,0.0,0.0,0.0,0.0,0.0,0.0,0.0,0.0,0.0,0.0,0.0,0.0,0.0,0.0,0.0,0.0,0.0,0.0,0.0,0.0,0.0,0.0,0.0,0.0,0.0,0.0,0.0,0.0,0.0,0.0,0.0,0.0,0.0,0.0,0.0,0.0,0.0,0.0,0.0,0.0,0.0,0.0,0.0,0.0,0.0,0.0,0.0,0.0,0.0,0.0,0.0,0.0,0.0,0.0,0.0,0.0,0.0,0.0,0.0,0.0,0.0,0.0,0.0,0.0,0.0,0.0,0.0,0.0,0.0,0.0,0.0,0.0,0.0,0.0,0.0,0.0,0.0,0.0,0.0,0.0,0.0,0.0,0.0,0.0,0.0,0.0,0.0,0.0,0.0,0.0,0.0,0.0,0.0,0.0,0.0,0.0,0.0,0.0,0.0,0.0,0.0,0.0,0.0,0.0,0.0,0.0,0.0,0.0,0.0,0.0,0.0,0.0,0.0,0.0,0.0,0.0,0.0,0.0,0.0,0.0,0.0,0.0,0.0,0.0,0.0,0.0,0.0,0.0,0.0,0.0,0.0,0.0,0.0,0.0,0.0,0.0,0.0,0.0,0.0,0.0,0.0,0.0,0.0,0.0,0.0,0.0,0.0,0.0,0.0,0.0,0.0,0.0,0.0,0.0,0.0,0.0,0.0,0.0,0.0,0.0,0.0,0.0,0.0,0.0,0.0,0.0,0.0,0.0,0.0,0.0,0.0,0.0,0.0,0.0,0.0,0.0,0.0,0.0,0.0,0.0,0.0,0.0,0.0,0.0,-2.7324,-2.6328,0.0,0.0,0.0,0.0,0.0,0.0,0.0,0.0,0.0,0.0,0.0,0.0,0.0,0.0,0.0,0.0,0.0,0.0,0.0,0.0,0.0,0.0,0.0,-2.2797,-2.3466,-2.5154,-2.5308,-2.5308,-2.5308,0.0,0.0,0.0,0.0,0.0,-2.2158,-2.212,-2.1927,-2.1504,-2.1504,-2.1716,-2.212,-2.1691,-2.1549,-2.1604,0.0,0.0,0.0,0.0,0.0,0.0,0.0,0.0,0.0,0.0,0.0,0.0,0.0,0.0,0.0,0.0,0.0,0.0,0.0,0.0,0.0,0.0,0.0,0.0,0.0,0.0,0.0,0.0,0.0,0.0,0.0,0.0,0.0,0.0,0.0,0.0,0.0,0.0,0.0,0.0,0.0,0.0,0.0,0.0,0.0,0.0,0.0,0.0,0.0,0.0,0.0,0.0,0.0,0.0,0.0,0.0,0.0,0.0,0.0,0.0,0.0,0.0,0.0,0.0,0.0,0.0,0.0,0.0,0.0,0.0,-2.8828,-2.7988,0.0,0.0,0.0,0.0,0.0,0.0,0.0,0.0,0.0,0.0,0.0,0.0,0.0,0.0,0.0,0.0,0.0,0.0,0.0,0.0,0.0,-2.0773,-2.2605,-2.2797,-2.3466,-2.5154,-2.5308,-2.5308,-2.5308,-2.5308,0.0,0.0,0.0,-2.3913,-2.3047,-2.3028,-2.2951,-2.2797,-2.2951,-2.3028,-2.3028,-2.3163,-2.3263,-2.3315,-2.3009,0.0,0.0,0.0,0.0,0.0,0.0,0.0,0.0,0.0,0.0,0.0,0.0,0.0,0.0,0.0,0.0,0.0,0.0,0.0,0.0,0.0,0.0,0.0,0.0,0.0,0.0,0.0,0.0,0.0,0.0,0.0,0.0,0.0,0.0,0.0,0.0,0.0,0.0,0.0,0.0,0.0,0.0,0.0,0.0,0.0,0.0,0.0,0.0,0.0,0.0,0.0,0.0,0.0,0.0,0.0,0.0,0.0,0.0,0.0,0.0,0.0,0.0,0.0,-3.1797,-3.1855,-3.1562,-3.1562,-3.1562,-3.1523,-3.0801,-3.0234,-2.9766,-2.9043,0.0,0.0,0.0,0.0,0.0,0.0,0.0,0.0,0.0,0.0,0.0,0.0,0.0,0.0,0.0,0.0,0.0,0.0,0.0,-2.0108,-2.2528,-2.2797,-2.3466,-2.5154,-2.5308,-2.5308,-2.5308,-2.5308,0.0,0.0,-2.5135,-2.4755,-2.3956,-2.3937,-2.3567,-2.2797,-2.3567,-2.3937,-2.3937,-2.4639,-2.4986,-2.4923,-2.3469,-2.2746,-2.2612,0.0,0.0,0.0,0.0,0.0,0.0,0.0,0.0,0.0,0.0,0.0,0.0,0.0,0.0,0.0,0.0,0.0,0.0,0.0,0.0,0.0,0.0,0.0,0.0,0.0,0.0,0.0,0.0,0.0,0.0,0.0,0.0,0.0,0.0,0.0,0.0,0.0,0.0,0.0,0.0,0.0,-2.6024,-2.5385,0.0,0.0,0.0,0.0,0.0,0.0,0.0,0.0,0.0,0.0,0.0,0.0,0.0,-3.0609,-3.0703,-3.3027,-3.3828,-3.3105,-3.5371,-3.5664,-3.4199,-3.4199,-3.4199,-3.4199,-3.4082,0.0,-3.0723,-3.0605,0.0,0.0,0.0,0.0,0.0,0.0,0.0,0.0,0.0,0.0,0.0,0.0,0.0,0.0,0.0,0.0,0.0,0.0,0.0,0.0,0.0,-2.324,-2.4009,-2.5192,-2.5308,-2.5308,-2.5308,-2.5308,-2.5308,-2.5308,-2.5308,-2.5135,-2.4774,-2.4774,-2.4582,-2.4216,-2.4582,-2.4774,-2.4774,-2.5135,-2.5308,-2.5269,-2.4538,-2.3947,-2.3518,-2.3149,0.0,0.0,0.0,0.0,0.0,0.0,0.0,0.0,0.0,0.0,0.0,0.0,0.0,0.0,0.0,0.0,0.0,0.0,0.0,0.0,0.0,0.0,0.0,0.0,0.0,0.0,0.0,0.0,0.0,0.0,0.0,0.0,0.0,0.0,0.0,0.0,0.0,0.0,0.0,-2.5909,-2.6467,-2.6077,-2.637,-2.625,0.0,0.0,0.0,0.0,0.0,0.0,0.0,0.0,0.0,-3.1417,-3.2842,-3.3842,-3.4312,-3.603,-3.6699,-3.6348,-3.748,-3.7637,-3.6894,-3.6894,-3.6894,-3.6855,-3.6367,-3.5527,-3.4375,-3.291,-3.1816,-3.0976,0.0,0.0,0.0,0.0,-3.0176,-2.9902,0.0,0.0,0.0,0.0,0.0,0.0,0.0,0.0,0.0,0.0,0.0,0.0,-2.3009,-2.3706,-2.4413,-2.5231,-2.5308,-2.5308,-2.5308,-2.5308,-2.5274,-2.5219,-2.5219,-2.5219,-2.5219,-2.5269,-2.5308,-2.5308,-2.5308,-2.5308,-2.5308,-2.5308,-2.5308,-2.5308,-2.5308,-2.4962,-2.4399,-2.4184,-2.3384,0.0,0.0,0.0,0.0,0.0,0.0,0.0,0.0,0.0,0.0,0.0,0.0,0.0,0.0,0.0,0.0,0.0,0.0,0.0,0.0,0.0,0.0,0.0,0.0,0.0,0.0,0.0,0.0,0.0,0.0,0.0,0.0,0.0,0.0,0.0,0.0,0.0,0.0,-2.6967,-2.7082,-2.6659,-2.7371,-2.739,0.0,0.0,0.0,0.0,0.0,0.0,-3.1081,-3.235,-3.3348,-3.4008,-3.5642,-3.6806,-3.741,-3.843,-3.8926,-3.8926,-3.8926,-3.8926,-3.8926,-3.8691,-3.8594,-3.8555,-3.791,-3.7637,-3.7422,-3.4805,-3.3379,-3.2754,-3.1875,-3.1543,-3.1621,-3.2266,-3.2109,-3.1719,0.0,0.0,0.0,0.0,0.0,0.0,0.0,0.0,0.0,0.0,0.0,-2.2158,-2.386,-2.4072,-2.4413,-2.5231,-2.5308,-2.5308,-2.5308,-2.5308,-2.5214,-2.5022,-2.5016,-2.5016,-2.5016,-2.5208,-2.5308,-2.5308,-2.5308,-2.5308,-2.5308,-2.5308,-2.5308,-2.5308,-2.5308,-2.5288,-2.5192,-2.4418,-2.4057,-2.3893,0.0,0.0,0.0,0.0,0.0,0.0,0.0,0.0,0.0,0.0,0.0,0.0,0.0,0.0,0.0,0.0,0.0,0.0,0.0,0.0,0.0,0.0,0.0,0.0,0.0,0.0,0.0,0.0,0.0,0.0,0.0,0.0,0.0,0.0,0.0,0.0,0.0,0.0,0.0,-2.6794,-2.9467,0.0,0.0,0.0,0.0,-3.0269,-3.1795,-3.2724,-3.2788,-3.5129,-3.6553,-3.6789,-3.7692,-3.829,-3.8515,-3.9394,-3.9824,-3.9824,-3.9824,-3.9824,-3.9805,-3.8984,-3.8594,-3.8594,-3.8555,-3.8535,-3.832,-3.5703,-3.4609,-3.4492,-3.3613,-3.3262,-3.3281,-3.332,-3.3301,-3.3281,0.0,0.0,0.0,0.0,0.0,-2.0308,-2.0308,-2.0308,-2.0596,-2.1389,-2.1985,-2.2797,-2.3975,-2.4567,-2.4981,-2.5269,-2.5308,-2.5308,-2.5308,-2.5173,-2.5063,-2.501,-2.4923,-2.4917,-2.5004,-2.5203,-2.5308,-2.5308,-2.5308,-2.5308,-2.5308,-2.5308,-2.5308,-2.5308,-2.5308,-2.5308,-2.5288,-2.4981,-2.4567,-2.4072,-2.3784,-2.3139,0.0,0.0,0.0,0.0,0.0,0.0,0.0,0.0,0.0,0.0,0.0,0.0,0.0,0.0,0.0,0.0,0.0,0.0,0.0,0.0,0.0,0.0,0.0,0.0,0.0,0.0,0.0,0.0,0.0,0.0,0.0,0.0,0.0,0.0,0.0,0.0,0.0,-2.989,-3.0968,0.0,-3.0429,-3.1352,-3.2462,-3.3596,-3.4793,-3.5726,-3.6286,-3.7734,-3.8591,-3.8668,-3.9558,-4.0069,-4.0139,-4.0545,-4.0742,-4.0742,-4.0742,-4.0742,-4.0723,-4.041,-4.0273,-4.0234,-3.9687,-3.9434,-3.9316,-3.7832,-3.7207,-3.7187,-3.6875,-3.6758,-3.668,-3.6113,-3.5918,-3.582,0.0,0.0,0.0,0.0,-2.0308,-2.0308,-2.0308,-2.0538,-2.1,-2.1831,-2.2701,-2.3567,-2.4413,-2.4981,-2.5308,-2.5308,-2.5308,-2.5308,-2.5308,-2.5105,-2.5004,-2.5004,-2.4898,-2.491,-2.5004,-2.5203,-2.5308,-2.5308,-2.5308,-2.5308,-2.5308,-2.5596,-2.5731,-2.575,-2.6058,-2.6173,-2.6154,-2.5865,-2.5255,-2.4509,-2.4509,-2.4009,-2.3182,0.0,0.0,0.0,0.0,0.0,0.0,0.0,0.0,0.0,0.0,0.0,0.0,0.0,0.0,0.0,0.0,0.0,0.0,0.0,0.0,0.0,0.0,0.0,0.0,0.0,0.0,0.0,0.0,0.0,0.0,0.0,0.0,0.0,0.0,-3.0525,-3.1462,-3.2045,-3.2872,-3.3276,-3.3,-3.3987,-3.5103,-3.625,-3.7203,-3.8009,-3.857,-3.9488,-4.0025,-4.0072,-4.0957,-4.1316,-4.1076,-4.1424,-4.1465,-4.1191,-4.1191,-4.1191,-4.1191,-4.1191,-4.1191,-4.1172,-4.0586,-4.0332,-4.0293,-3.9726,-3.9473,-3.9414,-3.8828,-3.8594,-3.8535,-3.7949,-3.7734,-3.7656,0.0,0.0,0.0,-2.0308,-2.0308,-2.0308,-2.0308,-2.0981,-2.1812,-2.2682,-2.3567,-2.4413,-2.5212,-2.5308,-2.5308,-2.5308,-2.5308,-2.5308,-2.5308,-2.5105,-2.5004,-2.4979,-2.5004,-2.5004,-2.5004,-2.5222,-2.5346,-2.5346,-2.5365,-2.5385,-2.5404,-2.625,-2.664,-2.6678,-2.7525,-2.7895,-2.7838,-2.7005,-2.6135,-2.5346,-2.5308,-2.4832,-2.4149,0.0,0.0,0.0,0.0,0.0,0.0,0.0,0.0,0.0,0.0,0.0,0.0,0.0,0.0,0.0,0.0,0.0,0.0,0.0,0.0,0.0,0.0,0.0,0.0,0.0,0.0,0.0,0.0,0.0,0.0,0.0,0.0,0.0,-3.0462,-3.1929,-3.2987,-3.3026,-3.5218,-3.6442,-3.5692,-3.7084,-3.8046,-3.8084,-3.8916,-3.9437,-3.9442,-4.0338,-4.0906,-4.1035,-4.1897,-4.1995,-4.1289,-4.2012,-4.2012,-4.123,-4.1211,-4.1191,-4.1191,-4.1191,-4.1191,-4.1191,-4.1191,-4.1191,-4.1191,-4.1191,-4.1191,-4.1035,-3.9336,-3.8672,-3.8672,-3.8652,-3.8613,-3.8594,0.0,0.0,-2.0308,-2.0308,-2.0308,-2.0308,-2.0308,-2.0981,-2.1812,-2.2682,-2.3567,-2.4413,-2.5212,-2.5308,-2.5308,-2.5308,-2.5308,-2.5308,-2.5308,-2.5105,-2.4955,-2.4862,-2.4943,-2.5004,-2.5004,-2.5822,-2.6231,-2.6231,-2.689,-2.7198,-2.7198,-2.7428,-2.7544,-2.7544,-2.7799,-2.7895,-2.7876,-2.764,-2.7044,-2.6192,-2.5558,-2.5173,-2.4962,0.0,0.0,0.0,0.0,0.0,0.0,0.0,0.0,0.0,0.0,0.0,0.0,0.0,0.0,0.0,0.0,0.0,0.0,0.0,0.0,0.0,0.0,0.0,0.0,0.0,0.0,0.0,0.0,0.0,0.0,0.0,-3.0217,-3.1545,-3.2141,-3.3692,-3.5,-3.5596,-3.6834,-3.7796,-3.8219,-3.8661,-3.9188,-3.9765,-4.0147,-4.0361,-4.0401,-4.1341,-4.1937,-4.2008,-4.2868,-4.3221,-4.3008,-4.2617,-4.2285,-4.2051,-4.1484,-4.1191,-4.1191,-4.1191,-4.1191,-4.1191,-4.1191,-4.1191,-4.1191,-4.1191,-4.1191,-4.1152,-4.0664,-4.0488,-4.041,-3.9785,-3.9141,-3.8594,0.0,-1.935,-2.0308,-2.0308,-2.0308,-2.0308,-2.0308,-2.1293,-2.2235,-2.274,-2.3855,-2.4774,-2.525,-2.5308,-2.5308,-2.5308,-2.5308,-2.5308,-2.5308,-2.5198,-2.5047,-2.4884,-2.5385,-2.5677,-2.5677,-2.6642,-2.714,-2.714,-2.764,-2.7895,-2.7915,-2.8242,-2.8396,-2.8415,-2.8775,-2.8948,-2.8929,-2.8563,-2.8107,-2.7563,-2.6736,-2.5942,-2.5308,-2.5308,-2.5308,-2.525,-2.4774,-2.4601,-2.4524,-2.4024,0.0,0.0,0.0,0.0,0.0,0.0,0.0,0.0,0.0,0.0,0.0,0.0,0.0,0.0,0.0,0.0,0.0,0.0,0.0,0.0,0.0,0.0,0.0,0.0,-3.216,-3.3558,-3.4391,-3.5365,-3.6442,-3.7642,-3.8238,-3.8873,-3.9727,-3.9804,-4.015,-4.0969,-4.1164,-4.141,-4.1781,-4.2464,-4.2863,-4.2902,-4.3788,-4.4062,-4.3691,-4.3555,-4.3301,-4.293,-4.2109,-4.1699,-4.1699,-4.1348,-4.1191,-4.1191,-4.1191,-4.1191,-4.1191,-4.1191,-4.1191,-4.1191,0.0,0.0,0.0,0.0,-4.0117,-3.9687,0.0,-1.97,-2.0308,-2.0308,-2.0308,-2.0308,-2.0308,-2.1716,-2.2797,-2.2797,-2.425,-2.5308,-2.5308,-2.5308,-2.5308,-2.5308,-2.5308,-2.5308,-2.5308,-2.5308,-2.5219,-2.504,-2.6039,-2.6601,-2.6601,-2.7544,-2.8049,-2.8049,-2.8121,-2.8179,-2.8198,-2.8915,-2.9242,-2.928,-3.0038,-3.0404,-3.0346,-2.9563,-2.9184,-2.905,-2.8319,-2.7005,-2.5442,-2.5442,-2.5385,-2.5308,-2.5308,-2.5308,-2.5308,-2.5308,0.0,0.0,0.0,0.0,0.0,0.0,0.0,0.0,0.0,0.0,0.0,0.0,0.0,0.0,0.0,0.0,0.0,0.0,0.0,0.0,0.0,0.0,0.0,0.0,-3.4423,-3.5846,-3.6846,-3.6981,-3.7565,-3.913,-3.9381,-3.9727,-4.0439,-4.0593,-4.0969,-4.1731,-4.1993,-4.2434,-4.3169,-4.3518,0.0,0.0,0.0,-4.4765,-4.4004,-4.4668,-4.4609,-4.3848,-4.2969,-4.25,-4.2383,-4.166,-4.1289,-4.1191,-4.1191,-4.1191,-4.1191,-4.1191,-4.1191,-4.1191,-4.1191,-4.1191,-4.1191,-4.1191,-4.1191,-4.1191,0.0,-1.97,-2.0308,-2.0308,-2.0308,-2.0308,-2.0308,-2.1716,-2.2797,-2.2797,-2.425,-2.5308,-2.5308,-2.5308,-2.5308,-2.5308,-2.5308,-2.5308,-2.5308,0.0,-2.5274,-2.5234,-2.6105,-2.6601,-2.6601,-2.8088,-2.8876,-2.8876,-2.9563,-2.9923,-2.9923,-3.0077,-3.0154,-3.0154,-3.0327,-3.0404,-3.0385,-3.0212,-2.9737,-2.9088,-2.8934,-2.7852,-2.6351,-2.6351,-2.5904,-2.5308,-2.5308,-2.5308,-2.5308,-2.5308,-2.5192,-2.5077,-2.5077,-2.4942,0.0,0.0,0.0,0.0,0.0,0.0,0.0,0.0,0.0,0.0,0.0,0.0,0.0,0.0,0.0,0.0,0.0,0.0,0.0,-3.3686,-3.4814,-3.6269,-3.8488,-3.8796,-3.8911,-3.9265,-3.9881,-4.0323,-4.0477,-4.1143,-4.1623,-4.1788,-4.2483,-4.298,-4.3202,-4.3914,-4.4398,-4.4562,-4.5436,-4.5866,-4.5801,-4.5273,-4.4922,-4.4746,-4.3867,0.0,-4.2383,-4.2246,-4.1816,-4.1191,-4.1191,-4.1191,-4.1191,-4.1191,-4.1191,-4.1191,-4.1191,-4.1191,-4.1191,-4.1191,-4.1191,-4.1191,-1.9642,-2.0004,-2.0308,-2.0308,-2.0308,-2.0308,-2.0308,-2.1716,-2.2797,-2.2797,-2.425,-2.5308,-2.5308,-2.5308,-2.5264,-2.5157,-2.5152,-2.5152,0.0,-2.5234,-2.55,-2.5923,-2.6794,-2.7448,-2.7832,-2.9102,-2.9756,-2.9756,-3.0192,-3.0404,-3.0404,-3.0404,-3.0404,-3.0404,-3.0404,-3.0404,-3.0404,-3.0404,-3.0154,-2.9756,-2.9756,-2.8986,-2.7813,-2.739,-2.6986,-2.6601,-2.6601,-2.6327,-2.5942,-2.5942,-2.5654,-2.5308,-2.5308,-2.5308,-2.5308,0.0,0.0,0.0,0.0,0.0,0.0,0.0,0.0,0.0,0.0,0.0,0.0,0.0,0.0,-3.0525,-3.0929,0.0,-3.4007,-3.5257,-3.6546,-3.7853,-3.913,-3.965,-3.99,-3.99,-4.0265,-4.0669,-4.1104,-4.1546,-4.2154,-4.2989,-4.3451,-4.3904,-4.4384,-4.4878,-4.5198,-4.5306,-4.5756,-4.6053,-4.62,-4.577,-4.5581,-4.5644,-4.4766,-4.4121,-4.3691,-4.3242,-4.2598,-4.1797,-4.1797,-4.1562,-4.1191,-4.1191,-4.1191,-4.1191,-4.1191,-4.1191,-4.1191,-4.1191,-4.1191,-4.1191,-2.0154,-2.0308,-2.0308,-2.0308,-2.0308,-2.0308,-2.0308,-2.1716,-2.2797,-2.2797,-2.425,-2.5308,-2.5308,-2.5308,-2.5219,-2.5022,-2.5034,0.0,0.0,-2.5351,-2.5865,-2.6563,-2.7582,-2.8434,-2.9088,-2.9948,-3.0404,-3.0404,-3.0404,-3.0404,-3.0404,-3.0404,-3.0404,-3.0404,-3.0404,-3.0404,-3.0404,-3.0404,-3.0404,-3.0404,-3.0404,-2.9987,-2.928,-2.8621,-2.8179,-2.7895,-2.7895,-2.7332,-2.6601,-2.6601,-2.6019,-2.5308,-2.5308,-2.5308,-2.5308,-2.5308,-2.5308,0.0,0.0,0.0,0.0,0.0,0.0,0.0,0.0,-2.9146,-2.9646,-2.9819,-3.1083,-3.2372,-3.3026,-3.4564,-3.6,-3.6808,-3.8277,-3.9361,-3.9515,-4.0092,-4.0496,-4.0496,-4.065,-4.1027,-4.1731,-4.2077,-4.2854,-4.4201,-4.4451,-4.4855,-4.5556,-4.57,-4.5763,-4.5796,-4.5845,-4.5939,-4.605,-4.605,-4.612,-4.6248,-4.5545,-4.5136,-4.498,-4.4277,-4.3476,-4.2637,-4.2461,-4.1933,-4.1191,-4.1191,-4.1191,-4.1191,-4.1191,-4.1191,-4.1191,-4.1191,-4.1191,-4.1191,0.0,-2.0308,-2.0308,-2.0308,-2.0308,-2.0308,-2.0308,-2.1716,-2.2797,-2.2797,-2.425,-2.5308,-2.5308,-2.5308,-2.5219,-2.5022,-2.5163,0.0,-2.5016,-2.5913,-2.6505,-2.6601,-2.8121,-2.9011,-2.9107,-2.9948,-3.0404,-3.0404,-3.0404,-3.0404,-3.0404,-3.0404,-3.0404,-3.0404,-3.0404,-3.0404,-3.0404,-3.0404,-3.0404,-3.0404,-3.0404,-3.0346,-3.0231,-3.0154,-2.9198,-2.7895,-2.7895,-2.7332,-2.6601,-2.6601,-2.6019,-2.5308,-2.5308,-2.5308,-2.5308,-2.5308,-2.5308,-2.5462,-2.6231,-2.7082,-2.778,-2.7876,-2.8434,-2.9377,0.0,-3.1333,-3.1602,-3.2333,-3.3256,-3.3955,-3.4032,-3.543,-3.6846,-3.7719,-3.8661,-3.9554,-4.0265,-4.0439,-4.0496,-4.0496,-4.1181,-4.1692,-4.1788,-4.3143,-4.4105,-4.4297,-4.5017,-4.5498,-4.5594,-4.562,-4.568,-4.5796,-4.5816,-4.5847,-4.592,-4.592,-4.5988,-4.6119,-4.6021,-4.563,-4.5,-4.4902,-4.4375,-4.3516,-4.2734,-4.1933,-4.1191,-4.1191,-4.1191,-4.1191,-4.1191,-4.1191,-4.1191,-4.1191,-4.1191,-4.1191,0.0,-2.0308,-2.0308,-2.0308,-2.0692,-2.1,-2.1,-2.2451,-2.3567,-2.3567,-2.4562,-2.5308,-2.5308,-2.5203,-2.5059,-2.4897,-2.503,-2.5053,-2.4891,-2.5964,-2.6832,-2.7332,-2.8472,-2.9338,-2.9852,-3.0212,-3.0404,-3.0404,-3.0404,-3.0404,-3.0404,-3.0404,-3.0404,-3.0404,-3.0404,-3.0404,-3.0404,-3.0404,-3.0404,-3.0404,-3.0404,-3.0404,-3.0404,-3.0404,-2.966,-2.8607,-2.8607,-2.8068,0.0,-2.6774,-2.6019,-2.5308,-2.5308,-2.5308,-2.5274,-2.5157,-2.5578,-2.6346,-2.7698,-2.7992,-2.8261,-2.9737,-3.0352,-3.0929,-3.2122,-3.2795,-3.3256,-3.3583,-3.4353,-3.5103,-3.5565,-3.6642,-3.7738,-3.8604,-3.9457,-4.0112,-4.0458,-4.0496,-4.0496,-4.0496,-4.172,-4.2566,-4.2566,-4.3181,-4.4008,-4.4979,-4.5402,-4.5594,-4.5594,-4.5594,-4.5637,-4.5688,-4.5669,-4.5728,-4.5842,-4.5842,-4.5896,-4.5985,-4.5985,-4.5852,-4.565,-4.565,-4.5209,-4.4375,-4.3008,-4.2207,-4.1855,-4.1387,-4.1191,-4.1191,-4.1191,-4.1191,-4.1191,-4.1191,-4.1191,-4.1191,0.0,-2.0308,-2.0308,-2.0308,-2.0962,-2.1427,-2.1196,-2.2624,-2.3744,-2.3744,-2.4659,-2.5308,-2.5308,-2.5168,-2.5024,-2.4876,-2.4999,-2.5024,-2.4869,-2.6182,-2.7236,-2.7876,-2.889,-2.9756,-3.0385,-3.0404,-3.0404,-3.0404,-3.0404,-3.0404,-3.0404,-3.0404,-3.0404,-3.0404,-3.0404,-3.0404,-3.0404,-3.0404,-3.0404,-3.0404,-3.0404,-3.0404,-3.0404,-3.0404,-2.9871,-2.9107,-2.9107,-2.8434,-2.7448,-2.6813,-2.6019,-2.5279,-2.5229,-2.5214,-2.5225,-2.526,-2.6192,-2.7432,-2.8481,-2.8857,-2.9333,-3.0948,-3.1872,-3.2545,-3.3122,-3.393,-3.4564,-3.4564,-3.5064,-3.575,-3.6538,-3.7411,-3.8296,-3.9169,-3.9977,-4.0496,-4.0496,-4.0496,-4.0496,-4.0496,-4.1604,-4.2566,-4.3047,-4.3528,-4.4278,-4.5518,-4.5594,-4.5594,-4.5594,-4.5594,-4.5594,-4.5594,-4.5594,-4.5651,-4.574,-4.5747,-4.5796,-4.5867,-4.5867,-4.5931,-4.6045,-4.6082,-4.5706,-4.4922,-4.3418,-4.2617,-4.2344,-4.1523,-4.1191,-4.1191,-4.1191,-4.1191,-4.1191,-4.1191,-4.1191,-4.1191,0.0,0.0,-2.0308,-2.0308,-2.0962,-2.1235,-2.0462,-2.1754,-2.2836,-2.2836,-2.4274,-2.5308,-2.5308,-2.5284,-2.5208,-2.501,-2.5187,-2.5208,-2.501,-2.6795,-2.7876,-2.7895,-2.9481,-3.0365,-3.0404,-3.0404,-3.0404,-3.0404,-3.0404,-3.0404,-3.0404,-3.0404,-3.0404,-3.0404,-3.0404,-3.0404,-3.0404,-3.0404,-3.0404,-3.0404,-3.0404,-3.0404,-3.0404,-3.0404,-2.9871,-2.9107,-2.9107,-2.8044,-2.664,-2.6621,-2.6019,-2.5264,-2.5077,-2.5016,-2.5145,-2.5777,-2.7274,-2.8624,-2.8082,-2.9717,-3.141,-3.0635,-3.2295,-3.4129,-3.4148,-3.4834,-3.5462,-3.5462,-3.5481,-3.575,-3.6538,-3.7411,-3.8296,-3.9169,-3.9977,-4.0496,-4.0496,-4.0496,-4.0496,-4.0496,-4.0554,-4.1247,-4.2931,-4.4566,-4.5556,-4.5594,-4.5594,-4.5594,-4.5594,-4.5594,-4.5594,-4.5594,-4.5594,-4.5594,-4.5603,-4.5603,-4.5673,-4.5809,-4.5809,-4.5836,-4.5907,-4.6039,-4.5706,-4.4941,-4.4043,-4.3183,-4.2344,-4.1523,-4.1191,-4.1191,-4.1191,-4.1191,-4.1191,-4.1191,-4.1191,-4.1191,0.0,0.0,0.0,-2.185,-2.2177,-2.2274,-2.2004,-2.2932,-2.3663,-2.3663,-2.462,0.0,0.0,0.0,0.0,0.0,-2.5173,-2.5214,-2.5016,-2.6277,-2.7294,-2.7876,-2.8948,-2.9813,-3.0385,-3.0404,-3.0404,-3.0404,-3.0404,-3.0404,-3.0404,-3.0981,-3.125,-3.1288,-3.1814,-3.1756,-3.125,-3.125,-3.125,-3.1212,-3.0635,-3.075,-3.1192,-3.0615,-2.9525,-2.8299,0.0,-2.7563,-2.6505,-2.5923,-2.5444,-2.5094,-2.5022,-2.493,-2.5155,-2.664,-2.6992,-2.7457,-2.9787,-3.0621,-3.1173,-3.2564,-3.3571,-3.4359,-3.493,-3.5288,-3.55,-3.55,-3.55,-3.575,-3.6538,-3.7411,-3.8296,-3.9169,-3.9977,-4.0496,-4.0496,-4.0989,-4.1143,-4.0573,-4.1997,-4.3047,-4.3085,-4.3605,-4.4393,-4.5518,-4.5594,-4.5594,-4.5594,-4.5594,-4.5594,-4.5594,-4.5594,-4.5594,-4.5594,-4.5594,-4.561,-4.5665,-4.5761,-4.5809,-4.583,-4.6014,-4.5962,-4.5685,-4.4901,-4.4062,-4.3203,-4.2344,-4.168,-4.1191,-4.1191,-4.1191,-4.1191,-4.1191,-4.1191,-4.1191,0.0,0.0,0.0,0.0,0.0,0.0,0.0,0.0,0.0,0.0,0.0,0.0,0.0,0.0,0.0,0.0,0.0,-2.5253,-2.513,-2.6036,-2.6851,-2.7409,-2.8222,-2.8906,-2.9391,-2.9391,-2.9544,-2.9832,-2.9832,-3.001,-3.0404,-3.0962,-3.1231,-3.125,-3.1775,-3.1718,-3.1231,-3.1231,-3.1231,-3.1192,-3.0635,-3.0731,-3.1135,-3.0275,-2.9083,0.0,-2.7544,-2.689,-2.6058,-2.55,-2.5163,-2.5031,-2.5285,-2.5645,-2.6293,-2.7903,-2.8145,-2.8517,-3.1367,-3.1948,-3.216,-3.3801,-3.443,-3.4814,-3.5365,-3.55,-3.55,-3.55,-3.55,-3.575,-3.6538,-3.7161,-3.7911,-3.9111,-3.9977,-4.0612,-4.0912,-4.172,-4.2066,-4.1497,-4.2874,-4.3778,-4.3547,-4.3528,-4.4105,-4.5498,-4.5594,-4.5594,-4.5594,-4.5594,-4.5594,-4.5594,-4.5594,-4.5594,-4.5594,-4.5594,-4.5594,-4.5594,-4.5696,-4.5754,-4.5809,-4.592,-4.6004,-4.5997,-4.5217,-4.4392,-4.3534,-4.2706,-4.1889,-4.1129,-4.1171,-4.1191,-4.1191,-4.1191,-4.1191,-4.1191,0.0,0.0,0.0,0.0,0.0,0.0,0.0,0.0,0.0,0.0,0.0,0.0,0.0,0.0,0.0,0.0,0.0,0.0,-2.5308,-2.6077,0.0,-2.6601,-2.739,-2.7777,-2.7612,-2.7631,-2.7975,-2.8739,-2.8745,-2.9296,-3.0315,-3.0359,-3.0423,-3.0462,-3.0519,-3.0519,-3.0462,-3.0423,-3.0404,-3.0385,-3.0308,-3.0308,-3.0231,-2.9371,0.0,0.0,-2.6909,-2.6038,-2.5308,-2.5346,-2.5258,-2.5241,-2.5929,-2.7047,-2.8362,-2.9542,-3.0565,-3.1553,-3.2654,-3.3564,-3.4205,-3.4263,-3.4891,-3.55,-3.55,-3.5462,-3.5423,-3.5423,-3.5404,-3.5596,-3.6365,-3.6615,-3.7238,-3.8892,-3.9919,-4.0804,-4.1681,-4.2547,-4.3104,-4.3104,-4.3181,-4.3508,-4.422,-4.4335,-4.4701,-4.5537,-4.5594,-4.5594,-4.5594,-4.5594,-4.5594,-4.5594,-4.5594,-4.5594,-4.5594,-4.5594,-4.5594,-4.5594,-4.5594,-4.5665,-4.579,-4.5796,-4.5825,-4.5851,-4.5092,-4.428,-4.3416,-4.2657,-4.1846,-4.1074,-4.1148,-4.1191,-4.1191,-4.1191,-4.1191,-4.1191,0.0,0.0,0.0,0.0,0.0,0.0,0.0,0.0,0.0,0.0,0.0,0.0,0.0,0.0,0.0,0.0,0.0,0.0,-2.5308,0.0,0.0,0.0,-2.6813,-2.7201,-2.7802,-2.7821,-2.7846,-2.7904,-2.8062,-2.8496,-2.9238,-3.0029,-3.075,-3.1385,-3.2006,-3.1929,-3.1327,-3.0673,-3.0404,-3.0288,0.0,-2.889,-2.9333,0.0,0.0,0.0,-2.6678,-2.6038,-2.5404,-2.6058,-2.6567,-2.7051,-2.7737,-2.8172,-2.8804,-3.0491,-3.1165,-3.1735,-3.3416,-3.4032,-3.4359,-3.5007,-3.5346,-3.55,-3.55,-3.5007,-3.4526,-3.4526,-3.4007,-3.3622,-3.3833,-3.543,-3.6846,-3.7296,-3.9123,-4.0804,-4.1681,-4.2547,-4.3104,-4.3104,-4.4201,-4.4786,-4.4335,-4.4902,-4.5364,-4.5575,-4.5594,-4.5594,-4.5594,-4.5594,-4.5594,-4.5594,-4.5594,-4.5594,-4.5594,-4.5594,-4.5594,-4.5594,-4.5594,-4.562,-4.5648,-4.5754,-4.5803,-4.5813,-4.5663,-4.5136,-4.4299,-4.3452,-4.2606,-4.1776,-4.1248,-4.1052,-4.1056,-4.1151,-4.1191,-4.1191,0.0,0.0,0.0,0.0,0.0,0.0,0.0,0.0,0.0,0.0,0.0,0.0,0.0,0.0,0.0,0.0,0.0,0.0,0.0,-2.5308,0.0,-2.6,-2.6019,-2.6229,-2.6617,-2.6918,-2.7046,-2.7039,0.0,0.0,-2.8414,-2.9029,-2.9563,-3.0044,-3.0506,-3.0448,-3.0006,-2.9506,0.0,0.0,0.0,0.0,0.0,0.0,0.0,-2.6544,-2.6173,-2.6212,-2.6563,-2.7409,-2.812,-2.8722,-2.9033,-2.9685,-3.0635,-3.2031,-3.2541,-3.2945,-3.4371,-3.4776,-3.4891,-3.5385,-3.55,-3.5404,-3.5026,-3.4545,-3.409,-3.3705,-3.3237,-3.2891,-3.2891,-3.4372,-3.5834,-3.6577,-3.8546,-4.0527,-4.2143,-4.3104,-4.3778,-4.4143,-4.5037,-4.5421,-4.4921,-4.5306,-4.5594,-4.5594,-4.5594,-4.5594,-4.5594,-4.5594,-4.5594,-4.5594,-4.5594,-4.5594,-4.5594,-4.5594,-4.5594,-4.5594,-4.5594,-4.5594,-4.5594,-4.568,-4.5715,-4.5703,-4.5751,-4.5305,-4.4453,-4.3643,-4.2815,-4.1995,-4.129,-4.0996,-4.1021,-4.115,-4.1191,-4.1191,0.0,0.0,0.0,0.0,0.0,0.0,0.0,0.0,0.0,0.0,0.0,0.0,0.0,0.0,0.0,0.0,0.0,0.0,0.0,0.0,0.0,-2.5308,-2.5308,-2.5219,-2.504,-2.5612,-2.5977,-2.613,-2.6686,0.0,0.0,0.0,0.0,0.0,0.0,0.0,0.0,0.0,0.0,0.0,0.0,0.0,0.0,0.0,0.0,0.0,-2.5577,-2.6351,-2.7876,-2.88,-2.9602,-3.023,-3.0349,-3.1504,-3.2982,-3.3784,-3.4184,-3.4545,-3.5288,-3.55,-3.55,-3.55,-3.5404,-3.5141,-3.4379,-3.3936,-3.3506,-3.2872,-3.2564,-3.2429,-3.2545,-3.3449,-3.4699,-3.6288,-3.8084,-4.0181,-4.2739,-4.3701,-4.4489,-4.5479,-4.5594,-4.5594,-4.5594,-4.5594,-4.5594,-4.5594,-4.5594,-4.5594,-4.5594,-4.5594,-4.5594,-4.5594,-4.5594,-4.5594,-4.5594,-4.5594,-4.5594,-4.5594,-4.5594,-4.5594,-4.5594,-4.5594,-4.5594,-4.5594,-4.5594,-4.5171,-4.441,-4.3649,-4.2866,-4.2085,-4.1409,-4.1081,-4.0992,-4.1149,-4.1191,-4.1191,0.0,0.0,0.0,0.0,0.0,0.0,0.0,0.0,0.0,0.0,-2.5308,-2.5308,0.0,0.0,0.0,0.0,0.0,0.0,0.0,0.0,0.0,0.0,-2.5308,-2.5279,-2.5253,-2.5362,-2.5359,-2.5233,-2.5499,-2.5945,0.0,0.0,0.0,0.0,0.0,0.0,0.0,0.0,0.0,0.0,0.0,0.0,0.0,0.0,0.0,0.0,-2.5346,-2.5962,-2.7063,-2.8588,-3.0123,-3.1629,-3.3018,-3.3665,-3.4082,-3.4946,-3.5229,-3.5308,-3.5462,-3.55,-3.55,-3.55,-3.4968,-3.4398,-3.4225,-3.2564,-3.1212,-3.1795,-3.0756,-2.9987,-3.0692,-3.2679,-3.4526,-3.5538,-3.7738,-4.0181,-4.2739,-4.322,-4.3874,-4.5421,-4.5594,-4.5594,-4.5594,-4.5594,-4.5594,-4.5594,-4.5594,-4.5594,-4.5594,-4.5594,-4.5594,-4.5594,-4.5594,-4.5594,-4.5594,-4.5594,-4.5594,-4.5594,-4.5594,-4.5594,-4.5594,-4.5594,-4.5594,-4.5594,-4.5594,-4.5518,-4.5306,-4.4454,-4.3643,-4.2834,-4.217,-4.1462,-4.0864,-4.1105,-4.1191,-4.1191,0.0,0.0,0.0,0.0,0.0,0.0,0.0,-2.5308,-2.5308,-2.5308,-2.5308,-2.5308,-2.5308,-2.5308,-2.5308,0.0,0.0,0.0,0.0,0.0,0.0,0.0,-2.5308,-2.5308,-2.5308,-2.5647,-2.5595,-2.5157,0.0,-2.5805,-2.5784,-2.5873,-2.6154,-2.6544,-2.6544,-2.6544,-2.6524,-2.6096,-2.5923,-2.5923,-2.5962,-2.5981,0.0,0.0,0.0,0.0,0.0,-2.7198,-2.8025,-2.8838,-3.0256,-3.1987,-3.3667,-3.4507,-3.4968,-3.5385,-3.55,-3.55,-3.55,-3.55,-3.55,-3.55,-3.4834,-3.409,-3.3622,-3.191,-3.0385,-3.0352,-2.9684,-2.9223,-2.964,-3.1468,-3.3314,-3.4603,-3.6238,-3.8527,-4.195,-4.2431,-4.3201,-4.5344,-4.5594,-4.5594,-4.5594,-4.5594,-4.5594,-4.5594,-4.5594,-4.5594,-4.5594,-4.5594,-4.5594,-4.5594,-4.5594,-4.5594,-4.5594,-4.5594,-4.5594,-4.5594,-4.5594,-4.5594,-4.5594,-4.5594,-4.5594,-4.5594,-4.5594,-4.5594,-4.5537,-4.4662,-4.4066,-4.3618,-4.2497,-4.181,-4.1455,-4.1199,-4.1149,-4.1191,0.0,0.0,0.0,0.0,0.0,0.0,0.0,-2.5308,-2.5308,-2.5308,-2.5308,-2.5308,-2.5308,-2.5308,-2.5308,0.0,0.0,0.0,0.0,0.0,0.0,0.0,0.0,-2.5308,-2.5308,0.0,0.0,-2.5577,-2.5928,0.0,0.0,0.0,0.0,0.0,-2.5308,-2.5308,-2.5308,-2.5308,-2.5308,0.0,0.0,-2.6601,0.0,0.0,0.0,0.0,0.0,-2.8184,-2.8646,-2.9184,-3.016,-3.1468,-3.3333,-3.4526,-3.5212,-3.5212,-3.5346,-3.55,-3.55,-3.55,-3.55,-3.55,-3.4699,-3.3744,-3.3064,-3.1333,-2.9717,-2.9204,-2.8953,-2.8896,-2.9069,-3.0525,-3.2256,-3.3936,-3.5084,-3.7115,-4.0989,-4.1835,-4.2893,-4.5056,-4.5498,-4.5594,-4.5594,-4.5594,-4.5594,-4.5594,-4.5594,-4.5594,-4.5594,-4.5594,-4.5594,-4.5594,-4.5594,-4.5594,-4.5594,-4.5594,-4.5594,-4.5594,-4.5594,-4.5594,-4.5594,-4.5594,-4.5594,-4.5594,-4.5594,-4.5594,-4.5556,-4.4855,-4.447,-4.4168,-4.2795,-4.218,-4.1993,-4.122,-4.1025,-4.1106,0.0,0.0,0.0,0.0,0.0,0.0,0.0,-2.5308,-2.5308,-2.5308,-2.5308,-2.5308,-2.5308,-2.5308,-2.5308,0.0,0.0,0.0,0.0,0.0,0.0,0.0,0.0,0.0,0.0,0.0,0.0,-2.6486,-2.5754,0.0,0.0,0.0,0.0,0.0,0.0,-2.5308,-2.5308,-2.5308,0.0,0.0,0.0,0.0,0.0,0.0,0.0,0.0,0.0,-2.7448,-2.7178,-2.95,-2.9852,-2.9781,-3.2237,-3.3622,-3.4321,-3.4321,-3.4872,-3.55,-3.55,-3.55,-3.55,-3.55,-3.4257,-3.3006,-3.291,-3.0429,-2.8319,-2.8973,-2.853,-2.8222,-2.8973,-3.0525,-3.2256,-3.3936,-3.5545,-3.7526,-4.0246,-4.197,-4.3335,-4.4297,-4.5133,-4.5594,-4.5594,-4.5594,-4.5594,-4.5594,-4.5594,-4.5594,-4.5594,-4.5594,-4.5594,-4.5594,-4.5594,-4.5594,-4.5594,-4.5594,-4.5594,-4.5594,-4.5594,-4.5594,-4.5594,-4.5594,-4.5594,-4.5594,-4.5594,-4.5594,-4.5594,-4.5518,-4.5017,-4.4226,-4.3413,-4.2653,-4.1914,-4.1103,-4.0839,-4.0847,0.0,0.0,0.0,0.0,0.0,0.0,-2.5308,-2.5308,-2.5308,-2.5308,-2.5308,-2.5308,-2.5308,-2.5308,-2.5308,-2.5308,0.0,0.0,0.0,0.0,0.0,0.0,0.0,0.0,0.0,0.0,-2.625,-2.6601,-2.6774,0.0,0.0,0.0,0.0,0.0,0.0,-2.5308,-2.5308,-2.5308,0.0,0.0,0.0,0.0,0.0,0.0,0.0,0.0,0.0,0.0,-2.8962,-2.9448,-2.939,-2.9184,-2.9717,-3.0814,-3.2218,-3.3744,-3.4449,-3.4834,-3.5365,-3.55,-3.55,-3.55,-3.4192,-3.2891,-3.2891,-3.0314,-2.7992,-2.8319,-2.8126,-2.8011,-2.8319,-2.9775,-3.1462,-3.3141,-3.3987,-3.5488,-3.8565,-4.0046,-4.1489,-4.3355,-4.4316,-4.5017,-4.5556,-4.5594,-4.5594,-4.5594,-4.5594,-4.5594,-4.5594,-4.5594,-4.5594,-4.5594,-4.5594,-4.5594,-4.5594,-4.5594,-4.5594,-4.5594,-4.5594,-4.5594,-4.5594,-4.5594,-4.5594,-4.5594,-4.5594,-4.5594,-4.5594,-4.5594,-4.5402,-4.494,-4.3655,-4.296,-4.2556,-4.123,-4.0776,-4.0797,0.0,0.0,0.0,0.0,0.0,-2.5308,-2.5308,-2.5308,-2.5308,-2.5308,-2.5308,-2.5404,-2.5654,-2.5442,-2.5404,-2.5654,-2.5442,0.0,0.0,0.0,0.0,0.0,0.0,0.0,0.0,0.0,-2.6832,-2.7332,-2.7717,-2.803,0.0,0.0,-2.6851,-2.6563,0.0,0.0,0.0,0.0,0.0,0.0,0.0,0.0,0.0,0.0,0.0,0.0,0.0,0.0,0.0,0.0,0.0,-2.8684,-2.8357,-2.9063,-3.0429,-3.2468,-3.3609,-3.434,-3.4949,-3.5308,-3.55,-3.55,-3.4192,-3.2891,-3.2891,-3.0487,-2.8261,-2.8261,-2.8261,-2.8261,-2.8261,-2.9429,-3.0865,-3.2314,-3.2968,-3.4295,-3.7219,-3.8796,-4.0419,-4.247,-4.3431,-4.4278,-4.5133,-4.546,-4.5594,-4.5594,-4.5594,-4.5594,-4.5594,-4.5594,-4.5594,-4.5594,-4.5594,-4.5594,-4.5594,-4.5594,-4.5594,-4.5594,-4.5594,-4.5594,-4.5594,-4.5594,-4.5594,-4.5594,-4.5594,-4.5594,-4.5594,-4.5594,-4.5594,-4.5441,-4.3739,-4.3135,-4.2962,-4.1261,-4.0665,-4.0713,0.0,0.0,0.0,0.0,0.0,0.0,-2.5308,-2.5308,-2.5308,-2.5308,-2.5308,-2.5635,-2.6486,-2.5827,-2.5654,-2.6505,-2.5808,0.0,0.0,0.0,0.0,0.0,0.0,0.0,0.0,0.0,-2.7409,-2.9069,-2.8299,-2.8319,-2.9069,-2.8261,-2.7428,-2.6601,0.0,0.0,0.0,0.0,0.0,0.0,0.0,0.0,0.0,0.0,0.0,0.0,0.0,0.0,0.0,0.0,0.0,0.0,0.0,-2.9107,-2.93,-3.0173,-3.2218,-3.4205,-3.4205,-3.4834,-3.55,-3.55,-3.4192,-3.2891,-3.2891,-3.091,-2.9088,-2.9088,-2.9088,-2.9088,-2.9088,-2.9813,-3.0692,-3.1564,-3.3103,-3.4776,-3.6481,-3.8892,-4.0823,-4.172,-4.2585,-4.3431,-4.4239,-4.5094,-4.5594,-4.5594,-4.5594,-4.5594,-4.5594,-4.5594,-4.5594,-4.5594,-4.5594,-4.5594,-4.5594,-4.5594,-4.5594,-4.5594,-4.5594,-4.5594,-4.5594,-4.5594,-4.5594,-4.5594,-4.5594,-4.5594,-4.5594,-4.5594,-4.5594,-4.5441,-4.3739,-4.3104,-4.2893,-4.1131,-4.0496,-4.0504,0.0,0.0,0.0,0.0,0.0,0.0,0.0,-2.5308,-2.5308,-2.5308,-2.5308,-2.5404,-2.5673,-2.5462,-2.5654,-2.6524,-2.5808,0.0,0.0,0.0,0.0,0.0,0.0,0.0,0.0,0.0,-2.803,-2.9107,-2.9448,-2.9731,-2.9967,-2.9121,-2.8569,-2.828,-2.7736,-2.7005,0.0,0.0,0.0,0.0,0.0,0.0,0.0,0.0,0.0,0.0,0.0,0.0,0.0,0.0,0.0,0.0,0.0,0.0,0.0,-2.8448,-3.0506,-3.2602,-3.316,-3.3506,-3.3718,-3.3718,-3.2891,-3.2083,-3.2083,-3.0525,-2.9107,-2.9107,-2.9107,-2.9107,-2.9107,-2.9813,-3.1058,-3.3083,-3.3859,-3.4994,-3.7276,-3.9258,-4.0816,-4.17,-4.3585,-4.4921,-4.5171,-4.5441,-4.5594,-4.5594,-4.5594,-4.5594,-4.5594,-4.5594,-4.5594,-4.5594,-4.5594,-4.5594,-4.5594,-4.5594,-4.5594,-4.5594,-4.5594,-4.5594,-4.5594,-4.5594,-4.5594,-4.5594,-4.5594,-4.5594,-4.5594,-4.5594,-4.5248,-4.4605,-4.3528,-4.2739,-4.2066,-4.092,-4.0496,-4.0496,0.0,0.0,0.0,0.0,0.0,0.0,0.0,-2.5308,-2.5308,-2.5308,-2.5308,-2.5423,-2.575,-2.55,-2.5788,-2.6986,-2.6288,0.0,0.0,0.0,0.0,0.0,0.0,0.0,-2.7063,-2.7621,-2.8626,-3.0083,-3.0621,-3.0885,-3.0885,-3.0333,-2.9723,-2.9088,-2.8588,-2.7871,0.0,0.0,0.0,0.0,0.0,0.0,0.0,0.0,0.0,0.0,0.0,0.0,0.0,0.0,0.0,0.0,0.0,0.0,0.0,0.0,-2.8775,-3.0583,-3.2045,-3.2679,-3.2891,-3.2891,-3.2295,-3.1621,-3.1269,-3.0121,-2.9011,-2.8703,-2.8896,-2.9107,-2.9107,-2.9813,-3.0923,-3.2506,-3.3295,-3.4487,-3.6738,-3.8777,-4.0612,-4.2104,-4.3951,-4.5114,-4.5114,-4.5421,-4.5594,-4.5594,-4.5594,-4.5594,-4.5594,-4.5594,-4.5594,-4.5594,-4.5594,-4.5594,-4.5594,-4.5594,-4.5594,-4.5594,-4.5594,-4.5594,-4.5594,-4.5594,-4.5594,-4.5594,-4.5594,-4.5594,0.0,-4.5248,-4.4778,-4.4182,-4.3047,-4.2277,-4.1692,-4.0823,-4.0496,-4.0496,0.0,0.0,0.0,0.0,0.0,0.0,0.0,-2.5308,-2.5308,-2.5308,-2.5308,-2.5615,-2.6428,-2.5788,-2.6,-2.7761,0.0,0.0,0.0,0.0,0.0,0.0,0.0,0.0,-2.7857,-2.7953,-2.9179,-3.1621,-3.1621,-3.1621,-3.1621,-3.1621,-3.0737,-2.9184,-2.9184,-2.878,0.0,0.0,0.0,0.0,0.0,0.0,0.0,0.0,0.0,0.0,0.0,0.0,0.0,0.0,0.0,0.0,0.0,0.0,0.0,0.0,0.0,0.0,0.0,-3.1987,-3.2545,-3.2545,-3.1987,-3.1218,-3.0404,-2.9602,0.0,-2.8049,-2.8549,-2.9127,-2.9184,-2.9852,-3.0462,-3.0635,-3.1987,-3.3622,-3.5423,-3.7911,-4.0469,-4.2893,-4.3893,-4.4393,-4.4393,-4.5133,-4.5594,-4.5594,-4.5594,-4.5594,-4.5594,-4.5594,-4.5594,-4.5594,-4.5594,-4.5594,-4.5594,-4.5594,-4.5594,-4.5594,-4.5594,-4.5594,-4.5594,-4.5594,-4.5594,-4.5594,-4.5594,-4.5594,-4.5537,-4.4662,-4.4259,-4.4047,-4.2431,-4.175,-4.1604,-4.0804,-4.0496,-4.0496,0.0,0.0,0.0,0.0,0.0,0.0,0.0,0.0,0.0,0.0,-2.5308,-2.5385,-2.5577,-2.5423,-2.6,0.0,0.0,0.0,0.0,0.0,0.0,0.0,0.0,0.0,-2.7876,-2.8492,-2.9448,-3.0712,-3.0712,-3.0712,-3.0712,-3.0712,-3.0481,-3.0096,-3.0096,-2.9981,0.0,0.0,0.0,0.0,0.0,0.0,0.0,0.0,0.0,0.0,-2.7972,-2.8415,0.0,0.0,0.0,0.0,0.0,0.0,0.0,0.0,-2.6755,-2.7178,-2.8448,0.0,-2.9083,-2.9083,-2.8929,-2.8736,0.0,-2.8332,-2.8126,-2.7934,-2.8549,-2.93,-2.9967,-3.0269,-3.1038,-3.2987,-3.3648,-3.4718,-3.7084,-4.0181,-4.2662,-4.3874,-4.4759,-4.5287,-4.5287,-4.5479,-4.5594,-4.5594,-4.5594,-4.5594,-4.5594,-4.5594,-4.5594,-4.5594,-4.5594,-4.5594,-4.5594,-4.5594,-4.5594,-4.5594,-4.5594,-4.5594,-4.5594,-4.5594,-4.5594,-4.5594,-4.5594,-4.5594,-4.5537,-4.4662,-4.3932,-4.3278,-4.222,-4.1393,-4.0785,-4.0573,-4.0496,-4.0496,0.0,0.0,0.0,0.0,0.0,0.0,0.0,0.0,0.0,0.0,0.0,-2.5308,-2.5308,-2.5308,0.0,0.0,0.0,0.0,0.0,0.0,0.0,0.0,0.0,-2.7582,-2.8434,-2.8876,-2.9717,-3.1,-3.1,-3.1,-3.1,-3.1,-3.0788,-3.0404,-3.0404,-3.0404,0.0,0.0,0.0,0.0,0.0,0.0,0.0,0.0,0.0,0.0,-2.6851,-2.7236,0.0,-2.7915,-2.8184,-2.8396,0.0,0.0,0.0,0.0,-2.6,-2.6115,-2.6582,-2.7563,-2.8453,-2.8453,-2.8453,-2.8357,-2.7992,-2.7582,-2.7198,-2.6794,-2.7585,-2.8554,-2.9142,-3.0113,-3.1302,-3.2801,-3.3705,-3.5225,-3.818,-4.12,-4.3393,-4.4201,-4.5075,-4.5594,-4.5594,-4.5594,-4.5594,-4.5594,-4.5594,-4.5594,-4.5594,-4.5594,-4.5594,-4.5594,-4.5594,-4.5594,-4.5594,-4.5594,-4.5594,-4.5594,-4.5594,-4.5594,-4.5594,-4.5594,-4.5594,-4.5594,-4.5594,-4.5364,-4.494,-4.4105,-4.3258,-4.2431,-4.1546,-4.0912,-4.0496,-4.0496,-4.0496,-4.0496,0.0,0.0,0.0,0.0,0.0,0.0,0.0,0.0,0.0,0.0,0.0,0.0,0.0,0.0,0.0,0.0,0.0,0.0,0.0,0.0,0.0,0.0,-2.8145,-2.8396,-2.9088,-2.9223,-3.0025,-3.1506,-3.1506,-3.1506,-3.1506,-3.1506,-3.1115,-3.0404,-3.0404,-3.0404,0.0,0.0,0.0,0.0,0.0,0.0,0.0,0.0,0.0,0.0,0.0,0.0,0.0,-2.7294,-2.7678,-2.7857,-2.7582,0.0,0.0,0.0,0.0,0.0,-2.5462,-2.7255,-2.905,-2.878,-2.8819,-2.8742,-2.8068,-2.7332,-2.6572,-2.5796,-2.6756,-2.7886,-2.8334,-3.0023,-3.1565,-3.2173,-3.368,-3.5841,-3.888,-4.1373,-4.3201,-4.4028,-4.4883,-4.546,-4.5594,-4.5594,-4.5594,-4.5594,-4.5594,-4.5594,-4.5594,-4.5594,-4.5594,-4.5594,-4.5594,-4.5594,-4.5594,-4.5594,-4.5594,-4.5594,-4.5594,-4.5594,-4.5594,-4.5594,-4.5594,-4.5594,-4.546,-4.4979,-4.422,-4.3297,-4.247,-4.1712,-4.0835,-4.0496,-4.0496,-4.0496,-4.0496,-4.0496,0.0,0.0,0.0,0.0,0.0,0.0,0.0,0.0,0.0,0.0,0.0,0.0,0.0,0.0,0.0,0.0,0.0,0.0,0.0,0.0,0.0,-3.0019,-2.9313,-2.8973,-2.9107,-2.9813,-3.0327,-3.0596,-3.0596,-3.0596,-3.0596,-3.0596,-3.0538,-3.0404,-3.0404,-3.0404,-3.0404,0.0,0.0,0.0,-3.0404,0.0,0.0,0.0,0.0,0.0,0.0,0.0,0.0,-2.5904,-2.6678,-2.764,-2.6154,0.0,0.0,0.0,0.0,0.0,-2.6192,-2.7717,-2.8761,-2.7332,-2.7544,-2.8049,-2.7934,-2.7799,-2.7602,-2.7243,-2.8063,-2.9243,-3.0543,-3.1257,-3.2359,-3.4558,-3.6315,-3.7853,-3.913,-4.0854,-4.2316,-4.3181,-4.3989,-4.4778,-4.5537,-4.5594,-4.5594,-4.5594,-4.5594,-4.5594,-4.5594,-4.5594,-4.5594,-4.5594,-4.5594,-4.5594,-4.5594,-4.5594,-4.5594,-4.5594,-4.5594,-4.5594,-4.5594,-4.5594,-4.5594,-4.5556,-4.4816,-4.4412,-4.4182,-4.2643,-4.1923,-4.1712,-4.0835,-4.0496,-4.0496,-4.0496,-4.0496,-4.0496,0.0,0.0,0.0,0.0,0.0,0.0,0.0,0.0,0.0,0.0,0.0,0.0,0.0,0.0,0.0,0.0,0.0,0.0,0.0,0.0,-3.0404,-3.0404,-3.0019,-2.9794,-2.9794,-3.0192,-3.0404,-3.0404,-3.0404,-3.0404,-3.0404,-3.0404,-3.0404,-3.0404,-3.0404,-3.0404,-3.0404,-3.0404,0.0,0.0,0.0,0.0,0.0,0.0,0.0,0.0,0.0,0.0,0.0,0.0,-2.6524,-2.7063,-2.625,0.0,0.0,0.0,0.0,0.0,-2.5788,-2.7159,-2.8376,-2.8025,-2.8967,-2.979,-2.9181,-2.904,-2.8961,-2.8684,-2.9298,-3.0143,-3.1119,-3.2419,-3.4093,-3.6471,-3.7892,-3.8834,-3.9246,-4.0739,-4.1942,-4.2354,-4.3528,-4.4297,-4.4239,-4.5075,-4.5229,-4.4316,-4.4643,-4.4701,-4.4259,-4.4239,-4.4239,-4.4239,-4.4239,-4.4451,-4.4893,-4.4893,-4.5133,-4.5594,-4.5594,-4.5594,-4.5594,-4.5594,-4.5344,-4.4883,-4.447,-4.3797,-4.2893,-4.2115,-4.1527,-4.1066,-4.0669,-4.0496,-4.0496,-4.0496,-4.0496,-4.0496,0.0,0.0,0.0,0.0,0.0,0.0,0.0,0.0,0.0,0.0,0.0,0.0,0.0,0.0,0.0,0.0,0.0,0.0,0.0,0.0,-3.0192,-3.0385,-3.0404,-3.0404,-3.0404,-3.0404,-3.0404,-3.0404,-3.0404,-3.05,-3.0692,-3.05,-3.0519,-3.0692,-3.05,-3.0404,-3.0404,-3.0404,-3.0404,0.0,0.0,0.0,0.0,0.0,0.0,0.0,0.0,0.0,0.0,0.0,0.0,0.0,0.0,0.0,0.0,-2.55,-2.5308,-2.5346,-2.5558,-2.6736,-2.8038,-2.8606,-2.9925,-3.1027,-3.0734,-3.0386,-3.0129,-3.0275,-3.0706,-3.1224,-3.1773,-3.3857,-3.6023,-3.7713,-3.8892,-3.9573,-3.9573,-4.0681,-4.1566,-4.1769,-4.2931,-4.3547,-4.3143,-4.4259,-4.447,-4.3201,-4.3662,-4.3739,-4.3124,-4.3104,-4.3104,-4.3104,-4.3104,-4.3393,-4.4008,-4.4201,-4.4739,-4.5594,-4.5594,-4.5498,-4.5306,-4.5306,-4.4816,-4.4008,-4.3797,-4.2989,-4.1769,-4.1585,-4.1104,-4.0496,-4.0496,-4.0496,-4.0496,-4.0496,-4.0496,-4.0496,0.0,0.0,0.0,0.0,0.0,0.0,0.0,0.0,0.0,0.0,0.0,0.0,0.0,0.0,0.0,0.0,0.0,0.0,0.0,0.0,-2.9544,-3.0365,-3.0404,-3.0404,-3.0404,-3.0404,-3.0404,-3.0404,-3.0404,-3.0808,-3.1583,-3.0788,-3.0827,-3.1564,-3.075,-3.0404,-3.0404,-3.0404,-3.0404,-3.0404,-3.0404,0.0,0.0,0.0,0.0,0.0,0.0,0.0,0.0,0.0,0.0,0.0,0.0,0.0,-2.5385,-2.5327,-2.5308,-2.5481,-2.6288,-2.7198,-2.7863,-2.7746,-2.849,-2.9871,-3.2161,-3.1482,-3.074,-3.2103,-3.2575,-3.2914,-3.3509,-3.5895,-3.7805,-3.7962,-3.9361,-4.0419,-4.0419,-4.0516,-4.0893,-4.1692,-4.1904,-4.2277,-4.3028,-4.3201,-4.3239,-4.3104,-4.3143,-4.3162,-4.3104,-4.3104,-4.3104,-4.3104,-4.3104,-4.3124,-4.3181,-4.3932,-4.4739,-4.5594,-4.5594,-4.519,-4.4393,-4.4393,-4.3951,-4.3143,-4.2335,-4.1904,-4.1731,-4.0931,-4.0554,-4.0496,-4.0496,-4.0496,-4.0496,-4.0496,-4.0496,-4.0496,0.0,0.0,0.0,0.0,0.0,0.0,0.0,0.0,0.0,0.0,0.0,0.0,0.0,0.0,0.0,0.0,0.0,0.0,0.0,-2.8819,-2.9486,-3.0365,-3.0404,-3.0404,-3.0404,-3.0404,-3.0404,-3.0404,-3.0404,-3.0846,-3.1679,-3.0808,-3.0577,-3.0885,-3.0558,-3.0404,-3.0404,-3.0404,-3.0404,-3.0404,-3.0404,0.0,0.0,0.0,0.0,0.0,0.0,0.0,0.0,0.0,-2.5308,-2.5308,-2.5308,-2.5308,-2.5308,-2.5308,-2.5308,-2.5365,-2.5692,-2.7198,-2.8635,-2.8545,-2.9625,-3.0899,-3.1577,-3.242,-3.3365,-3.4424,-3.4973,-3.5368,-3.5789,-3.672,-3.7661,-3.8388,-3.93,-4.0014,-4.0223,-4.0241,-4.0436,-4.0934,-4.147,-4.172,-4.1489,-4.245,-4.2643,-4.1546,-4.1989,-4.2047,-4.1508,-4.1477,-4.1477,-4.1477,-4.1477,-4.1739,-4.2297,-4.2585,-4.3181,-4.4047,-4.4547,-4.4355,-4.3547,-4.3547,-4.3085,-4.2277,-4.1942,-4.1489,-4.0969,-4.065,-4.0496,-4.0496,-4.0496,-4.0496,-4.0496,-4.0496,-4.0496,-4.0496,0.0,0.0,0.0,0.0,0.0,0.0,0.0,0.0,0.0,0.0,0.0,0.0,0.0,0.0,0.0,0.0,0.0,0.0,-2.7428,-2.8261,-2.9102,-2.9948,-3.025,-3.0404,-3.0404,-3.0404,-3.0404,-3.0404,-3.0404,-3.0846,-3.1679,-3.0808,-3.0558,-3.0808,-3.0519,-3.0404,-3.0404,-3.0404,-3.0404,-3.0404,-3.0404,-2.9544,0.0,0.0,0.0,0.0,0.0,0.0,0.0,0.0,-2.5308,-2.5308,-2.5308,-2.5308,-2.5308,-2.5308,-2.55,-2.5712,-2.5712,-2.7178,-2.8769,-2.896,-3.0113,-3.1249,-3.1458,-3.2866,-3.4516,-3.5865,-3.6431,-3.6785,-3.706,-3.7173,-3.7532,-3.8496,-3.9175,-3.9679,-3.9912,-3.9932,-4.0003,-4.0184,-4.0738,-4.0872,-4.026,-4.1283,-4.1494,-4.0307,-4.0776,-4.0853,-4.0241,-4.0311,-4.0372,-4.0372,-4.0457,-4.0785,-4.1373,-4.1662,-4.197,-4.2297,-4.3124,-4.322,-4.2701,-4.2701,-4.222,-4.1393,-4.1393,-4.1046,-4.0496,-4.0496,-4.0496,-4.0496,-4.0496,-4.0496,-4.0496,-4.0496,-4.0496,-4.0496,0.0,0.0,0.0,0.0,0.0,0.0,0.0,0.0,0.0,0.0,0.0,0.0,0.0,0.0,0.0,0.0,0.0,0.0,-2.6544,-2.7409,-2.8261,-2.9069,-2.9929,-3.0385,-3.0404,-3.0404,-3.0404,-3.0404,-3.0404,-3.0846,-3.1679,-3.0808,-3.0865,-3.166,-3.0788,-3.0404,-3.0385,-3.0385,-3.0385,-3.0385,-3.0385,-2.9871,0.0,0.0,0.0,0.0,0.0,0.0,0.0,0.0,-2.5308,-2.5308,-2.5308,-2.5308,-2.5308,-2.5308,-2.5923,-2.6601,-2.6582,-2.7236,-2.8055,-2.8645,-2.9482,-3.0574,-3.2248,-3.2772,-3.3635,-3.6173,-3.6704,-3.6779,-3.7057,-3.7325,-3.768,-3.8214,-3.901,-3.9599,-3.9599,-3.9599,-3.9599,-3.9599,-3.9599,-3.9599,-3.9599,-3.9599,-3.9599,-3.9599,-3.9599,-3.9599,-3.9599,-3.9912,-4.0091,-4.0091,-4.0356,-4.0496,-4.0496,-4.1354,-4.1354,-4.0516,-4.1373,-4.1788,-4.1788,-4.1788,-4.1316,-4.0496,-4.0496,-4.0496,-4.0496,-4.0496,-4.0496,-4.0496,-4.0496,-4.0496,-4.0496,-4.0496,-4.0496,-4.0496,0.0,0.0,0.0,0.0,0.0,0.0,0.0,0.0,0.0,0.0,0.0,0.0,0.0,0.0,0.0,0.0,0.0,0.0,-2.6544,-2.6832,-2.7621,-2.905,-2.9357,-2.9775,-3.0385,-3.0404,-3.0692,-3.1308,-3.0692,-3.0846,-3.1679,-3.0808,-3.0538,-3.0769,-3.0519,-3.0058,-2.9486,-2.9486,-2.9486,-2.9486,-2.9486,-2.9338,-2.9011,0.0,0.0,0.0,0.0,0.0,0.0,0.0,0.0,0.0,-2.5308,-2.5712,-2.6096,-2.5481,-2.5923,-2.6467,-2.5846,-2.7178,-2.8788,-2.896,-3.1002,-3.3114,-3.36,-3.41,-3.4923,-3.6635,-3.6826,-3.6716,-3.6794,-3.7193,-3.762,-3.7959,-3.8552,-3.9036,-3.9231,-3.9238,-3.9346,-3.9576,-3.9599,-3.9599,-3.9599,-3.9599,-3.9599,-3.9599,-3.9599,-3.9599,-3.9599,-3.969,-3.9754,-3.9754,-4.0043,-4.0213,-4.0213,-4.0666,-4.0766,-4.0496,-4.0766,-4.0893,-4.0893,-4.0893,-4.0746,-4.0496,-4.0496,-4.0496,-4.0496,-4.0496,-4.0496,-4.0496,-4.0496,-4.0496,-4.0496,-4.0496,-4.0496,-4.0496,0.0,0.0,0.0,0.0,0.0,0.0,0.0,0.0,0.0,0.0,0.0,0.0,0.0,0.0,0.0,0.0,0.0,0.0,0.0,-2.6409,-2.7217,-2.8569,-2.8934,-2.9506,-3.0385,-3.0404,-3.0654,-3.1173,-3.0654,-3.0673,-3.1173,-3.0654,-3.0404,-3.0404,-3.0404,-2.9929,-2.9107,-2.9107,-2.8915,-2.8646,-2.8973,-2.8915,-2.8569,0.0,0.0,0.0,0.0,0.0,0.0,0.0,0.0,0.0,-2.5308,-2.5654,-2.6058,-2.5865,-2.6428,-2.7063,-2.6871,-2.8448,-3.0198,-3.0531,-3.2416,-3.4263,-3.4494,-3.5097,-3.5759,-3.6335,-3.667,-3.6894,-3.701,-3.7368,-3.7779,-3.8169,-3.8494,-3.8747,-3.8923,-3.8933,-3.9017,-3.9216,-3.9242,-3.9242,-3.9242,-3.9242,-3.9242,-3.9242,-3.9242,-3.9242,-3.9242,-3.9333,-3.9389,-3.9389,-3.9731,-3.9901,-3.9901,-4.0072,-4.0212,-4.0339,-4.0212,-4.0212,-4.0347,-4.0457,-4.0496,-4.0496,-4.0496,-4.0496,-4.0496,-4.0496,-4.0496,-4.0496,-4.0496,-4.0496,-4.0496,-4.0496,-4.0496,-4.0496,0.0,0.0,0.0,0.0,0.0,0.0,0.0,0.0,0.0,0.0,-2.5308,0.0,0.0,0.0,0.0,0.0,0.0,0.0,0.0,0.0,-2.6986,-2.7857,-2.8761,-2.9583,-3.0385,-3.0404,-3.0404,-3.0404,-3.0404,-3.0404,-3.0404,-3.0404,-3.0404,-3.0404,-3.0327,-2.9794,-2.8992,-2.8915,-2.8453,-2.7857,-2.8588,-2.8472,-2.7895,-2.7818,0.0,0.0,0.0,0.0,0.0,0.0,0.0,0.0,-2.5308,-2.5346,-2.5558,-2.6269,-2.7159,-2.8049,-2.8703,-3.0198,-3.1775,-3.2583,-3.3564,-3.4459,-3.4958,-3.5632,-3.6018,-3.5486,-3.626,-3.7103,-3.7348,-3.7715,-3.8127,-3.8624,-3.8707,-3.8707,-3.8707,-3.8707,-3.8707,-3.8707,-3.8707,-3.8707,-3.8707,-3.8707,-3.8707,-3.8707,-3.8707,-3.8707,-3.8707,-3.8919,-3.9058,-3.9058,-3.9377,-3.9545,-3.9545,-3.9587,-3.9754,-4.0042,-3.9754,-3.9765,-4.0052,-4.0347,-4.0481,-4.0496,-4.0473,-4.0481,-4.0496,-4.0496,-4.0496,-4.0496,-4.0496,-4.0496,-4.0496,-4.0496,-4.0496,-4.0496,0.0,0.0,0.0,0.0,0.0,0.0,0.0,0.0,0.0,0.0,0.0,0.0,0.0,0.0,0.0,0.0,0.0,0.0,0.0,0.0,-2.6986,-2.7857,-2.9333,-3.0212,-3.0404,-3.0404,-3.0404,-3.0404,-3.0404,-3.0404,-3.0404,-3.0404,-3.0404,-3.0365,-2.9679,-2.8915,-2.8107,-2.7428,-2.7044,-2.689,-2.7063,-2.7448,-2.7838,-2.714,-2.6755,0.0,0.0,0.0,0.0,0.0,0.0,0.0,-2.5308,-2.5769,-2.6212,-2.5731,-2.6678,-2.7799,-2.7274,-2.8865,-3.0885,-3.1737,-3.3603,-3.5146,-3.4841,-3.4916,-3.4939,-3.4549,-3.5539,-3.6482,-3.6548,-3.7629,-3.8578,-3.8686,-3.8707,-3.8707,-3.8707,-3.8707,-3.8707,-3.8707,-3.8707,-3.8707,-3.8707,-3.8707,-3.8707,-3.8707,-3.8707,-3.8707,-3.8707,-3.8747,-3.8788,-3.8788,-3.9068,-3.9199,-3.9199,-3.9481,-3.9634,-3.972,-3.9634,-3.9634,-3.9731,-4.0042,-4.0304,-4.0489,-4.0286,-4.0313,-4.0496,-4.0496,-4.0496,-4.0496,-4.0496,-4.0496,-4.0496,-4.0496,-4.0496,-4.0496,0.0,0.0,0.0,0.0,0.0,0.0,0.0,0.0,0.0,0.0,0.0,0.0,0.0,0.0,0.0,0.0,0.0,0.0,0.0,-2.6115,-2.7159,-2.8415,-2.9717,-3.0404,-3.0404,-2.9981,-2.9981,-3.0404,-2.9981,-2.9981,-3.0404,-3.0404,-3.0404,-3.0365,-2.9486,-2.8646,-2.7838,-2.6967,-2.6365,-2.6,-2.6428,-2.6621,-2.6659,-2.6621,-2.6346,-2.5923,-2.5462,0.0,0.0,0.0,0.0,0.0,0.0,0.0,-2.5962,-2.5923,-2.6563,-2.7351,-2.7698,-2.939,-3.1423,-3.3096,-3.4519,-3.5361,-3.4813,-3.4694,-3.458,-3.4105,-3.4902,-3.5807,-3.6211,-3.7294,-3.8248,-3.8634,-3.8707,-3.8707,-3.8707,-3.8707,-3.8707,-3.8707,-3.8707,-3.8707,-3.8707,-3.8707,-3.8707,-3.8707,-3.8707,-3.8707,-3.8707,-3.8707,-3.8707,-3.8707,-3.8844,-3.8909,-3.8909,-3.9087,-3.9223,-3.9352,-3.9223,-3.9236,-3.9364,-3.972,-4.0023,-4.0304,-4.0158,-4.0241,-4.0496,-4.0496,-4.0496,-4.0496,-4.0496,-4.0496,-4.0496,-4.0496,-4.0496,-4.0496,0.0,0.0,0.0,0.0,0.0,0.0,0.0,0.0,0.0,0.0,0.0,0.0,0.0,0.0,0.0,0.0,0.0,0.0,0.0,-2.625,-2.7505,-2.903,-2.9929,-3.0327,-3.0173,-2.9467,-2.9448,-3.0173,-2.9313,-2.9486,-3.0615,-3.0462,-3.0404,-3.0365,-2.9333,-2.853,-2.7838,-2.6813,-2.5962,-2.5365,-2.6096,-2.5942,-2.5385,-2.6096,-2.5923,-2.5308,-2.5308,-2.5308,-2.5308,-2.5308,0.0,0.0,0.0,0.0,-2.5442,-2.6154,-2.6486,-2.6909,-2.8299,-3.014,-3.2275,-3.4673,-3.5385,-3.5361,-3.4813,-3.4694,-3.4537,-3.3915,-3.4435,-3.5261,-3.6138,-3.696,-3.7768,-3.8579,-3.8707,-3.8707,-3.8707,-3.8707,-3.8707,-3.8707,-3.8707,-3.8707,-3.8707,-3.8707,-3.8707,-3.8707,-3.8707,-3.8707,-3.8707,-3.8707,-3.8707,-3.8707,-3.8707,-3.8707,-3.8707,-3.8707,-3.8818,-3.9022,-3.8818,-3.8833,-3.9036,-3.9308,-3.9652,-4.0012,-3.9943,-4.012,-4.0441,-4.0441,-4.0441,-4.0441,-4.0441,-4.0441,-4.0441,-4.0441,-4.0465,-4.0496,0.0,0.0,0.0,0.0,0.0,0.0,0.0,0.0,0.0,0.0,-2.5308,-2.5308,-2.5308,-2.5404,0.0,0.0,0.0,0.0,-2.5308,0.0,0.0,-2.9069,-2.9929,-3.0038,-2.93,-2.9165,-2.9165,-2.928,-2.8453,-2.9256,-3.1506,-3.075,-3.0404,-3.0327,-2.8756,-2.8011,-2.7799,-2.6154,-2.5404,-2.5308,-2.5423,-2.5404,-2.5308,-2.5423,-2.5404,-2.5308,-2.5308,-2.5308,-2.5308,-2.5308,-2.5308,0.0,0.0,0.0,-2.5327,-2.5442,-2.6,-2.6659,-2.6871,-2.9275,-3.2122,-3.393,-3.4949,-3.5361,-3.4813,-3.4694,-3.4537,-3.3915,-3.4435,-3.5261,-3.6138,-3.696,-3.7768,-3.8579,-3.8707,-3.8707,-3.8707,-3.8707,-3.8707,-3.8707,-3.8707,-3.8707,-3.8707,-3.8707,-3.8707,-3.8707,-3.8707,-3.8707,-3.8707,-3.8707,-3.8707,-3.8707,-3.8707,-3.8707,-3.8707,-3.8707,-3.8719,-3.8747,-3.8719,-3.8719,-3.8747,-3.8807,-3.9127,-3.9645,-3.9352,-3.9569,-4.0148,-4.0148,-4.0148,-4.0148,-4.0148,-4.0148,-4.0148,-4.0148,-4.0304,-4.0496,0.0,0.0,0.0,0.0,0.0,0.0,0.0,0.0,0.0,0.0,0.0,-2.5308,-2.5308,-2.5308,0.0,0.0,0.0,0.0,-2.6,-2.6755,0.0,-2.905,-2.9467,-2.9486,-2.9107,-2.8665,-2.8434,-2.8434,-2.7582,-2.8486,-3.0962,-3.0577,-3.0904,-3.1737,-3.0044,-2.9025,-2.8448,-2.663,-2.5639,-2.5279,-2.5168,-2.5784,-2.6659,-2.5673,-2.5904,-2.664,-2.5654,-2.5308,-2.5308,-2.5308,-2.5308,-2.5308,-2.5308,0.0,0.0,0.0,-2.5577,-2.6288,-2.8212,-3.0173,-3.2218,-3.4391,-3.5212,-3.5361,-3.4813,-3.4694,-3.4537,-3.3915,-3.4082,-3.4582,-3.5408,-3.6266,-3.7088,-3.7915,-3.8414,-3.8707,-3.8707,-3.8707,-3.8707,-3.8707,-3.8707,-3.8707,-3.8707,-3.8707,-3.8707,-3.8707,-3.8707,-3.8707,-3.8707,-3.8707,-3.8707,-3.8707,-3.8707,-3.8707,-3.8707,-3.8707,-3.8707,-3.8707,-3.8707,-3.8707,-3.8707,-3.8707,-3.8927,-3.9302,-3.916,-3.9364,-3.9819,-3.9819,-3.9819,-3.9819,-3.9819,-3.9819,-3.9819,-3.9819,-3.9893,-4.0024,0.0,0.0,0.0,0.0,0.0,0.0,0.0,0.0,0.0,0.0,0.0,0.0,-2.5308,0.0,0.0,0.0,0.0,0.0,-2.6231,0.0,0.0,0.0,0.0,-2.8896,-2.8472,-2.8088,-2.7799,-2.7563,-2.6928,-2.8019,-3.0731,-3.0731,-3.1731,-3.3462,-3.1508,-3.017,-2.9308,-2.7415,-2.6362,-2.5956,-2.5803,-2.6611,-2.7794,-2.6923,-2.7404,-2.8313,-2.6577,-2.5962,-2.5885,-2.5442,-2.5308,-2.5308,-2.5308,-2.5308,0.0,0.0,0.0,-2.5904,-2.8673,-3.0217,-3.1602,-3.3942,-3.4846,-3.5108,-3.486,-3.4793,-3.4624,-3.4024,-3.3902,-3.406,-3.4596,-3.5389,-3.6248,-3.707,-3.7863,-3.8395,-3.8395,-3.8579,-3.8707,-3.8707,-3.8707,-3.8707,-3.8707,-3.8707,-3.8707,-3.8707,-3.8707,-3.8707,-3.8707,-3.8707,-3.8707,-3.8707,-3.8707,-3.8707,-3.8707,-3.8707,-3.8707,-3.8707,-3.8707,-3.8707,-3.8707,-3.8707,-3.8818,-3.8999,-3.8999,-3.9184,-3.9462,-3.9462,-3.9462,-3.9462,-3.9462,-3.9462,-3.9462,-3.9462,-3.9529,-3.9615,0.0,0.0,0.0,0.0,0.0,0.0,0.0,0.0,0.0,0.0,0.0,0.0,-2.5308,-2.5308,-2.5308,-2.5308,0.0,0.0,0.0,0.0,0.0,0.0,0.0,0.0,-2.6755,-2.7505,-2.7505,-2.6678,-2.6621,-2.8332,-3.1641,-3.1641,-3.2962,-3.5243,-3.2481,-3.0908,-3.0219,-2.8255,-2.7561,-2.7755,-2.775,-2.7813,-2.8063,-2.9558,-3.0192,-3.0058,-2.8371,-2.7761,-2.7505,-2.5865,-2.5308,-2.5308,-2.5308,-2.5308,-2.5308,0.0,0.0,0.0,-2.6519,-2.7986,-2.9665,-3.1448,-3.3083,-3.4402,-3.4966,-3.5079,-3.4907,-3.4304,-3.4183,-3.4117,-3.391,-3.4509,-3.5353,-3.6211,-3.7052,-3.7566,-3.7566,-3.8212,-3.8707,-3.8707,-3.8707,-3.8707,-3.8707,-3.8707,-3.8707,-3.8707,-3.8707,-3.8707,-3.8707,-3.8707,-3.8707,-3.8707,-3.8707,-3.8707,-3.8707,-3.8707,-3.8707,-3.8707,-3.8707,-3.8707,-3.8707,-3.8707,-3.8707,-3.8719,-3.8719,-3.8869,-3.9139,-3.9139,-3.9139,-3.9139,-3.9139,-3.9139,-3.9139,-3.9139,-3.9327,-3.9486,0.0,0.0,0.0,0.0,0.0,0.0,0.0,0.0,0.0,0.0,0.0,0.0,0.0,-2.5308,-2.5308,-2.5308,-2.5308,0.0,0.0,0.0,0.0,0.0,0.0,0.0,-2.664,-2.7448,-2.7198,-2.5769,-2.5769,-2.7236,-3.0025,-3.0025,-3.1121,-3.3038,-3.255,-3.1924,-3.1103,-2.901,-2.8043,-2.7918,-2.8172,-2.9116,-3.0333,-3.0385,-3.1077,-3.1795,-3.0121,-2.8813,-2.7799,-2.7178,-2.6231,-2.5308,-2.5308,-2.5308,-2.5308,-2.5308,-2.5308,-2.5615,-2.7044,-2.7876,-2.8876,-3.1141,-3.2545,-3.3518,-3.4124,-3.4704,-3.4925,-3.4327,-3.42,-3.4111,-3.3855,-3.4454,-3.5096,-3.5408,-3.6174,-3.6905,-3.7437,-3.7749,-3.812,-3.8634,-3.8707,-3.8707,-3.8707,-3.8707,-3.8707,-3.8707,-3.8707,-3.8469,-3.797,-3.7933,-3.7933,-3.7933,-3.7933,-3.8175,-3.8689,-3.8707,-3.8707,-3.8707,-3.8707,-3.8707,-3.8707,-3.8707,-3.8707,-3.8707,-3.8707,-3.8747,-3.8844,-3.8844,-3.8844,-3.8844,-3.8844,-3.8844,-3.8844,-3.8844,-3.8594,-3.8228,0.0,0.0,0.0,0.0,0.0,0.0,0.0,0.0,-2.5308,-2.5308,0.0,0.0,0.0,0.0,-2.5308,-2.5308,-2.5308,-2.5308,-2.5308,-2.5308,0.0,0.0,0.0,0.0,-2.6621,-2.7448,-2.7198,-2.5731,-2.6019,-2.7044,-2.8703,-2.8973,-2.9871,-3.1269,-3.1456,-3.1546,-3.1462,-2.9945,-2.8988,-2.8549,-2.9101,-3.0217,-3.1597,-3.1871,-3.2717,-3.3545,-3.1846,-3.0525,-2.9448,-2.8588,-2.7351,-2.6115,-2.5827,-2.5538,-2.5308,-2.5308,-2.5308,-2.5558,-2.6717,-2.7236,-2.8082,-3.0641,-3.1679,-3.2398,-3.3654,-3.437,-3.463,-3.4046,-3.4151,-3.4242,-3.3881,-3.4247,-3.4601,-3.4601,-3.5298,-3.6046,-3.6597,-3.7162,-3.7694,-3.823,-3.8542,-3.8707,-3.8707,-3.8707,-3.8597,-3.8322,-3.8303,-3.7955,-3.7144,-3.7107,-3.7217,-3.7492,-3.7492,-3.7896,-3.8689,-3.8707,-3.8707,-3.8707,-3.8707,-3.8707,-3.8707,-3.8707,-3.8707,-3.8707,-3.8707,-3.8707,-3.8707,-3.8707,-3.8707,-3.8707,-3.8707,-3.8707,-3.8707,-3.8707,-3.8358,-3.7853,0.0,0.0,0.0,0.0,0.0,0.0,0.0,0.0,-2.5308,-2.5327,0.0,0.0,0.0,0.0,0.0,-2.5346,-2.5346,-2.5327,-2.5308,-2.5308,0.0,0.0,0.0,0.0,-2.6601,-2.7428,-2.7448,-2.6601,-2.7409,-2.7838,-2.7876,-2.8665,-2.9486,-3.0283,-2.9264,-2.9692,-3.1161,-3.0879,-3.0385,-2.9799,-3.0554,-3.1071,-3.1642,-3.414,-3.5262,-3.5288,-3.3583,-3.2949,-3.2526,-3.005,-2.8646,-2.778,-2.689,-2.6,-2.5308,-2.5308,-2.5308,-2.5308,0.0,0.0,0.0,-2.9654,-3.0308,-3.0981,-3.3506,-3.409,-3.3961,-3.3516,-3.4061,-3.447,-3.3915,-3.382,-3.3807,-3.3807,-3.4454,-3.4968,-3.5004,-3.6395,-3.7437,-3.7492,-3.8193,-3.867,-3.8707,-3.8707,-3.8377,-3.7566,-3.7492,-3.7144,-3.6303,-3.6266,-3.6615,-3.7401,-3.7474,-3.7878,-3.867,-3.8689,-3.8707,-3.8707,-3.8707,-3.8707,-3.8707,-3.8707,-3.8707,-3.8707,-3.8707,-3.8707,-3.8707,-3.8707,-3.8707,-3.8707,-3.8707,-3.8707,-3.8707,-3.8707,-3.867,-3.8414,0.0,0.0,0.0,0.0,0.0,-2.6231,-2.6231,-2.5712,-2.5538,0.0,0.0,0.0,-2.6231,-2.6231,-2.6231,-2.6231,-2.6231,-2.5962,-2.5346,-2.5308,-2.5308,-2.5308,-2.6135,-2.6601,-2.6601,-2.6832,-2.6832,-2.6601,-2.6212,-2.6346,-2.6967,-2.7198,-2.7755,-2.8596,-2.8747,-2.8629,-2.8323,-2.8106,-2.8998,-3.0544,-3.023,-3.1303,-3.3214,-3.4112,-3.4882,-3.5442,-3.4942,-3.3968,-3.2795,-3.2083,-3.0473,-2.8511,-2.7063,-2.6,-2.5308,-2.5308,-2.5308,-2.5308,-2.5308,0.0,0.0,0.0,0.0,0.0,-3.1006,-3.1442,-3.1879,-3.3377,-3.3232,-3.3083,-3.3924,-3.3923,-3.3807,-3.3807,-3.399,-3.4325,-3.4931,-3.5408,-3.6138,-3.7364,-3.7694,-3.8046,-3.8652,-3.8707,-3.8377,-3.7566,-3.7492,-3.6872,-3.5445,-3.5353,-3.5463,-3.5683,-3.6872,-3.7603,-3.7841,-3.8414,-3.8707,-3.8707,-3.8707,-3.8707,-3.8707,-3.8707,-3.8707,-3.8707,-3.8707,-3.8707,-3.8707,-3.8707,-3.8707,-3.8707,-3.8707,-3.8707,-3.8707,-3.8707,-3.7955,-3.6982,0.0,0.0,0.0,-2.8211,-2.7471,-2.6977,-2.6977,-2.6636,-2.6537,0.0,0.0,0.0,-2.714,-2.7448,-2.7505,-2.7178,-2.6813,-2.6385,-2.5885,-2.55,-2.5308,-2.5308,-2.5788,-2.6409,-2.7121,-2.6794,-2.6774,-2.714,-2.6269,-2.5923,-2.6058,-2.6058,-2.6282,-2.6707,-2.6994,-2.6911,-2.6541,-2.6005,-2.7251,-2.9669,-3.0231,-3.1751,-3.3735,-3.4225,-3.5074,-3.5962,-3.5615,-3.4846,-3.393,-3.3564,-3.1756,-2.9352,-2.7678,-2.6794,-2.6231,-2.5519,-2.5558,-2.5846,-2.5846,-2.5577,-2.5673,-2.7255,0.0,0.0,-2.98,-3.0222,-3.0665,-3.2161,-3.2203,-3.2291,-3.3351,-3.3405,-3.3421,-3.3752,-3.3807,-3.3972,-3.4417,-3.4784,-3.5353,-3.634,-3.707,-3.7547,-3.7698,-3.7991,-3.7716,-3.6541,-3.6468,-3.5881,-3.4564,-3.4491,-3.4656,-3.5004,-3.5954,-3.678,-3.7492,-3.797,-3.8377,-3.8707,-3.8707,-3.8707,-3.8707,-3.8707,-3.8707,-3.8707,-3.8707,-3.8707,-3.8707,-3.8707,-3.8707,-3.8707,-3.8707,-3.8707,-3.8707,-3.8707,-3.812,-3.7312,0.0,0.0,-2.8814,-2.8598,-2.8051,-2.7686,-2.7762,-2.7846,-2.7879,0.0,-2.803,-2.8255,-2.8429,-2.8934,-2.8953,-2.8236,-2.7294,-2.6697,-2.6621,-2.5788,-2.5308,-2.5308,-2.5308,-2.6077,-2.7722,-2.7005,-2.6986,-2.7761,-2.6986,-2.6154,-2.5308,-2.5274,-2.5168,-2.4998,-2.4842,-2.5067,-2.5521,-2.4773,-2.575,-2.8,-3.0165,-3.2073,-3.3658,-3.4421,-3.5541,-3.6646,-3.5861,-3.558,-3.5453,-3.45,-3.2622,-3.0385,-2.8717,-2.8179,-2.7832,-2.6096,-2.6192,-2.6851,-2.6774,-2.6173,-2.6135,-2.8396,-2.7909,0.0,-2.9325,-2.9768,-2.9912,-3.0461,-3.1055,-3.1688,-3.2447,-3.2563,-3.2777,-3.3489,-3.3666,-3.3737,-3.3788,-3.4417,-3.4912,-3.5004,-3.6321,-3.6978,-3.6358,-3.696,-3.6707,-3.5133,-3.4931,-3.4546,-3.3844,-3.3807,-3.4137,-3.4839,-3.4949,-3.572,-3.7217,-3.7419,-3.786,-3.8579,-3.867,-3.8707,-3.8707,-3.8707,-3.8707,-3.8707,-3.8707,-3.8707,-3.8707,-3.8707,-3.8707,-3.8707,-3.8707,-3.8707,-3.8707,-3.8707,-3.8652,-3.8487,0.0,-2.9047,-2.9511,-2.946,-2.8958,-2.8786,-2.9491,-2.8631,-2.836,-2.9651,-2.9886,-3.0423,-3.1775,-3.0871,-3.0077,-2.9923,-2.8525,-2.7351,-2.6659,-2.5788,-2.5308,-2.5308,-2.5308,-2.5788,-2.6832,-2.6697,-2.6678,-2.6851,-2.6678,-2.6154,-2.5303,-2.5122,-2.5034,-2.4992,-2.4678,-2.4611,-2.4794,-2.5721,-2.6778,-2.7857,-2.8487,-3.0884,-3.4102,-3.4486,-3.562,-3.6943,-3.6366,-3.6131,-3.5935,-3.4644,-3.3391,-3.2122,-3.0442,-2.9904,-2.9577,-2.789,-2.7967,-2.8472,-2.7813,-2.7525,-2.7505,-2.8011,-2.8376,0.0,-2.8351,-2.8307,-2.8706,-3.0132,-2.9836,-2.9953,-3.2123,-3.2345,-3.2241,-3.241,-3.2832,-3.3303,-3.3737,-3.3935,-3.427,-3.4931,-3.5298,-3.5701,-3.6248,-3.6431,-3.6119,-3.5078,-3.4399,-3.3972,-3.3807,-3.3807,-3.3862,-3.4027,-3.4656,-3.5169,-3.5481,-3.6831,-3.7584,-3.7749,-3.8395,-3.8707,-3.8707,-3.8707,-3.8707,-3.8707,-3.8707,-3.8707,-3.8707,-3.8707,-3.8707,-3.8707,-3.8707,-3.8707,-3.8707,-3.8707,-3.8285,-3.7804,-2.9125,-2.9479,-2.9705,-2.9705,-2.9527,-2.9512,-2.985,-2.9353,-2.9325,-3.0362,-3.1202,-3.1999,-3.2801,-3.2038,-3.134,-3.1071,-2.9486,-2.8145,-2.7294,-2.6428,-2.575,-2.5327,-2.5308,-2.5712,-2.6582,-2.6173,-2.6154,-2.6601,-2.6154,-2.5731,-2.5303,-2.5094,-2.5184,-2.547,-2.4792,-2.4677,-2.4968,-2.5277,-2.6098,-2.7394,-2.9507,-3.2157,-3.4906,-3.5441,-3.6498,-3.7604,-3.6931,-3.6521,-3.6086,-3.4669,-3.3917,-3.3256,-3.1583,-3.1327,-3.1237,-2.9127,-2.9083,-2.9563,-2.8723,-2.8203,-2.8102,-2.8948,-2.8813,0.0,0.0,-2.8632,-2.867,-2.9818,-2.9243,-2.9055,-3.0739,-3.0938,-3.0988,-3.1422,-3.2345,-3.2941,-3.2828,-3.3379,-3.3954,-3.4344,-3.4766,-3.5004,-3.5055,-3.5422,-3.5298,-3.4454,-3.4027,-3.3807,-3.3807,-3.3807,-3.3807,-3.3807,-3.4192,-3.4582,-3.5004,-3.583,-3.6468,-3.6905,-3.7312,-3.7496,-3.7514,-3.7918,-3.7881,-3.7551,-3.8358,-3.8469,-3.812,-3.8524,-3.8707,-3.8707,-3.8707,-3.8707,-3.8652,-3.8248,-3.8102,-3.8102,-2.9219,-2.9346,-2.9326,-2.9326,-2.9633,-2.9886,-2.9877,-2.9907,-3.0162,-3.0822,-3.2224,-3.3204,-3.3309,-3.3034,-3.2721,-3.2455,-3.0544,-2.9146,-2.8659,-2.7351,-2.6365,-2.5827,-2.5481,-2.5712,-2.6582,-2.5904,-2.5808,-2.6351,-2.5763,-2.5402,-2.5248,-2.5018,-2.5196,-2.5678,-2.4976,-2.494,-2.5374,-2.4869,-2.5676,-2.7603,-3.117,-3.345,-3.4822,-3.5962,-3.7007,-3.7856,-3.7422,-3.6854,-3.6134,-3.4982,-3.4537,-3.418,-3.266,-3.2712,-3.2865,-3.0519,-3.0405,-3.088,-3.0058,-2.9357,-2.914,-3.0346,-2.9756,-2.9029,0.0,0.0,0.0,-2.9531,-2.9017,-2.8774,-2.9601,-2.962,-2.9782,-3.0671,-3.1701,-3.2238,-3.1712,-3.2649,-3.345,-3.355,-3.427,-3.4509,-3.3862,-3.4252,-3.4325,-3.3844,-3.366,-3.3642,-3.3788,-3.3807,-3.3807,-3.3807,-3.3807,-3.4119,-3.4766,-3.4931,-3.5353,-3.6046,-3.6211,-3.6303,-3.6321,-3.6978,-3.6905,-3.6376,-3.7845,-3.8102,-3.7566,-3.8377,-3.8707,-3.8707,-3.8707,-3.8707,-3.8615,-3.7955,-3.8138,-3.8615,-2.6992,-2.7548,-2.8025,-2.8025,-2.8819,-2.9698,-3.0389,-3.0058,-3.0269,-3.1817,-3.3022,-3.4006,-3.4767,-3.435,-3.4294,-3.5019,-3.2115,-3.0538,-3.1218,-2.8332,-2.6909,-2.7582,-2.6115,-2.5712,-2.6582,-2.6505,-2.6115,-2.5442,-2.5933,-2.5792,-2.5028,-2.4708,-2.4599,-2.4696,-2.5106,-2.5331,-2.5429,-2.6062,-2.7677,-2.9953,-3.183,-3.2309,-3.2102,-3.4338,-3.5745,-3.6639,-3.7498,-3.7152,-3.6279,-3.6115,-3.5748,-3.5173,-3.4218,-3.435,-3.4541,-3.2942,-3.2931,-3.3288,-3.2634,-3.2391,-3.2218,-3.1679,-3.1948,-3.1769,-2.9681,0.0,-3.0028,-2.9306,0.0,-2.928,-3.0151,0.0,0.0,-3.0324,-3.0398,-3.0511,-3.0932,-3.1595,-3.2203,-3.2676,-3.3458,-3.3899,-3.3807,-3.3225,-3.3133,-3.3752,-3.3146,-3.3041,-3.3752,-3.3807,-3.3807,-3.3807,-3.3807,-3.3844,-3.3935,-3.4637,-3.5059,-3.5169,-3.5936,-3.6303,-3.6303,-3.6376,-3.6376,-3.634,-3.7254,-3.7584,-3.7566,-3.8377,-3.8707,-3.8707,-3.8707,-3.8707,-3.8689,-3.8597,-3.8615,-3.8689,-2.6785,-2.753,-2.8029,-2.8185,-2.8952,-2.9654,-2.9871,-3.0756,-3.1857,-3.3181,-3.4027,-3.4941,-3.6127,-3.5201,-3.4807,-3.5598,-3.365,-3.2101,-3.1448,-2.9632,-2.837,-2.7928,-2.6717,-2.6231,-2.6601,-2.6096,-2.5673,-2.5308,-2.5578,-2.5468,-2.5004,-2.4858,-2.5178,-2.5911,-2.6163,-2.671,-2.7475,-2.7346,-2.7879,-2.8943,-3.0558,-3.1017,-3.1182,-3.55,-3.7367,-3.7706,-3.7858,-3.7605,-3.7103,-3.6285,-3.5988,-3.5769,-3.4757,-3.4841,-3.509,-3.3795,-3.3714,-3.3873,-3.3102,-3.2793,-3.2615,-3.2443,-3.2172,-3.1734,-3.0828,-3.0506,-3.0308,-2.9929,0.0,0.0,0.0,0.0,0.0,0.0,-3.0061,-3.04,-3.0086,-3.0909,-3.1642,-3.1874,-3.2192,-3.2577,-3.3073,-3.2803,-3.2931,-3.3733,-3.3041,-3.2949,-3.3752,-3.3807,-3.3807,-3.3807,-3.3807,-3.3807,-3.3807,-3.4137,-3.4289,-3.4307,-3.4669,-3.4853,-3.4871,-3.533,-3.5293,-3.4945,-3.674,-3.7235,-3.689,-3.8175,-3.8707,-3.8707,-3.8707,-3.8707,-3.8652,-3.8175,-3.8303,-3.8634,-2.6808,-2.741,-2.7744,-2.7959,-2.883,-2.9531,-2.9617,-3.1132,-3.2704,-3.392,-3.4707,-3.5692,-3.7164,-3.6343,-3.6002,-3.676,-3.5494,-3.4157,-3.2907,-3.1265,-3.0056,-2.941,-2.781,-2.7036,-2.7173,-2.6186,-2.5538,-2.5308,-2.5234,-2.5146,-2.5004,-2.4911,-2.5363,-2.6274,-2.6878,-2.7719,-2.8675,-2.8741,-2.9046,-2.9567,-3.0962,-3.1922,-3.2926,-3.6633,-3.8322,-3.8646,-3.8266,-3.8029,-3.7744,-3.6723,-3.644,-3.6378,-3.5553,-3.5543,-3.5637,-3.4665,-3.4461,-3.4396,-3.3686,-3.3364,-3.3161,-3.2942,-3.2305,-3.168,-3.1398,-3.1038,-3.075,-3.075,-3.0253,0.0,0.0,0.0,-2.9376,-2.9384,0.0,-3.0274,-2.9517,-3.0032,-3.0636,-3.1029,-3.1268,-3.1623,-3.221,-3.2069,-3.2375,-3.3385,-3.2724,-3.2724,-3.3752,-3.3807,-3.3807,-3.3807,-3.3807,-3.3807,-3.3807,-3.3807,-3.3807,-3.3807,-3.3807,-3.3807,-3.3825,-3.4399,-3.4472,-3.4247,-3.6299,-3.696,-3.6725,-3.8138,-3.8707,-3.8707,-3.8707,-3.8707,-3.8634,-3.8028,-3.8193,-3.8615,-2.6615,-2.6652,-2.6641,-2.6652,-2.7974,-2.9285,-3.0056,-3.0883,-3.2021,-3.36,-3.479,-3.6093,-3.7694,-3.8071,-3.85,-3.9315,-3.7849,-3.6908,-3.6922,-3.3307,-3.176,-3.3069,-2.9744,-2.8093,-2.8622,-2.7271,-2.6154,-2.5308,-2.5099,-2.501,-2.4979,-2.4663,-2.453,-2.4673,-2.6811,-2.7798,-2.8,-3.0295,-3.2173,-3.3678,-3.4509,-3.6288,-3.8285,-3.6909,-3.7331,-3.8707,-3.8686,-3.8338,-3.7886,-3.7849,-3.7486,-3.7073,-3.7024,-3.6853,-3.6547,-3.6004,-3.5649,-3.539,-3.5115,-3.5028,-3.4677,-3.3249,-3.2865,-3.2423,-3.0808,-3.1077,-3.166,-3.166,-3.2046,-3.2381,-3.2389,-3.1536,-3.0828,-3.0818,-3.0159,0.0,0.0,-2.8705,-2.8716,-3.008,-3.0925,-3.1415,-3.1433,-3.0723,-3.0925,-3.2509,-3.188,-3.2131,-3.3715,-3.3807,-3.3807,-3.3807,-3.3807,-3.3807,-3.3807,-3.3807,-3.3807,-3.3807,-3.3807,-3.3807,-3.3807,-3.3825,-3.4252,-3.5023,-3.5936,-3.6776,-3.7529,-3.8358,-3.8707,-3.8707,-3.8707,-3.8707,-3.8707,-3.867,-3.8689,-3.8707,-2.6602,-2.7034,-2.7383,-2.7383,-2.8271,-2.9445,-3.0797,-3.2118,-3.377,-3.5968,-3.6583,-3.7649,-3.9777,-3.9779,-3.9871,-4.0504,-3.9723,-3.8725,-3.7629,-3.531,-3.4014,-3.4091,-3.1561,-3.0207,-3.0358,-2.8976,-2.75,-2.5954,-2.5887,-2.572,-2.5448,-2.4937,-2.5113,-2.5954,-2.7382,-2.8521,-2.9512,-3.1403,-3.2522,-3.3115,-3.4454,-3.649,-3.8652,-3.8102,-3.823,-3.8707,-3.8707,-3.8581,-3.8427,-3.8427,-3.8062,-3.7592,-3.7421,-3.7187,-3.6883,-3.6538,-3.648,-3.6539,-3.6453,-3.6293,-3.5821,-3.4387,-3.3588,-3.2788,-3.1328,-3.1353,-3.1698,-3.1698,-3.2156,-3.2557,-3.2515,-3.2084,-3.1525,-3.0823,-3.0446,-2.9805,0.0,-2.7624,-2.7472,-2.8477,-2.9329,-3.0026,-3.0558,-3.0356,-3.087,-3.2472,-3.1843,-3.2113,-3.3715,-3.3807,-3.3807,-3.3807,-3.3807,-3.3807,-3.3807,-3.3807,-3.3807,-3.3807,-3.3807,-3.3807,-3.3807,-3.3807,-3.3954,-3.427,-3.5697,-3.645,-3.6798,-3.8157,-3.8707,-3.8707,-3.8707,-3.8707,-3.8707,-3.8707,-3.8707,-3.8707,-2.7501,-2.7879,-2.8136,-2.7842,-2.8705,-2.9879,-3.1213,-3.2999,-3.5018,-3.7217,-3.8006,-3.9148,-4.1295,-4.1224,-4.1142,-4.1495,-4.1206,-4.0196,-3.8247,-3.6936,-3.5925,-3.5167,-3.3401,-3.2238,-3.1808,-3.073,-2.9141,-2.7042,-2.7042,-2.6764,-2.6222,-2.5464,-2.5526,-2.6341,-2.7483,-2.8658,-2.9922,-3.2399,-3.3628,-3.405,-3.5665,-3.7261,-3.8707,-3.8707,-3.8707,-3.8707,-3.8707,-3.8707,-3.8707,-3.8707,-3.8472,-3.815,-3.7974,-3.7799,-3.7585,-3.7116,-3.7115,-3.72,-3.7009,-3.6826,-3.6435,-3.531,-3.4593,-3.3825,-3.2463,-3.2523,-3.2797,-3.2504,-3.3004,-3.3405,-3.3156,-3.275,-3.2127,-3.1062,-3.0646,-2.9739,0.0,-2.7163,-2.7108,-2.7346,-2.8081,-2.8895,-2.9702,-2.9512,-3.0136,-3.2027,-3.1421,-3.1788,-3.3697,-3.3807,-3.3807,-3.3807,-3.3807,-3.3807,-3.3807,-3.3807,-3.3807,-3.3807,-3.3807,-3.3807,-3.3807,-3.3807,-3.3972,-3.4302,-3.5697,-3.645,-3.6831,-3.8157,-3.8707,-3.8707,-3.8707,-3.8707,-3.8707,-3.8707,-3.8707,-3.8707,-2.9207,-2.9115,-2.8932,-2.8172,-2.9274,-3.054,-3.1397,-3.35,-3.561,-3.7327,-3.8961,-4.0561,-4.2176,-4.2359,-4.2359,-4.2359,-4.2359,-4.1368,-3.9038,-3.827,-3.7466,-3.6519,-3.5286,-3.4139,-3.3115,-3.2489,-3.0988,-2.8564,-2.8451,-2.8009,-2.7265,-2.6225,-2.5735,-2.5801,-2.7195,-2.8246,-2.9262,-3.3261,-3.55,-3.6541,-3.8083,-3.8707,-3.8707,-3.8707,-3.8707,-3.8707,-3.8707,-3.8707,-3.8707,-3.8707,-3.8707,-3.8707,-3.8707,-3.8707,-3.856,-3.7786,-3.7566,-3.7456,-3.6944,-3.6799,-3.664,-3.6036,-3.587,-3.5474,-3.4053,-3.4371,-3.4759,-3.3955,-3.4478,-3.4888,-3.4248,-3.3529,-3.2637,-3.152,-3.0632,-2.9292,-2.6979,-2.7273,-2.7475,-2.6759,-2.7328,-2.8099,-2.8877,-2.8246,-2.8778,-3.1158,-3.0632,-3.1256,-3.366,-3.3752,-3.3752,-3.3807,-3.3807,-3.3807,-3.3807,-3.3807,-3.3807,-3.3807,-3.3807,-3.3807,-3.3807,-3.3844,-3.4252,-3.4986,-3.5954,-3.6776,-3.7511,-3.8358,-3.8707,-3.8707,-3.8707,-3.8707,-3.8707,-3.8707,-3.8707,-3.8707,-2.9934,-3.0858,-3.161,-3.139,-3.1219,-3.1549,-3.2963,-3.4215,-3.5811,-3.8083,-3.979,-4.1405,-4.302,-4.3185,-4.3185,-4.3185,-4.3185,-4.2671,-4.146,-4.0107,-3.9258,-3.8998,-3.7153,-3.5982,-3.5652,-3.3955,-3.2359,-3.0937,-2.9072,-2.8303,-2.8505,-2.704,-2.6375,-2.6401,-2.7379,-2.8246,-2.9225,-3.2638,-3.5661,-3.812,-3.8542,-3.8707,-3.8707,-3.8707,-3.8707,-3.8707,-3.8707,-3.8707,-3.8707,-3.8707,-3.8707,-3.8707,-3.8707,-3.8707,-3.867,-3.845,-3.8395,-3.8355,-3.8225,-3.8199,-3.8011,-3.7244,-3.6734,-3.5981,-3.4431,-3.4402,-3.4461,-3.3668,-3.4197,-3.4505,-3.3486,-3.3138,-3.2451,-3.0784,-2.9329,-2.8191,-2.7585,-2.7145,-2.7053,-2.7438,-2.7658,-2.789,-2.8081,-2.7915,-2.8539,-3.0375,-3.032,-3.1256,-3.366,-3.3238,-3.3183,-3.377,-3.3807,-3.3807,-3.3807,-3.3807,-3.3807,-3.3807,-3.3807,-3.3807,-3.3825,-3.4417,-3.4472,-3.4229,-3.6285,-3.6978,-3.6721,-3.812,-3.8707,-3.8707,-3.8707,-3.8707,-3.8707,-3.8707,-3.8707,-3.8707,-3.1256,-3.2546,-3.3775,-3.4156,-3.3844,-3.3844,-3.4743,-3.5587,-3.6725,-3.8469,-4.0086,-4.1425,-4.2359,-4.3075,-4.3515,-4.3515,-4.3515,-4.3002,-4.1864,-4.1258,-4.0469,-3.9423,-3.8571,-3.7752,-3.7017,-3.5473,-3.3843,-3.2156,-3.0409,-2.9186,-2.8448,-2.7189,-2.641,-2.6098,-2.6924,-2.7923,-2.9262,-3.322,-3.6156,-3.8212,-3.856,-3.8707,0.0,-3.8707,-3.8707,-3.8707,-3.8707,-3.8707,-3.8707,-3.8707,-3.8707,-3.8707,-3.8707,-3.8707,-3.8707,-3.8707,-3.8707,-3.8707,-3.8707,-3.8707,-3.8597,-3.8138,-3.7775,-3.7211,-3.6086,-3.5663,-3.5285,-3.4472,-3.4515,-3.4419,-3.3523,-3.3157,-3.2395,-3.0508,-2.9145,-2.8209,-2.7842,-2.7714,-2.7684,-2.7787,-2.7798,-2.7798,-2.7798,-2.7798,-2.8172,-2.9072,-2.9806,-3.0944,-3.2651,-3.2999,-3.333,-3.3788,-3.3807,-3.3807,-3.3807,-3.3807,-3.3807,-3.3807,-3.3807,-3.3807,-3.3825,-3.427,-3.4417,-3.4417,-3.6193,-3.6923,-3.6923,-3.8175,-3.8707,-3.8707,-3.8707,-3.8707,-3.8658,-3.8449,-3.8496,-3.8707,-3.2913,-3.4307,-3.5683,-3.634,-3.6633,-3.6798,-3.6909,-3.7437,-3.8098,-3.8909,-4.0416,-4.1407,-4.1407,-4.2653,-4.3515,-4.3515,-4.3515,-4.291,-4.1499,-4.1974,-4.1368,-3.9258,-3.9643,-3.9255,-3.7841,-3.6817,-3.5183,-3.2913,-3.1898,-3.0222,-2.7934,-2.7126,-2.6337,-2.5595,-2.6392,-2.7831,-2.9922,-3.4394,-3.6831,-3.7731,-3.8414,-3.8707,-3.8707,-3.8707,-3.8707,-3.8707,-3.8707,-3.8707,-3.8707,-3.8707,-3.8707,-3.8707,-3.8707,-3.8707,-3.8707,-3.8707,-3.8707,-3.8707,-3.8707,-3.8707,-3.8707,-3.8707,-3.8707,-3.8508,-3.7844,-3.7151,-3.6402,-3.5467,-3.491,-3.439,-3.376,-3.3186,-3.2256,-3.0625,-2.9684,-2.8913,-2.8209,-2.862,-2.8693,-2.7897,-2.7879,0.0,-2.7523,-2.7688,-2.7842,-2.7952,-2.9255,-3.0485,-3.1494,-3.2779,-3.3587,-3.3788,-3.3807,-3.3807,-3.3807,-3.3807,-3.3807,-3.3807,-3.3807,-3.3807,-3.3807,-3.4027,-3.4449,-3.5059,-3.6138,-3.6945,-3.7566,-3.8377,-3.8707,-3.8707,-3.8707,-3.8707,-3.8643,-3.8099,-3.82,-3.8596,-3.4582,-3.6454,-3.79,-3.7382,-3.8392,-3.9496,-4.0175,-3.9827,-3.9772,-4.0563,-4.2084,-4.3075,-4.3075,-4.3331,-4.3515,-4.3515,-4.3515,-4.3386,-4.3094,-4.2598,-4.2103,-4.1699,-4.0524,-3.9769,-3.9494,-3.7386,-3.5734,-3.4582,-3.2449,-3.0503,-2.8767,-2.797,-2.7163,-2.6429,-2.7236,-2.9586,-3.3109,-3.5349,-3.7147,-3.8505,-3.8652,-3.8707,-3.8707,-3.8707,-3.8707,-3.8707,-3.8707,-3.8707,-3.8707,-3.8707,-3.8707,-3.8707,-3.8707,-3.8707,-3.8707,-3.8707,-3.8707,-3.8707,-3.8707,-3.8707,-3.8707,-3.8707,-3.8707,-3.8337,-3.6904,-3.6476,-3.5943,-3.4415,-3.4026,-3.3712,-3.2957,-3.2187,-3.1569,-3.1231,-3.0503,-2.9953,-2.9806,-2.9335,-2.8693,-2.7897,-2.8393,-2.8007,-2.6017,-2.7027,-2.8081,-2.873,-2.9042,-3.0143,-3.2271,-3.2027,-3.243,-3.3752,-3.3807,-3.3807,-3.3807,-3.3807,-3.3807,-3.3807,-3.3807,-3.3807,-3.3844,-3.522,-3.555,-3.5133,-3.7316,-3.7973,-3.7566,-3.8377,-3.8707,-3.8707,-3.8707,-3.8707,-3.8643,-3.8099,-3.7963,-3.798,-3.7551,-3.8505,-3.9331,-3.935,-4.001,-4.0799,-4.1607,-4.1754,-4.1607,-4.115,-4.1772,-4.2268,-4.2268,-4.3002,-4.3515,-4.3515,-4.3515,-4.3515,-4.3515,-4.313,-4.2745,-4.2323,-4.1552,-4.0744,-3.9918,-3.834,-3.6725,-3.5004,-3.2999,-3.0986,-2.8987,-2.8172,-2.7365,-2.6657,-2.8319,-3.0577,-3.3311,-3.5404,-3.6982,-3.8102,-3.8524,-3.8707,-3.8707,-3.8707,-3.8707,-3.8707,-3.8707,-3.8707,-3.8707,-3.8707,-3.8707,-3.8707,-3.8707,-3.8707,-3.8707,-3.8707,-3.8707,-3.8707,-3.8707,-3.8707,-3.8707,-3.8707,-3.8707,-3.8505,-3.7716,-3.689,-3.6064,-3.5257,-3.4412,-3.3678,-3.3293,-3.2559,-3.2027,-3.2027,-3.1347,-3.0687,-3.0265,-2.9879,-2.9317,-2.851,-2.8767,-2.8546,-2.7383,-2.797,-2.8062,-2.72,-2.829,-2.9684,-3.1274,-3.1788,-3.2577,-3.3752,-3.3807,-3.3807,-3.3807,-3.3807,-3.3807,-3.3807,-3.4215,-3.4417,-3.4472,-3.5734,-3.6303,-3.6358,-3.7551,-3.8083,-3.8138,-3.8542,-3.8707,-3.8707,-3.8707,-3.8707,-3.8643,-3.8099,-3.7893,-3.7825,-4.0194,-4.0286,-4.0561,-4.1022,-4.1242,-4.1572,-4.2194,-4.2983,-4.3039,-4.1791,-4.1625,-4.1625,-4.1625,-4.2745,-4.3515,-4.3515,-4.3515,-4.3515,-4.3515,-4.3515,-4.3222,-4.258,-4.2396,-4.1717,-4.0432,-3.9441,-3.7845,-3.5536,-3.3903,-3.1794,-2.9244,-2.8429,-2.7714,-2.7226,-2.9806,-3.1757,-3.3261,-3.5569,-3.7033,-3.7823,-3.8432,-3.8707,-3.8707,-3.8707,-3.8707,-3.8707,-3.8707,-3.8707,-3.8707,-3.8707,-3.8707,-3.8707,-3.8707,-3.8707,-3.8707,-3.8707,-3.8707,-3.8707,-3.8707,-3.8707,-3.8707,-3.8707,-3.8707,-3.8615,-3.8267,-3.7202,-3.6193,-3.5844,-3.4724,-3.3807,-3.3807,-3.3293,-3.2803,-3.2619,-3.2063,-3.1311,-3.0338,-3.021,-2.9843,-2.8858,-2.873,-2.8675,-2.851,-2.8345,-2.753,-2.5797,-2.7732,-2.9427,-3.0393,-3.1659,-3.2797,-3.377,-3.3807,-3.3807,-3.3807,-3.3807,-3.3807,-3.3807,-3.4435,-3.4839,-3.5041,-3.5899,-3.6725,-3.7511,-3.7567,-3.7896,-3.8385,-3.8385,-3.8385,-3.8385,-3.8385,-3.8385,-3.8318,-3.779,-3.7578,-3.7506,-4.1132,-4.157,-4.1882,-4.1205,-4.1699,-4.2213,-4.2286,-4.2983,-4.346,-4.3313,-4.3277,-4.3277,-4.3277,-4.3423,-4.3515,-4.3515,-4.3515,-4.3515,-4.3515,-4.3515,-4.3478,-4.3404,-4.269,-4.2231,-4.2084,-4.0561,-3.8961,-3.7272,-3.5591,-3.317,-3.0081,-2.9262,-2.8858,-2.8913,-3.2063,-3.394,-3.4894,-3.6633,-3.786,-3.8597,-3.867,-3.8707,-3.8707,-3.8707,-3.8707,-3.8707,-3.8707,-3.8707,-3.8707,-3.8707,-3.8707,-3.8707,-3.8707,-3.8707,-3.8707,-3.8707,-3.8707,-3.8707,-3.8707,-3.8707,-3.8707,-3.8707,-3.8707,-3.8322,-3.6853,-3.6413,-3.5862,-3.4357,-3.3917,-3.3807,-3.3807,-3.3733,-3.3458,-3.2711,-3.2528,-3.194,-3.043,-3.021,-2.9641,-2.8081,-2.7915,-2.7622,-2.6895,-2.6172,-2.5944,-2.6447,-2.8051,-2.9666,-3.1213,-3.1433,-3.221,-3.3752,-3.3807,-3.3807,-3.3807,-3.3807,-3.3807,-3.3807,-3.388,-3.4289,-3.5041,-3.5899,-3.6725,-3.7514,-3.7747,-3.7648,-3.734,-3.734,-3.734,-3.734,-3.734,-3.734,-3.7284,-3.6744,-3.6542,-3.646,-4.2598,-4.2415,-4.2359,-4.2506,-4.2415,-4.2451,-4.2947,-4.3277,-4.3515,-4.3515,-4.3515,-4.3515,-4.3515,-4.3515,-4.3515,-4.3515,-4.3515,-4.3515,-4.3515,-4.3515,-4.3515,-4.3515,-4.3185,-4.2782,-4.2304,-4.1662,-4.0322,-3.8212,-3.6578,-3.4614,-3.2339,-3.1537,-3.1427,-3.1971,-3.372,-3.4986,-3.5862,-3.7015,-3.797,-3.8707,-3.8707,-3.8707,-3.8762,-3.9239,-3.9423,-3.9478,-3.9974,-4.0141,-4.0141,-4.0141,-3.9515,-3.8707,-3.8707,-3.8707,-3.8707,-3.8707,-3.8707,-3.8707,-3.8707,-3.8707,-3.8707,-3.8707,-3.8707,-3.8414,-3.729,-3.6652,-3.5954,-3.4766,-3.4137,-3.3807,-3.3807,-3.3807,-3.3697,-3.3366,-3.333,-3.2926,-3.1794,-3.1219,-3.0503,-2.9365,-2.8815,-2.8381,-2.8069,-2.731,-2.7163,-2.7978,-2.7739,-2.8253,-2.9879,-3.087,-3.1916,-3.3041,-3.355,-3.3807,-3.3807,-3.3807,-3.3807,-3.3807,-3.4816,-3.5477,-3.5811,-3.7147,-3.7744,-3.7762,-3.7852,-3.7632,-3.7209,-3.7209,-3.7209,-3.7209,-3.7209,-3.7209,-3.7154,-3.696,-3.6882,-3.6803,-4.3515,-4.3039,-4.2818,-4.3387,-4.302,-4.2837,-4.3423,-4.3515,-4.3515,-4.3515,-4.3515,-4.3515,-4.3515,-4.3515,-4.3515,-4.3515,-4.3515,-4.3515,-4.3515,-4.3515,-4.3515,-4.3515,-4.3515,-4.3222,-4.2671,-4.2415,-4.1479,-3.9772,-3.8157,-3.6505,-3.4853,-3.3793,-3.361,-3.4211,-3.5261,-3.6211,-3.7055,-3.786,-3.867,-3.9423,-3.9423,-3.9423,-3.9478,-4.0047,-4.0249,-4.0322,-4.0893,-4.1095,-4.1095,-4.1095,-4.0343,-3.9423,-3.9423,-3.9239,-3.9056,-3.9056,-3.8891,-3.8707,-3.8707,-3.8707,-3.8707,-3.8707,-3.8707,-3.8487,-3.7676,-3.6886,-3.5991,-3.4876,-3.4211,-3.3807,-3.3807,-3.3807,-3.3715,-3.3495,-3.3642,-3.344,-3.2394,-3.1751,-3.1103,-3.0301,-2.928,-2.873,-2.8987,-2.8062,-2.7787,-2.8583,-2.7813,-2.8014,-2.961,-3.0779,-3.188,-3.2926,-3.3495,-3.3734,-3.362,-3.362,-3.355,-3.3419,-3.475,-3.5553,-3.5905,-3.7542,-3.7982,-3.7452,-3.7452,-3.7174,-3.6726,-3.6726,-3.6726,-3.6726,-3.6726,-3.6726,-3.6726,-3.6726,-3.6726,-3.6684,-4.3515,-4.3496,-4.3496,-4.3515,-4.3496,-4.3496,-4.3515,-4.3515,-4.3515,-4.3515,-4.3515,-4.3515,-4.3515,-4.3515,-4.3515,-4.3515,-4.3515,-4.3515,-4.3515,-4.3515,-4.3515,-4.3515,-4.3515,-4.3515,-4.3496,-4.2708,-4.2286,-4.2268,-4.0634,-3.9035,-3.7419,-3.5738,-3.4986,-3.5059,-3.6725,-3.7918,-3.8726,-3.9533,-4.0341,-4.1058,-4.1058,-4.1058,-4.1058,-4.1077,-4.1077,-4.1077,-4.1095,-4.1095,-4.1095,-4.1095,-4.1095,-4.1058,-4.1058,-4.0524,-3.9882,-3.9882,-3.9313,-3.8707,-3.8707,-3.8707,-3.8707,-3.8707,-3.8707,-3.8487,-3.7676,-3.6886,-3.5826,-3.4156,-3.3807,-3.3807,-3.3807,-3.3807,-3.3532,-3.2729,-3.3293,-3.3238,-3.1635,-3.1415,-3.1103,-3.0301,-2.8778,-2.8136,-2.8932,-2.7556,-2.6961,-2.775,-2.8528,-2.9666,-3.1286,-3.1397,-3.2118,-3.3733,-3.3788,-3.3606,-3.3214,-3.3214,-3.2983,-3.2517,-3.3001,-3.3793,-3.4871,-3.6484,-3.6941,-3.6416,-3.6416,-3.6118,-3.5622,-3.5622,-3.5622,-3.5622,-3.5622,-3.5622,-3.5622,-3.5622,-3.5622,-3.5622,-4.3515,-4.3515,-4.3515,-4.3515,-4.3515,-4.3515,-4.3515,-4.3515,-4.3515,-4.3515,-4.3515,-4.3515,-4.3515,-4.3515,-4.3515,-4.3515,-4.3515,-4.3515,-4.3515,-4.3515,-4.3515,-4.3515,-4.3515,-4.3515,-4.3515,-4.324,-4.2837,-4.2304,-4.124,-4.0175,-3.9126,-3.8597,-3.8634,-3.9187,-3.9735,-4.0102,-4.0343,-4.0616,-4.0873,-4.1095,-4.1095,-4.1095,-4.115,-4.1717,-4.1919,-4.1992,-4.2543,-4.2745,-4.2745,-4.2745,-4.2745,-4.2745,-4.2745,-4.1809,-4.0616,-4.0065,-3.9717,-3.9405,-3.8854,-3.8707,-3.8707,-3.8707,-3.8707,-3.8487,-3.7676,-3.6413,-3.5261,-3.4729,-3.4192,-3.3807,-3.3807,-3.3807,-3.3715,-3.3458,-3.3623,-3.3623,-3.3109,-3.2559,-3.1916,-3.1109,-3.0081,-2.9329,-2.9023,-2.8546,-2.8345,-2.8601,-2.8858,-2.9225,-2.9739,-3.1317,-3.2331,-3.2577,-3.3103,-3.3184,-3.2729,-3.2713,-3.2809,-3.3001,-3.388,-3.503,-3.6448,-3.6961,-3.6921,-3.6395,-3.6395,-3.6097,-3.56,-3.56,-3.56,-3.56,-3.56,-3.56,-3.56,-3.56,-3.56,-3.56,-4.3515,-4.3515,-4.3515,-4.3515,-4.3515,-4.3515,-4.3515,-4.3515,-4.3515,-4.3515,-4.3515,-4.3515,-4.3515,-4.3515,-4.3515,-4.3515,-4.3515,-4.3515,-4.3515,-4.3515,-4.3515,-4.3515,-4.3515,-4.3515,-4.3515,-4.3515,-4.324,-4.2745,-4.1937,-4.1295,-4.0781,-4.0487,-4.0616,-4.1095,-4.1095,-4.126,-4.1535,-4.1535,-4.1735,-4.2011,-4.2011,-4.2011,-4.2066,-4.2561,-4.2745,-4.2818,-4.3331,-4.3515,-4.3515,-4.3515,-4.3515,-4.3515,-4.3515,-4.28,-4.1846,-4.1038,-4.0359,-3.979,-3.9294,-3.8927,-3.8707,-3.8707,-3.8707,-3.8487,-3.7676,-3.6688,-3.5756,-3.5133,-3.4601,-3.4174,-3.3862,-3.3807,-3.3807,-3.3807,-3.3807,-3.3807,-3.3807,-3.3109,-3.2289,-3.1507,-3.0962,-3.0338,-2.9537,-2.9721,-2.9898,-2.9898,-3.0179,-3.0344,-3.0344,-3.1355,-3.2092,-3.2444,-3.2762,-3.2713,-3.223,-3.2248,-3.2457,-3.2875,-3.4104,-3.5306,-3.6443,-3.6544,-3.6437,-3.6097,-3.6097,-3.592,-3.56,-3.56,-3.56,-3.56,-3.56,-3.56,-3.56,-3.56,-3.56,-3.56,-4.3515,-4.3515,-4.3515,-4.3515,-4.3515,-4.3515,-4.3515,-4.3515,-4.3515,-4.3515,-4.3515,-4.3515,-4.3515,-4.3515,-4.3515,-4.3515,-4.3515,-4.3515,-4.3515,-4.3515,-4.3515,-4.3515,-4.3515,-4.3515,-4.3515,-4.3515,-4.3515,-4.3515,-4.2745,-4.2378,-4.2378,-4.1625,-4.126,-4.126,-4.126,-4.168,-4.2378,-4.2378,-4.2818,-4.3515,-4.3515,-4.3515,-4.3515,-4.3515,-4.3515,-4.3515,-4.3515,-4.3515,-4.3515,-4.3515,-4.3515,-4.3515,-4.3515,-4.3515,-4.3332,-4.2543,-4.124,-4.0029,-3.9918,-3.935,-3.8781,-3.8707,-3.8707,-3.8505,-3.7749,-3.7547,-3.707,-3.55,-3.5133,-3.4857,-3.4119,-3.3917,-3.388,-3.388,-3.3844,-3.3807,-3.3807,-3.3151,-3.2381,-3.158,-3.1488,-3.1164,-3.0356,-3.0999,-3.147,-3.1397,-3.2155,-3.2601,-3.2601,-3.1519,-3.1596,-3.31,-3.2697,-3.2248,-3.1839,-3.1821,-3.2046,-3.2462,-3.3872,-3.4789,-3.5235,-3.5504,-3.56,-3.56,-3.56,-3.56,-3.56,-3.56,-3.56,-3.56,-3.56,-3.56,-3.56,-3.56,-3.56,-3.56,-4.3515,-4.3515,-4.3515,-4.3515,-4.3515,-4.3515,-4.3515,-4.3515,-4.3515,-4.3515,-4.3515,-4.3515,-4.3515,-4.3515,-4.3515,-4.3515,-4.3515,-4.3515,-4.3515,-4.3515,-4.3515,-4.3515,-4.3515,-4.3515,-4.3515,-4.3515,-4.3515,-4.3515,-4.3296,-4.3222,-4.3221,-4.302,-4.2928,-4.2928,-4.2928,-4.3039,-4.3222,-4.3222,-4.3331,-4.3515,-4.3515,-4.3515,-4.3515,-4.3515,-4.3515,-4.3515,-4.3515,-4.3515,-4.3515,-4.3515,-4.3515,-4.3515,-4.3515,-4.3515,-4.3332,-4.2543,-4.2029,-4.146,-4.023,-3.9753,-3.946,-3.8854,-3.8707,-3.8652,-3.8469,-3.7951,-3.7382,-3.6997,-3.6413,-3.5936,-3.5734,-3.5151,-3.4729,-3.4729,-3.4197,-3.3807,-3.3807,-3.3642,-3.322,-3.2399,-3.232,-3.2008,-3.1182,-3.1843,-3.2063,-3.1452,-3.2155,-3.2601,-3.2601,-3.2224,-3.2227,-3.2647,-3.2213,-3.2046,-3.2185,-3.2185,-3.2805,-3.4003,-3.4706,-3.521,-3.5511,-3.5582,-3.56,-3.56,-3.56,-3.56,-3.56,-3.56,-3.56,-3.56,-3.56,-3.56,-3.56,-3.56,-3.56,-3.56,-4.3515,-4.3515,-4.3515,-4.3515,-4.3515,-4.3515,-4.3515,-4.3515,-4.3515,-4.3515,-4.3515,-4.3515,-4.3515,-4.3515,-4.3515,-4.3515,-4.3515,-4.3515,-4.3515,-4.3515,-4.3515,-4.3515,-4.3515,-4.3515,-4.3515,-4.3515,-4.3515,-4.3515,-4.3515,-4.3515,-4.3515,-4.3515,-4.3515,-4.3515,-4.3515,-4.3515,-4.3515,-4.3515,-4.3515,-4.3515,-4.3515,-4.3515,-4.3515,-4.3515,-4.3515,-4.3515,-4.3515,-4.3515,-4.3515,-4.3515,-4.3515,-4.3515,-4.3515,-4.3515,-4.3423,-4.2983,-4.2598,-4.2103,-4.1222,-4.0726,-4.0267,-3.9441,-3.8964,-3.8707,-3.8707,-3.8358,-3.7936,-3.7584,-3.7144,-3.6725,-3.6358,-3.5917,-3.5463,-3.5059,-3.4637,-3.4215,-3.3844,-3.3807,-3.3495,-3.2693,-3.2913,-3.2834,-3.2027,-3.2687,-3.2981,-3.2522,-3.2908,-3.3066,-3.2885,-3.2932,-3.2963,-3.2997,-3.2691,-3.2622,-3.2801,-3.3139,-3.3715,-3.4506,-3.5092,-3.5462,-3.56,-3.56,-3.56,-3.56,-3.56,-3.56,-3.56,-3.56,-3.56,-3.56,-3.56,-3.56,-3.56,-3.56,-3.56,-3.56,-4.3515,-4.3515,-4.3515,-4.3515,-4.3515,-4.3515,-4.3515,-4.3515,-4.3515,-4.3515,-4.3515,-4.3515,-4.3515,-4.3515,-4.3515,-4.3515,-4.3515,-4.3515,-4.3515,-4.3515,-4.3515,-4.3515,-4.3515,-4.3515,-4.3515,-4.3515,-4.3515,-4.3515,-4.3515,-4.3515,-4.3515,-4.3515,-4.3515,-4.3515,-4.3515,-4.3515,-4.3515,-4.3515,-4.3515,-4.3515,-4.3515,-4.3515,-4.3515,-4.3515,-4.3515,-4.3515,-4.3515,-4.3515,-4.3515,-4.3515,-4.3515,-4.3515,-4.3515,-4.3515,-4.3515,-4.3515,-4.302,-4.2451,-4.2323,-4.1717,-4.0912,-4.0102,-3.9386,-3.8854,-3.8726,-3.8707,-3.8505,-3.7823,-3.7676,-3.7474,-3.678,-3.656,-3.6193,-3.5334,-3.5096,-3.4729,-3.3917,-3.3748,-3.3469,-3.276,-3.3232,-3.3364,-3.276,-3.3232,-3.3634,-3.3707,-3.3634,-3.3502,-3.3268,-3.3521,-3.3741,-3.3829,-3.3556,-3.3457,-3.3558,-3.4303,-3.4675,-3.4675,-3.5295,-3.56,-3.56,-3.56,-3.56,-3.56,-3.56,-3.56,-3.56,-3.56,-3.56,-3.56,-3.56,-3.56,-3.56,-3.56,-3.56,-3.56,-4.3515,-4.3515,-4.3515,-4.3515,-4.3515,-4.3515,-4.3515,-4.3515,-4.3515,-4.3515,-4.3515,-4.3515,-4.3515,-4.3515,-4.3515,-4.3515,-4.3515,-4.3515,-4.3515,-4.3515,-4.3515,-4.3515,-4.3515,-4.3515,-4.3515,-4.3515,-4.3515,-4.3515,-4.3515,-4.3515,-4.3515,-4.3515,-4.3515,-4.3515,-4.3515,-4.3515,-4.3515,-4.3515,-4.3515,-4.3515,-4.3515,-4.3515,-4.3515,-4.3515,-4.3515,-4.3515,-4.3515,-4.3515,-4.3515,-4.3515,-4.3515,-4.3515,-4.3515,-4.3515,-4.3515,-4.3515,-4.3423,-4.3167,-4.2488,-4.1717,-4.0912,-4.0102,-3.9808,-3.9533,-3.8854,-3.8707,-3.867,-3.8542,-3.8505,-3.8487,-3.8358,-3.7771,-3.7052,-3.6229,-3.5481,-3.4729,-3.3917,-3.3508,-3.3252,-3.3125,-3.2862,-3.282,-3.3096,-3.2847,-3.2856,-3.3258,-3.2937,-3.2949,-3.3505,-3.3841,-3.4308,-3.4931,-3.3939,-3.3694,-3.432,-3.5064,-3.543,-3.543,-3.5549,-3.56,-3.56,-3.56,-3.56,-3.56,-3.56,-3.56,-3.56,-3.56,-3.56,-3.56,-3.56,-3.56,-3.56,-3.56,-3.56,-3.56,-4.3515,-4.3515,-4.3515,-4.3515,-4.3515,-4.3515,-4.3515,-4.3515,-4.3515,-4.3515,-4.3515,-4.3515,-4.3515,-4.3515,-4.3515,-4.3515,-4.3515,-4.3515,-4.3515,-4.3515,-4.3515,-4.3515,-4.3515,-4.3515,-4.3515,-4.3515,-4.3515,-4.3515,-4.3515,-4.3515,-4.3515,-4.3515,-4.3515,-4.3515,-4.3515,-4.3515,-4.3515,-4.3515,-4.3515,-4.3515,-4.3515,-4.3515,-4.3515,-4.3515,-4.3515,-4.3515,-4.3515,-4.3515,-4.3515,-4.3515,-4.3515,-4.3515,-4.3515,-4.3515,-4.3515,-4.3515,-4.3515,-4.3423,-4.3039,-4.2359,-4.1662,-4.1295,-4.0543,-3.979,-3.9423,-3.9019,-3.8707,-3.8707,-3.8707,-3.8707,-3.8707,-3.8395,-3.7881,-3.7088,-3.6032,-3.5045,-3.4244,-3.3376,-3.2809,-3.2809,-3.2971,-3.3187,-3.3401,-3.3593,-3.3773,-3.3992,-3.3807,-3.3741,-3.3857,-3.4378,-3.4726,-3.4818,-3.4686,-3.4737,-3.5098,-3.543,-3.56,-3.56,-3.56,-3.56,-3.56,-3.56,-3.56,-3.56,-3.56,-3.56,-3.56,-3.56,-3.56,-3.56,-3.56,-3.56,-3.56,-3.56,-3.56,-3.56,-4.3515,-4.3515,-4.3515,-4.3515,-4.3515,-4.3515,-4.3515,-4.3515,-4.3515,-4.3515,-4.3515,-4.3515,-4.3515,-4.3515,-4.3515,-4.3515,-4.3515,-4.3515,-4.3515,-4.3515,-4.3515,-4.3515,-4.3515,-4.3515,-4.3515,-4.3515,-4.3515,-4.3515,-4.3515,-4.3515,-4.3515,-4.3515,-4.3515,-4.3515,-4.3515,-4.3515,-4.3515,-4.3515,-4.3515,-4.3515,-4.3515,-4.3515,-4.3515,-4.3515,-4.3515,-4.3515,-4.3515,-4.3515,-4.3515,-4.3515,-4.3515,-4.3515,-4.3515,-4.3515,-4.3515,-4.3515,-4.3515,-4.3515,-4.3515,-4.3039,-4.2525,-4.2359,-4.1368,-4.0359,-3.9989,-3.9423,-3.8927,-3.8744,-3.8707,-3.8707,-3.8707,-3.8707,-3.8401,-3.7467,-3.6492,-3.5532,-3.4593,-3.3539,-3.2879,-3.2879,-3.3283,-3.3598,-3.3706,-3.4142,-3.4438,-3.4549,-3.4457,-3.4337,-3.4189,-3.4737,-3.4945,-3.4764,-3.5295,-3.56,-3.56,-3.56,-3.56,-3.56,-3.56,-3.56,-3.56,-3.56,-3.56,-3.56,-3.56,-3.56,-3.56,-3.56,-3.56,-3.56,-3.56,-3.56,-3.56,-3.56,-3.56,-3.56,-4.3515,-4.3515,-4.3515,-4.3515,-4.3515,-4.3515,-4.3515,-4.3515,-4.3515,-4.3515,-4.3515,-4.3515,-4.3515,-4.3515,-4.3515,-4.3515,-4.3515,-4.3515,-4.3515,-4.3515,-4.3515,-4.3515,-4.3515,-4.3515,-4.3515,-4.3515,-4.3515,-4.3515,-4.3515,-4.3515,-4.3515,-4.3515,-4.3515,-4.3515,-4.3515,-4.3515,-4.3515,-4.3515,-4.3515,-4.3515,-4.3515,-4.3515,-4.3515,-4.3515,-4.3515,-4.3515,-4.3515,-4.3515,-4.3515,-4.3515,-4.3515,-4.3515,-4.3515,-4.3515,-4.3515,-4.3515,-4.3515,-4.3515,-4.3515,-4.346,-4.3222,-4.2488,-4.2213,-4.1735,-4.023,-3.9845,-3.9588,-3.8854,-3.8707,-3.8707,-3.8707,-3.8707,-3.8256,-3.6966,-3.6668,-3.6158,-3.4854,-3.4277,-3.399,-3.399,-3.3645,-3.3577,-3.4019,-3.373,-3.3683,-3.4108,-3.3727,-3.3782,-3.4435,-3.452,-3.4854,-3.5498,-3.5566,-3.56,-3.56,-3.56,-3.56,-3.56,-3.56,-3.56,-3.56,-3.56,-3.56,-3.56,-3.56,-3.56,-3.56,-3.56,-3.56,-3.56,-3.56,-3.56,-3.56,-3.56,-3.56,-3.56,-4.3515,-4.3515,-4.3515,-4.3515,-4.3515,-4.3515,-4.3515,-4.3515,-4.3515,-4.3515,-4.3515,-4.3515,-4.3515,-4.3515,-4.3515,-4.3515,-4.3515,-4.3515,-4.3515,-4.3515,-4.3515,-4.3515,-4.3515,-4.3515,-4.3515,-4.3515,-4.3515,-4.3515,-4.3515,-4.3515,-4.3515,-4.3515,-4.3515,-4.3515,-4.3515,-4.3515,-4.3515,-4.3515,-4.3515,-4.3515,-4.3515,-4.3515,-4.3515,-4.3515,-4.3515,-4.3515,-4.3515,-4.3515,-4.3515,-4.3515,-4.3515,-4.3515,-4.3515,-4.3515,-4.3515,-4.3515,-4.3515,-4.3515,-4.3515,-4.3515,-4.3441,-4.3112,-4.2671,-4.2139,-4.1534,-4.0616,-3.9808,-3.9515,-3.9056,-3.8707,-3.8707,-3.8707,-3.8421,-3.7582,-3.6789,-3.5989,-3.5189,-3.4263,-3.368,-3.368,-3.3922,-3.4151,-3.4324,-3.4597,-3.4842,-3.5019,-3.4885,-3.4873,-3.5182,-3.5182,-3.5295,-3.5583,-3.56,-3.56,-3.56,-3.56,-3.56,-3.56,-3.56,-3.56,-3.56,-3.56,-3.56,-3.56,-3.56,-3.56,-3.56,-3.56,-3.56,-3.56,-3.56,-3.56,-3.56,-3.56,-3.56,-3.56,-4.3515,-4.3515,-4.3515,-4.3515,-4.3515,-4.3515,-4.3515,-4.3515,-4.3515,-4.3515,-4.3515,-4.3515,-4.3515,-4.3515,-4.3515,-4.3515,-4.3515,-4.3515,-4.3515,-4.3515,-4.3515,-4.3515,-4.3515,-4.3515,-4.3515,-4.3515,-4.3515,-4.3515,-4.3515,-4.3515,-4.3515,-4.3515,-4.3515,-4.3515,-4.3515,-4.3515,-4.3515,-4.3515,-4.3515,-4.3515,-4.3515,-4.3515,-4.3515,-4.3515,-4.3515,-4.3515,-4.3515,-4.3515,-4.3515,-4.3515,-4.3515,-4.3515,-4.3515,-4.3515,-4.3515,-4.3515,-4.3515,-4.3515,-4.3515,-4.3515,-4.3515,-4.3515,-4.3075,-4.2564,-4.2117,-4.1151,-4.0204,-3.9524,-3.8964,-3.8543,-3.8469,-3.8449,-3.8283,-3.7755,-3.6952,-3.6152,-3.5494,-3.4644,-3.4078,-3.4078,-3.4539,-3.4844,-3.4844,-3.5295,-3.56,-3.56,-3.56,-3.56,-3.56,-3.56,-3.56,-3.56,-3.56,-3.56,-3.56,-3.56,-3.56,-3.56,-3.56,-3.56,-3.56,-3.56,-3.56,-3.56,-3.56,-3.56,-3.56,-3.56,-3.56,-3.56,-3.56,-3.56,-3.56,-3.56,-3.56,-3.56,-4.3515,-4.3515,-4.3515,-4.3515,-4.3515,-4.3515,-4.3515,-4.3515,-4.3515,-4.3515,-4.3515,-4.3515,-4.3515,-4.3515,-4.3515,-4.3515,-4.3515,-4.3515,-4.3515,-4.3515,-4.3515,-4.3515,-4.3515,-4.3515,-4.3515,-4.3515,-4.3515,-4.3515,-4.3515,-4.3515,-4.3515,-4.3515,-4.3515,-4.3515,-4.3515,-4.3515,-4.3515,-4.3515,-4.3515,-4.3515,-4.3515,-4.3515,-4.3515,-4.3515,-4.3515,-4.3515,-4.3515,-4.3515,-4.3515,-4.3515,-4.3515,-4.3515,-4.3515,-4.3515,-4.3515,-4.3515,-4.3515,-4.3515,-4.3515,-4.3515,-4.3515,-4.3515,-4.3515,-4.3119,-4.1741,-4.1393,-4.0792,-3.8736,-3.83,-3.8244,-3.7952,-3.7911,-3.7755,-3.7267,-3.7192,-3.6825,-3.5761,-3.56,-3.56,-3.56,-3.56,-3.56,-3.56,-3.56,-3.56,-3.56,-3.56,-3.56,-3.56,-3.56,-3.56,-3.56,-3.56,-3.56,-3.56,-3.56,-3.56,-3.56,-3.56,-3.56,-3.56,-3.56,-3.56,-3.56,-3.56,-3.56,-3.56,-3.56,-3.56,-3.56,-3.56,-3.56,-3.56,-3.56,-3.56,-3.56,-4.3515,-4.3515,-4.3515,-4.3515,-4.3515,-4.3515,-4.3515,-4.3515,-4.3515,-4.3515,-4.3515,-4.3515,-4.3515,-4.3515,-4.3515,-4.3515,-4.3515,-4.3515,-4.3515,-4.3515,-4.3515,-4.3515,-4.3515,-4.3515,-4.3515,-4.3515,-4.3515,-4.3515,-4.3515,-4.3515,-4.3515,-4.3515,-4.3515,-4.3515,-4.3515,-4.3515,-4.3515,-4.3515,-4.3515,-4.3515,-4.3515,-4.3515,-4.3515,-4.3515,-4.3515,-4.3515,-4.3515,-4.3515,-4.3515,-4.3515,-4.3515,-4.3515,-4.3515,-4.3515,-4.3515,-4.3515,-4.3515,-4.3515,-4.3515,-4.3515,-4.3515,-4.3515,-4.3515,-4.3284,-4.25,-4.1826,-4.1116,-4.0119,-3.9466,-3.8888,-3.8282,-3.8178,-3.7829,-3.6811,-3.6643,-3.6395,-3.5694,-3.56,-3.56,-3.56,-3.56,-3.56,-3.56,-3.56,-3.56,-3.56,-3.56,-3.56,-3.56,-3.56,-3.56,-3.56,-3.56,-3.56,-3.56,-3.56,-3.56,-3.56,-3.56,-3.56,-3.56,-3.56,-3.56,-3.56,-3.56,-3.56,-3.56,-3.56,-3.56,-3.56,-3.56,-3.56,-3.56,-3.56,-3.56,-3.56,-4.3515,-4.3515,-4.3515,-4.3515,-4.3515,-4.3515,-4.3515,-4.3515,-4.3515,-4.3515,-4.3515,-4.3515,-4.3515,-4.3515,-4.3515,-4.3515,-4.3515,-4.3515,-4.3515,-4.3515,-4.3515,-4.3515,-4.3515,-4.3515,-4.3515,-4.3515,-4.3515,-4.3515,-4.3515,-4.3515,-4.3515,-4.3515,-4.3515,-4.3515,-4.3515,-4.3515,-4.3515,-4.3515,-4.3515,-4.3515,-4.3515,-4.3515,-4.3515,-4.3515,-4.3515,-4.3515,-4.3515,-4.3515,-4.3515,-4.3515,-4.3515,-4.3515,-4.3515,-4.3515,-4.3515,-4.3515,-4.3515,-4.3515,-4.3515,-4.3515,-4.3515,-4.3515,-4.3515,-4.3303,-4.2521,-4.1948,-4.1263,-4.0198,-3.9581,-3.9073,-3.8517,-3.8193,-3.774,-3.6957,-3.6586,-3.6224,-3.5689,-3.56,-3.56,-3.56,-3.56,-3.56,-3.56,-3.56,-3.56,-3.56,-3.56,-3.56,-3.56,-3.56,-3.56,-3.56,-3.56,-3.56,-3.56,-3.56,-3.56,-3.56,-3.56,-3.56,-3.56,-3.56,-3.56,-3.56,-3.56,-3.56,-3.56,-3.56,-3.56,-3.56,-3.56,-3.56,-3.56,-3.56,-3.56,-3.56,-4.3515,-4.3515,-4.3515,-4.3515,-4.3515,-4.3515,-4.3515,-4.3515,-4.3515,-4.3515,-4.3515,-4.3515,-4.3515,-4.3515,-4.3515,-4.3515,-4.3515,-4.3515,-4.3515,-4.3515,-4.3515,-4.3515,-4.3515,-4.3515,-4.3515,-4.3515,-4.3515,-4.3515,-4.3515,-4.3515,-4.3515,-4.3515,-4.3515,-4.3515,-4.3515,-4.3515,-4.3515,-4.3515,-4.3515,-4.3515,-4.3515,-4.3515,-4.3515,-4.3515,-4.3515,-4.3515,-4.3515,-4.3515,-4.3515,-4.3515,-4.3515,-4.3515,-4.3515,-4.3515,-4.3515,-4.3515,-4.348,-4.3427,-4.3427,-4.3392,-4.3356,-4.341,-4.3392,-4.3087,-4.2041,-4.175,-4.1209,-3.946,-3.9089,-3.8989,-3.8687,-3.8091,-3.7608,-3.7556,-3.6917,-3.6264,-3.5791,-3.565,-3.56,-3.56,-3.56,-3.56,-3.56,-3.56,-3.56,-3.56,-3.56,-3.56,-3.56,-3.56,-3.56,-3.56,-3.56,-3.56,-3.56,-3.56,-3.56,-3.56,-3.56,-3.56,-3.56,-3.56,-3.56,-3.56,-3.56,-3.56,-3.56,-3.56,-3.56,-3.56,-3.56,-3.56,-3.56,-3.56,-3.556,-3.5492,-4.3515,-4.3515,-4.3515,-4.3515,-4.3515,-4.3515,-4.3515,-4.3515,-4.3515,-4.3515,-4.3515,-4.3515,-4.3515,-4.3515,-4.3515,-4.3515,-4.3515,-4.3515,-4.3515,-4.3515,-4.3515,-4.3515,-4.3515,-4.3515,-4.3515,-4.3515,-4.3515,-4.3515,-4.3515,-4.3515,-4.3515,-4.3515,-4.3515,-4.3515,-4.3515,-4.3515,-4.3515,-4.3515,-4.3515,-4.3515,-4.3515,-4.3515,-4.3515,-4.3515,-4.3515,-4.3515,-4.3515,-4.3515,-4.3515,-4.3515,-4.3515,-4.3515,-4.3515,-4.3515,-4.3515,-4.3515,-4.3196,-4.2883,-4.2883,-4.2521,-4.2266,-4.277,-4.2521,-4.2103,-4.1874,-4.1446,-4.0845,-4.0025,-3.9859,-3.9664,-3.9023,-3.8775,-3.8486,-3.7908,-3.7177,-3.6678,-3.6558,-3.6011,-3.56,-3.56,-3.56,-3.56,-3.56,-3.56,-3.56,-3.56,-3.56,-3.56,-3.56,-3.56,-3.56,-3.56,-3.56,-3.56,-3.56,-3.56,-3.56,-3.56,-3.56,-3.56,-3.56,-3.56,-3.56,-3.56,-3.56,-3.56,-3.56,-3.56,-3.56,-3.56,-3.56,-3.56,-3.56,-3.56,-3.527,-3.4736,-4.3515,-4.3515,-4.3515,-4.3515,-4.3515,-4.3515,-4.3515,-4.3515,-4.3515,-4.3515,-4.3515,-4.3515,-4.3515,-4.3515,-4.3515,-4.3515,-4.3515,-4.3515,-4.3515,-4.3515,-4.3515,-4.3515,-4.3515,-4.3515,-4.3515,-4.3515,-4.3515,-4.3515,-4.3515,-4.3515,-4.3515,-4.3515,-4.3515,-4.3515,-4.3515,-4.3515,-4.3515,-4.3515,-4.3515,-4.3515,-4.3515,-4.3515,-4.3515,-4.3515,-4.3515,-4.3515,-4.3515,-4.3515,-4.3515,-4.3515,-4.3515,-4.3463,-4.3196,-4.3124,-4.3069,-4.2772,-4.2483,-4.2282,-4.2282,-4.2041,-4.1874,-4.2183,-4.1832,-4.1446,-4.1729,-4.1335,-4.0733,-4.0204,-4.0096,-3.9994,-3.9605,-3.9225,-3.887,-3.8481,-3.7804,-3.7195,-3.6846,-3.6434,-3.6045,-3.565,-3.56,-3.56,-3.56,-3.56,-3.56,-3.56,-3.56,-3.56,-3.56,-3.56,-3.56,-3.56,-3.56,-3.56,-3.56,-3.5994,-3.618,-3.6163,-3.5769,-3.56,-3.5616,-3.6011,-3.618,-3.618,-3.618,-3.618,-3.6146,-3.5752,-3.56,-3.56,-3.56,-3.56,-3.56,-3.56,-3.5184,-3.4552,-4.3515,-4.3515,-4.3515,-4.3515,-4.3515,-4.3515,-4.3515,-4.3515,-4.3515,-4.3515,-4.3515,-4.3515,-4.3515,-4.3515,-4.3515,-4.3515,-4.3515,-4.3515,-4.3515,-4.3515,-4.3515,-4.3515,-4.3515,-4.3515,-4.3515,-4.3515,-4.3515,-4.3515,-4.3515,-4.3515,-4.3515,-4.3515,-4.3515,-4.3515,-4.3515,-4.3515,-4.3515,-4.3515,-4.3515,-4.3515,-4.3515,-4.3515,-4.3515,-4.3515,-4.3515,-4.3515,-4.3515,-4.3515,-4.3497,-4.3392,-4.3356,-4.3268,-4.2732,-4.2557,-4.246,-4.1937,-4.1746,-4.1643,-4.1643,-4.1578,-4.153,-4.1621,-4.1201,-4.092,-4.1512,-4.1178,-4.0631,-4.0179,-4.0096,-4.0096,-4.0096,-3.9605,-3.9174,-3.9174,-3.8565,-3.7872,-3.7269,-3.6965,-3.6535,-3.5893,-3.5825,-3.5825,-3.5825,-3.5921,-3.5988,-3.5988,-3.5988,-3.5988,-3.5988,-3.587,-3.5853,-3.5988,-3.5853,-3.5853,-3.5988,-3.6654,-3.6998,-3.6998,-3.6315,-3.5988,-3.6005,-3.6671,-3.6998,-3.6998,-3.6998,-3.6931,-3.6745,-3.6079,-3.5718,-3.56,-3.56,-3.56,-3.5577,-3.5339,-3.4911,-3.4382,-4.3515,-4.3515,-4.3515,-4.3515,-4.3515,-4.3515,-4.3515,-4.3515,-4.3515,-4.3515,-4.3515,-4.3515,-4.3515,-4.3515,-4.3515,-4.3515,-4.3515,-4.3515,-4.3515,-4.3515,-4.3515,-4.3515,-4.3515,-4.3515,-4.3515,-4.3515,-4.3515,-4.3515,-4.3515,-4.3515,-4.3515,-4.3515,-4.3515,-4.3515,-4.3515,-4.3515,-4.3515,-4.3515,-4.3515,-4.3515,-4.3515,-4.3515,-4.3515,-4.3515,-4.3515,-4.3515,-4.3515,-4.3515,-4.3427,-4.2958,-4.2807,-4.2693,-4.2121,-4.1916,-4.1916,-4.1814,-4.1424,-4.1018,-4.1018,-4.0696,-4.0441,-4.092,-4.0625,-4.0343,-4.0897,-4.0601,-4.0179,-4.0121,-4.0096,-4.0096,-4.0096,-4.0028,-3.996,-3.996,-3.9326,-3.8819,-3.8717,-3.7608,-3.6761,-3.666,-3.6643,-3.6643,-3.6643,-3.7212,-3.7601,-3.7601,-3.7601,-3.7601,-3.7601,-3.6975,-3.6924,-3.7584,-3.6958,-3.6924,-3.7584,-3.7702,-3.7753,-3.7753,-3.7652,-3.7601,-3.7577,-3.7702,-3.7753,-3.7753,-3.7753,-3.7381,-3.6795,-3.6694,-3.6231,-3.56,-3.56,-3.56,-3.547,-3.4301,-3.3811,-3.3556,-4.3515,-4.3515,-4.3515,-4.3515,-4.3515,-4.3515,-4.3515,-4.3515,-4.3515,-4.3515,-4.3515,-4.3515,-4.3515,-4.3515,-4.3515,-4.3515,-4.3515,-4.3515,-4.3515,-4.3515,-4.3515,-4.3515,-4.3515,-4.3515,-4.3515,-4.3515,-4.3515,-4.3515,-4.3515,-4.3515,-4.3515,-4.3515,-4.3515,-4.3515,-4.3515,-4.3515,-4.3515,-4.3515,-4.3515,-4.3515,-4.3515,-4.3515,-4.3515,-4.3515,-4.3515,-4.3515,-4.3515,-4.3515,-4.3427,-4.2883,-4.2711,-4.2537,-4.1599,-4.1291,-4.1246,-4.0938,-4.0648,-4.0449,-4.0449,-4.0286,-4.0171,-4.0392,-4.0279,-4.0171,-4.0392,-4.0262,-4.0096,-4.0096,-4.0096,-4.0096,-4.0096,-4.0096,-4.0096,-4.0096,-3.9842,-3.9462,-3.9056,-3.843,-3.7895,-3.7449,-3.7398,-3.7398,-3.7398,-3.7719,-3.7905,-3.7905,-3.7905,-3.7905,-3.7905,-3.7584,-3.7567,-3.7889,-3.7584,-3.7567,-3.7905,-3.8311,-3.8514,-3.8514,-3.892,-3.87,-3.7922,-3.8328,-3.8514,-3.8514,-3.8514,-3.8091,-3.7381,-3.6981,-3.6315,-3.56,-3.56,-3.5362,-3.4981,-3.4399,-3.3684,-3.296]},{"header":{"parameterUnit":"m.s-1","parameterCategory":1,"la1":30.6,"la2":28.766,"lo1":-90.7593,"lo2":-88.6598,"dy":0.0162,"dx":0.0183,"nx":116,"ny":114,"refTime":"2024-05-30T12:00:00:Z","depth":0,"parameterNumber":3,"parameterNumberName":"V-component_of_WINDS"},"data":[0.0,0.0,0.0,0.0,0.0,0.0,0.0,0.0,0.0,0.0,0.0,0.0,0.0,0.0,0.0,0.0,0.0,0.0,0.0,0.0,0.0,0.0,0.0,0.0,0.0,0.0,0.0,0.0,0.0,0.0,0.0,0.0,0.0,0.0,0.0,0.0,0.0,0.0,0.0,0.0,0.0,0.0,0.0,0.0,0.0,0.0,0.0,0.0,0.0,0.0,0.0,0.0,0.0,0.0,0.0,0.0,0.0,0.0,0.0,0.0,0.0,0.0,0.0,0.0,0.0,0.0,0.0,0.0,0.0,0.0,0.0,0.0,0.0,0.0,0.0,0.0,0.0,0.0,0.0,0.0,0.0,0.0,0.0,0.0,0.0,0.0,0.0,0.0,0.0,0.0,0.0,0.0,0.0,0.0,0.0,0.0,0.0,0.0,0.0,0.0,0.0,0.0,0.0,0.0,0.0,0.0,0.0,0.0,0.0,0.0,0.0,0.0,0.0,0.0,0.0,0.0,0.0,0.0,0.0,0.0,0.0,0.0,0.0,0.0,0.0,0.0,0.0,0.0,0.0,0.0,0.0,0.0,0.0,0.0,0.0,0.0,0.0,0.0,0.0,0.0,0.0,0.0,0.0,0.0,0.0,0.0,0.0,0.0,0.0,0.0,0.0,0.0,0.0,0.0,0.0,0.0,0.0,0.0,0.0,0.0,0.0,0.0,0.0,0.0,0.0,0.0,0.0,0.0,0.0,0.0,0.0,0.0,0.0,0.0,0.0,0.0,0.0,0.0,0.0,0.0,0.0,0.0,0.0,0.0,0.0,0.0,0.0,0.0,0.0,0.0,0.0,0.0,0.0,0.0,0.0,0.0,0.0,0.0,0.0,0.0,0.0,0.0,0.0,0.0,0.0,0.0,0.0,0.0,0.0,0.0,0.0,0.0,0.0,0.0,0.0,0.0,0.0,0.0,0.0,0.0,0.0,0.0,0.0,0.0,0.0,0.0,0.0,0.0,0.0,0.0,0.0,0.0,0.0,0.0,0.0,0.0,0.0,0.0,0.0,0.0,0.0,0.0,0.0,0.0,0.0,0.0,0.0,0.0,0.0,0.0,0.0,0.0,0.0,0.0,0.0,0.0,0.0,0.0,0.0,0.0,0.0,0.0,0.0,0.0,0.0,0.0,0.0,0.0,0.0,0.0,0.0,0.0,0.0,0.0,0.0,0.0,0.0,0.0,0.0,0.0,0.0,0.0,0.0,0.0,0.0,0.0,0.0,0.0,0.0,0.0,0.0,0.0,0.0,0.0,0.0,0.0,0.0,0.0,0.0,0.0,0.0,0.0,0.0,0.0,0.0,0.0,0.0,0.0,0.0,0.0,0.0,0.0,0.0,0.0,0.0,0.0,0.0,0.0,0.0,0.0,0.0,0.0,0.0,0.0,0.0,0.0,0.0,0.0,0.0,0.0,0.0,0.0,0.0,0.0,0.0,0.0,0.0,0.0,0.0,0.0,0.0,0.0,0.0,0.0,0.0,0.0,0.0,0.0,0.0,0.0,0.0,0.0,0.0,0.0,0.0,0.0,0.0,0.0,0.0,0.0,0.0,0.0,0.0,0.0,0.0,0.0,0.0,0.0,0.0,0.0,0.0,0.0,0.0,0.0,0.0,0.0,0.0,0.0,0.0,0.0,0.0,0.0,0.0,0.0,0.0,0.0,0.0,0.0,0.0,0.0,0.0,0.0,0.0,0.0,0.0,0.0,0.0,0.0,0.0,0.0,0.0,0.0,0.0,0.0,0.0,0.0,0.0,0.0,0.0,0.0,0.0,0.0,0.0,0.0,0.0,0.0,0.0,0.0,0.0,0.0,0.0,0.0,0.0,0.0,0.0,0.0,0.0,0.0,0.0,0.0,0.0,0.0,0.0,0.0,0.0,0.0,0.0,0.0,0.0,0.0,0.0,0.0,0.0,0.0,0.0,0.0,0.0,0.0,0.0,0.0,0.0,0.0,0.0,0.0,0.0,0.0,0.0,0.0,0.0,0.0,0.0,0.0,0.0,0.0,0.0,0.0,0.0,0.0,0.0,0.0,0.0,0.0,0.0,0.0,0.0,0.0,0.0,0.0,0.0,0.0,0.0,0.0,0.0,0.0,0.0,0.0,0.0,0.0,0.0,0.0,0.0,0.0,0.0,0.0,0.0,0.0,0.0,0.0,0.0,0.0,0.0,0.0,0.0,0.0,0.0,0.0,0.0,0.0,0.0,0.0,0.0,0.0,0.0,0.0,0.0,0.0,0.0,0.0,0.0,0.0,0.0,0.0,0.0,0.0,0.0,0.0,0.0,0.0,0.0,0.0,0.0,0.0,0.0,0.0,0.0,0.0,0.0,0.0,0.0,0.0,0.0,0.0,0.0,0.0,0.0,0.0,0.0,0.0,0.0,0.0,0.0,0.0,0.0,0.0,0.0,0.0,0.0,0.0,0.0,0.0,0.0,0.0,0.0,0.0,0.0,0.0,0.0,0.0,0.0,0.0,0.0,0.0,0.0,0.0,0.0,0.0,0.0,0.0,0.0,0.0,0.0,0.0,0.0,0.0,0.0,0.0,0.0,0.0,0.0,0.0,0.0,0.0,0.0,0.0,0.0,0.0,0.0,0.0,0.0,0.0,0.0,0.0,0.0,0.0,0.0,0.0,0.0,0.0,0.0,0.0,0.0,0.0,0.0,0.0,0.0,0.0,0.0,0.0,0.0,0.0,0.0,0.0,0.0,0.0,0.0,0.0,0.0,0.0,0.0,0.0,0.0,0.0,0.0,0.0,0.0,0.0,0.0,0.0,0.0,0.0,0.0,0.0,0.0,0.0,0.0,0.0,0.0,0.0,0.0,0.0,0.0,0.0,0.0,0.0,0.0,0.0,0.0,0.0,0.0,0.0,0.0,0.0,0.0,0.0,0.0,0.0,0.0,0.0,0.0,0.0,0.0,0.0,0.0,0.0,0.0,0.0,0.0,0.0,0.0,0.0,0.0,0.0,0.0,0.0,0.0,0.0,0.0,0.0,0.0,0.0,0.0,0.0,0.0,0.0,0.0,0.0,0.0,0.0,0.0,0.0,0.0,0.0,0.0,0.0,0.0,0.0,0.0,0.0,0.0,0.0,0.0,0.0,0.0,0.0,0.0,0.0,0.0,0.0,0.0,0.0,0.0,0.0,0.0,0.0,0.0,0.0,0.0,0.0,0.0,0.0,0.0,0.0,0.0,0.0,0.0,0.0,0.0,0.0,0.0,0.0,0.0,0.0,0.0,0.0,0.0,0.0,0.0,0.0,0.0,0.0,0.0,0.0,0.0,0.0,0.0,0.0,0.0,0.0,0.0,0.0,0.0,0.0,0.0,0.0,0.0,0.0,0.0,0.0,0.0,0.0,0.0,0.0,0.0,0.0,0.0,0.0,0.0,0.0,0.0,0.0,0.0,0.0,0.0,0.0,0.0,0.0,0.0,0.0,0.0,0.0,0.0,0.0,0.0,0.0,0.0,0.0,0.0,0.0,0.0,0.0,0.0,0.0,0.0,0.0,0.0,0.0,0.0,0.0,0.0,0.0,0.0,0.0,0.0,0.0,0.0,0.0,0.0,0.0,0.0,0.0,0.0,0.0,0.0,0.0,0.0,0.0,0.0,0.0,0.0,0.0,0.0,0.0,0.0,0.0,0.0,0.0,0.0,0.0,0.0,0.0,0.0,0.0,0.0,0.0,0.0,0.0,0.0,0.0,0.0,0.0,0.0,0.0,0.0,0.0,0.0,0.0,0.0,0.0,0.0,0.0,0.0,0.0,0.0,0.0,0.0,0.0,0.0,0.0,0.0,0.0,0.0,0.0,0.0,0.0,0.0,0.0,0.0,0.0,0.0,0.0,0.0,0.0,0.0,0.0,0.0,0.0,0.0,0.0,0.0,0.0,0.0,0.0,0.0,0.0,0.0,0.0,0.0,0.0,0.0,0.0,0.0,0.0,0.0,0.0,0.0,0.0,0.0,0.0,0.0,0.0,0.0,0.0,0.0,0.0,0.0,0.0,0.0,0.0,0.0,0.0,0.0,0.0,0.0,0.0,0.0,0.0,0.0,0.0,0.0,0.0,0.0,0.0,0.0,0.0,0.0,0.0,0.0,0.0,0.0,0.0,0.0,0.0,0.0,0.0,0.0,0.0,0.0,0.0,0.0,0.0,0.0,0.0,0.0,0.0,0.0,0.0,0.0,0.0,0.0,0.0,0.0,0.0,0.0,0.0,0.0,0.0,0.0,0.0,0.0,0.0,0.0,0.0,0.0,0.0,0.0,0.0,0.0,0.0,0.0,0.0,0.0,0.0,0.0,0.0,0.0,0.0,0.0,0.0,0.0,0.0,0.0,0.0,0.0,0.0,0.0,0.0,0.0,0.0,0.0,0.0,0.0,0.0,0.0,0.0,0.0,0.0,0.0,0.0,0.0,0.0,0.0,0.0,0.0,0.0,0.0,0.0,0.0,0.0,0.0,0.0,0.0,0.0,0.0,0.0,0.0,0.0,0.0,0.0,0.0,0.0,0.0,0.0,0.0,0.0,0.0,0.0,0.0,0.0,0.0,0.0,0.0,0.0,0.0,0.0,0.0,0.0,0.0,0.0,0.0,0.0,0.0,0.0,0.0,0.0,0.0,0.0,0.0,0.0,0.0,0.0,0.0,0.0,0.0,0.0,0.0,0.0,0.0,0.0,0.0,0.0,0.0,0.0,0.0,0.0,0.0,0.0,0.0,0.0,0.0,0.0,0.0,0.0,0.0,0.0,0.0,0.0,0.0,0.0,0.0,0.0,0.0,0.0,0.0,0.0,0.0,0.0,0.0,0.0,0.0,0.0,0.0,0.0,0.0,0.0,0.0,0.0,0.0,0.0,0.0,0.0,0.0,0.0,0.0,0.0,0.0,0.0,0.0,0.0,0.0,0.0,0.0,0.0,0.0,0.0,0.0,0.0,0.0,0.0,0.0,0.0,0.0,0.0,0.0,0.0,0.0,0.0,0.0,0.0,0.0,0.0,0.0,0.0,0.0,0.0,0.0,0.0,0.0,0.0,0.0,0.0,0.0,0.0,0.0,0.0,0.0,0.0,0.0,0.0,0.0,0.0,0.0,0.0,0.0,0.0,0.0,0.0,0.0,0.0,0.0,0.0,0.0,0.0,0.0,0.0,0.0,0.0,0.0,0.0,0.0,0.0,0.0,0.0,0.0,0.0,0.0,0.0,0.0,0.0,0.0,0.0,0.0,0.0,0.0,0.0,0.0,0.0,0.0,0.0,0.0,0.0,0.0,0.0,0.0,0.0,0.0,0.0,0.0,0.0,0.0,0.0,0.0,0.0,0.0,0.0,0.0,0.0,0.0,0.0,0.0,0.0,0.0,0.0,0.0,0.0,0.0,0.0,0.0,0.0,0.0,0.0,0.0,0.0,0.0,0.0,0.0,0.0,0.0,0.0,0.0,0.0,0.0,0.0,0.0,0.0,0.0,0.0,0.0,0.0,0.0,0.0,0.0,0.0,0.0,0.0,0.0,0.0,0.0,0.0,0.0,0.0,0.0,0.0,0.0,0.0,0.0,0.0,0.0,0.0,0.0,0.0,0.0,0.0,0.0,0.0,0.0,0.0,0.0,0.0,0.0,0.0,0.0,0.0,0.0,0.0,0.0,0.0,0.0,0.0,0.0,0.0,0.0,0.0,0.0,0.0,0.0,0.0,0.0,0.0,0.0,0.0,0.0,0.0,0.0,0.0,0.0,0.0,0.0,0.0,0.0,0.0,0.0,0.0,0.0,0.0,0.0,0.0,0.0,0.0,0.0,0.0,0.0,0.0,0.0,0.0,0.0,0.0,0.0,0.0,0.0,0.0,0.0,0.0,0.0,0.0,0.0,0.0,0.0,0.0,0.0,0.0,0.0,0.0,0.0,0.0,0.0,0.0,0.0,0.0,0.0,0.0,0.0,0.0,0.0,0.0,0.0,0.0,0.0,0.0,0.0,0.0,0.0,0.0,0.0,0.0,0.0,0.0,0.0,0.0,0.0,0.0,0.0,0.0,0.0,0.0,0.0,0.0,0.0,0.0,0.0,0.0,0.0,0.0,0.0,0.0,0.0,0.0,0.0,0.0,0.0,0.0,0.0,0.0,0.0,0.0,0.0,0.0,0.0,0.0,0.0,0.0,0.0,0.0,0.0,0.0,0.0,0.3994,0.4138,0.4464,0.4491,0.4491,0.4491,0.0,0.0,0.0,0.0,0.0,0.3907,0.39,0.3866,0.3792,0.3792,0.3829,0.39,0.3508,0.3005,0.2414,0.0,0.0,0.0,0.0,0.0,0.0,0.0,0.0,0.0,0.0,0.0,0.0,0.0,0.0,0.0,0.0,0.0,0.0,0.0,0.0,0.0,0.0,0.0,0.0,0.0,0.0,0.0,0.0,0.0,0.0,0.0,0.0,0.0,0.0,0.0,0.0,0.0,0.0,0.0,0.0,0.0,0.0,0.0,0.0,0.0,0.0,0.0,0.0,0.0,0.0,0.0,0.0,0.0,0.0,0.0,0.0,0.0,0.0,0.0,0.0,0.0,0.0,0.0,0.0,0.0,0.0,0.0,0.0,0.0,0.0,0.0,0.0,0.0,0.0,0.0,0.0,0.0,0.0,0.0,0.0,0.0,0.0,0.0,0.0,0.0,0.0,0.0,0.0,0.0,0.0,0.0,0.0,0.0,0.3663,0.396,0.3994,0.4138,0.4464,0.4491,0.4491,0.4491,0.4491,0.0,0.0,0.0,0.419,0.4038,0.4035,0.4021,0.3994,0.4021,0.4035,0.4035,0.4058,0.3815,0.3354,0.3285,0.0,0.0,0.0,0.0,0.0,0.0,0.0,0.0,0.0,0.0,0.0,0.0,0.0,0.0,0.0,0.0,0.0,0.0,0.0,0.0,0.0,0.0,0.0,0.0,0.0,0.0,0.0,0.0,0.0,0.0,0.0,0.0,0.0,0.0,0.0,0.0,0.0,0.0,0.0,0.0,0.0,0.0,0.0,0.0,0.0,0.0,0.0,0.0,0.0,0.0,0.0,0.0,0.0,0.0,0.0,0.0,0.0,0.0,0.0,0.0,0.0,0.0,0.0,0.0,0.0,0.0,0.0,0.0,0.0,0.0,0.0,0.0,0.0,0.0,0.0,0.0,0.0,0.0,0.0,0.0,0.0,0.0,0.0,0.0,0.0,0.0,0.0,0.0,0.0,0.0,0.0,0.0,0.35,0.3947,0.3994,0.4138,0.4464,0.4491,0.4491,0.4491,0.4491,0.0,0.0,0.446,0.4365,0.417,0.4167,0.4129,0.3994,0.4129,0.4167,0.4167,0.4345,0.4406,0.4311,0.4006,0.3832,0.3683,0.0,0.0,0.0,0.0,0.0,0.0,0.0,0.0,0.0,0.0,0.0,0.0,0.0,0.0,0.0,0.0,0.0,0.0,0.0,0.0,0.0,0.0,0.0,0.0,0.0,0.0,0.0,0.0,0.0,0.0,0.0,0.0,0.0,0.0,0.0,0.0,0.0,0.0,0.0,0.0,0.0,0.4589,0.4505,0.0,0.0,0.0,0.0,0.0,0.0,0.0,0.0,0.0,0.0,0.0,0.0,0.0,0.1002,0.0167,0.0072,0.0,0.0,0.0,0.0,0.0,0.0,0.0,0.0,0.0,0.0,0.0,0.0,0.0,0.0,0.0,0.0,0.0,0.0,0.0,0.0,0.0,0.0,0.0,0.0,0.0,0.0,0.0,0.0,0.0,0.0,0.0,0.0,0.0,0.4072,0.4206,0.447,0.4491,0.4491,0.4491,0.4491,0.4491,0.4491,0.4491,0.446,0.4368,0.4368,0.4334,0.427,0.4334,0.4368,0.4368,0.446,0.4491,0.4484,0.4354,0.4222,0.4068,0.3408,0.0,0.0,0.0,0.0,0.0,0.0,0.0,0.0,0.0,0.0,0.0,0.0,0.0,0.0,0.0,0.0,0.0,0.0,0.0,0.0,0.0,0.0,0.0,0.0,0.0,0.0,0.0,0.0,0.0,0.0,0.0,0.0,0.0,0.0,0.0,0.0,0.0,0.0,0.0,0.4568,0.4667,0.4627,0.465,0.4658,0.0,0.0,0.0,0.0,0.0,0.0,0.0,0.0,0.0,0.3753,0.2405,0.1737,0.1723,0.059,0.0,0.0,0.0,0.0,0.0,0.0,0.0,0.0,0.0,0.0,0.0,0.0,0.0,0.0,0.0,0.0,0.0,0.0,0.0,0.0,0.0,0.0,0.0,0.0,0.0,0.0,0.0,0.0,0.0,0.0,0.0,0.0,0.4031,0.4127,0.4277,0.4477,0.4491,0.4491,0.4491,0.4491,0.457,0.4759,0.4759,0.4759,0.4759,0.4598,0.4491,0.4491,0.4491,0.4491,0.4491,0.4491,0.4491,0.4491,0.4491,0.4429,0.4247,0.3749,0.3417,0.0,0.0,0.0,0.0,0.0,0.0,0.0,0.0,0.0,0.0,0.0,0.0,0.0,0.0,0.0,0.0,0.0,0.0,0.0,0.0,0.0,0.0,0.0,0.0,0.0,0.0,0.0,0.0,0.0,0.0,0.0,0.0,0.0,0.0,0.0,0.0,0.0,0.0,0.4755,0.4775,0.4701,0.4826,0.483,0.0,0.0,0.0,0.0,0.0,0.0,0.4645,0.4871,0.4798,0.4289,0.2922,0.2251,0.2288,0.0755,0.0,0.0,0.0,0.0,0.0,0.0,0.0,0.0,0.0,0.0,0.0,0.0,0.0,0.0,0.0,0.0,0.0,0.0,0.0,0.0,0.0,0.0,0.0,0.0,0.0,0.0,0.0,0.0,0.0,0.0,0.0,0.3907,0.4153,0.419,0.4277,0.4477,0.4491,0.4491,0.4491,0.4491,0.4787,0.5433,0.546,0.546,0.546,0.4814,0.4491,0.4491,0.4491,0.4491,0.4491,0.4491,0.4491,0.4491,0.4491,0.4487,0.447,0.4251,0.4161,0.4079,0.0,0.0,0.0,0.0,0.0,0.0,0.0,0.0,0.0,0.0,0.0,0.0,0.0,0.0,0.0,0.0,0.0,0.0,0.0,0.0,0.0,0.0,0.0,0.0,0.0,0.0,0.0,0.0,0.0,0.0,0.0,0.0,0.0,0.0,0.0,0.0,0.0,0.0,0.0,0.4724,0.5196,0.0,0.0,0.0,0.0,0.5371,0.5606,0.5733,0.5708,0.6155,0.5422,0.3259,0.3256,0.23,0.0168,0.0043,0.0,0.0,0.0,0.0,0.0,0.0,0.0,0.0,0.0,0.0,0.0,0.0,0.0,0.0,0.0,0.0,0.0,0.0,0.0,0.0,0.0,0.0,0.0,0.0,0.0,0.3604,0.3604,0.3604,0.3655,0.3771,0.3877,0.3994,0.4174,0.4304,0.4433,0.4484,0.4491,0.4491,0.4491,0.4893,0.5242,0.5487,0.5955,0.5982,0.5515,0.4842,0.4491,0.4491,0.4491,0.4491,0.4491,0.4491,0.4491,0.4491,0.4491,0.4491,0.4487,0.4433,0.4304,0.419,0.39,0.3846,0.0,0.0,0.0,0.0,0.0,0.0,0.0,0.0,0.0,0.0,0.0,0.0,0.0,0.0,0.0,0.0,0.0,0.0,0.0,0.0,0.0,0.0,0.0,0.0,0.0,0.0,0.0,0.0,0.0,0.0,0.0,0.0,0.0,0.0,0.0,0.0,0.0,0.527,0.546,0.0,0.5365,0.5528,0.576,0.5962,0.5433,0.514,0.5221,0.4717,0.4099,0.3298,0.2679,0.1968,0.1183,0.0398,0.0,0.0,0.0,0.0,0.0,0.0,0.0,0.0,0.0,0.0,0.0,0.0,0.0,0.0,0.0,0.0,0.0,0.0,0.0,0.0,0.0,0.0,0.0,0.0,0.3604,0.3604,0.3604,0.3645,0.3726,0.3849,0.3977,0.4129,0.4277,0.4433,0.4491,0.4491,0.4491,0.4491,0.4491,0.5136,0.5515,0.5515,0.5977,0.6009,0.5515,0.4842,0.4491,0.4491,0.4491,0.4491,0.4491,0.4542,0.4566,0.4569,0.4624,0.4644,0.4641,0.459,0.4453,0.4294,0.4294,0.4206,0.4062,0.0,0.0,0.0,0.0,0.0,0.0,0.0,0.0,0.0,0.0,0.0,0.0,0.0,0.0,0.0,0.0,0.0,0.0,0.0,0.0,0.0,0.0,0.0,0.0,0.0,0.0,0.0,0.0,0.0,0.0,0.0,0.0,0.0,0.0,0.5382,0.5583,0.565,0.5796,0.5867,0.5856,0.5993,0.619,0.6433,0.5436,0.4877,0.495,0.3976,0.3238,0.289,0.2191,0.1623,0.121,0.0407,0.0,0.0,0.0,0.0,0.0,0.0,0.0,0.0,0.0,0.0,0.0,0.0,0.0,0.0,0.0,0.0,0.0,0.0,0.0,0.0,0.0,0.0,0.0,0.3604,0.3604,0.3604,0.3604,0.3723,0.3846,0.3974,0.4129,0.4277,0.4474,0.4491,0.4491,0.4491,0.4491,0.4491,0.4491,0.5136,0.5515,0.5538,0.5515,0.5515,0.5515,0.4846,0.4498,0.4498,0.4501,0.4505,0.4508,0.4658,0.4697,0.4704,0.4853,0.4887,0.4877,0.4762,0.4638,0.4498,0.4491,0.4379,0.4204,0.0,0.0,0.0,0.0,0.0,0.0,0.0,0.0,0.0,0.0,0.0,0.0,0.0,0.0,0.0,0.0,0.0,0.0,0.0,0.0,0.0,0.0,0.0,0.0,0.0,0.0,0.0,0.0,0.0,0.0,0.0,0.0,0.0,0.5405,0.563,0.5817,0.5823,0.621,0.6467,0.6334,0.6539,0.6709,0.6715,0.5729,0.5104,0.5061,0.4106,0.2995,0.1792,0.1738,0.1191,0.0,0.0,0.0,0.0,0.0,0.0,0.0,0.0,0.0,0.0,0.0,0.0,0.0,0.0,0.0,0.0,0.0,0.0,0.0,0.0,0.0,0.0,0.0,0.0,0.3604,0.3604,0.3604,0.3604,0.3604,0.3723,0.3846,0.3974,0.4129,0.4277,0.4474,0.4491,0.4491,0.4491,0.4491,0.4491,0.4491,0.5136,0.5733,0.6285,0.5787,0.5515,0.5515,0.4932,0.4655,0.4655,0.4741,0.4796,0.4796,0.4836,0.4857,0.4857,0.487,0.4887,0.4884,0.4874,0.4769,0.4648,0.4535,0.4467,0.4429,0.0,0.0,0.0,0.0,0.0,0.0,0.0,0.0,0.0,0.0,0.0,0.0,0.0,0.0,0.0,0.0,0.0,0.0,0.0,0.0,0.0,0.0,0.0,0.0,0.0,0.0,0.0,0.0,0.0,0.0,0.0,0.5328,0.5562,0.5667,0.5979,0.6211,0.6317,0.6495,0.6664,0.6739,0.6817,0.6866,0.6967,0.5955,0.4956,0.4068,0.2936,0.1739,0.055,0.0514,0.033,0.0,0.0,0.0,0.0,0.0,0.0,0.0,0.0,0.0,0.0,0.0,0.0,0.0,0.0,0.0,0.0,0.0,0.0,0.0,0.0,0.0,0.0,0.0,0.3412,0.3604,0.3604,0.3604,0.3604,0.3604,0.3754,0.3921,0.3984,0.418,0.4368,0.4481,0.4491,0.4491,0.4491,0.4491,0.4491,0.4491,0.4869,0.541,0.6118,0.5512,0.5166,0.5166,0.4908,0.4785,0.4785,0.4874,0.4887,0.4891,0.4948,0.4975,0.4978,0.5074,0.5104,0.5101,0.5036,0.4924,0.486,0.4714,0.4604,0.4491,0.4491,0.4491,0.4481,0.4368,0.4338,0.4324,0.4236,0.0,0.0,0.0,0.0,0.0,0.0,0.0,0.0,0.0,0.0,0.0,0.0,0.0,0.0,0.0,0.0,0.0,0.0,0.0,0.0,0.0,0.0,0.0,0.0,0.5671,0.5955,0.6064,0.6276,0.6467,0.6637,0.6742,0.6854,0.696,0.6974,0.7034,0.7224,0.6152,0.5222,0.4576,0.283,0.1544,0.0842,0.0287,0.0,0.0,0.0,0.0,0.0,0.0,0.0,0.0,0.0,0.0,0.0,0.0,0.0,0.0,0.0,0.0,0.0,0.0,0.0,0.0,0.0,0.0,0.0,0.0,0.3451,0.3604,0.3604,0.3604,0.3604,0.3604,0.3829,0.3994,0.3994,0.4303,0.4491,0.4491,0.4491,0.4491,0.4491,0.4491,0.4491,0.4491,0.4491,0.4759,0.5351,0.4944,0.4691,0.4691,0.4857,0.4914,0.4914,0.4958,0.4969,0.4972,0.5066,0.5123,0.513,0.533,0.5395,0.5385,0.5213,0.5113,0.509,0.4961,0.4762,0.4515,0.4515,0.4505,0.4491,0.4491,0.4491,0.4491,0.4491,0.0,0.0,0.0,0.0,0.0,0.0,0.0,0.0,0.0,0.0,0.0,0.0,0.0,0.0,0.0,0.0,0.0,0.0,0.0,0.0,0.0,0.0,0.0,0.0,0.6108,0.6361,0.6538,0.6562,0.6624,0.6856,0.69,0.696,0.7085,0.7112,0.7224,0.7405,0.6416,0.5822,0.5779,0.3664,0.0,0.0,0.0,0.0146,0.0,0.0,0.0,0.0,0.0,0.0,0.0,0.0,0.0,0.0,0.0,0.0,0.0,0.0,0.0,0.0,0.0,0.0,0.0,0.0,0.0,0.0,0.0,0.3451,0.3604,0.3604,0.3604,0.3604,0.3604,0.3829,0.3994,0.3994,0.4303,0.4491,0.4491,0.4491,0.4491,0.4491,0.4491,0.4491,0.4491,0.0,0.457,0.4677,0.4691,0.4691,0.4691,0.4921,0.5059,0.5059,0.5213,0.531,0.531,0.5337,0.5351,0.5351,0.5382,0.5395,0.5392,0.5361,0.5243,0.5096,0.5069,0.4911,0.4646,0.4646,0.4597,0.4491,0.4491,0.4491,0.4491,0.4491,0.447,0.445,0.445,0.4426,0.0,0.0,0.0,0.0,0.0,0.0,0.0,0.0,0.0,0.0,0.0,0.0,0.0,0.0,0.0,0.0,0.0,0.0,0.0,0.5902,0.6139,0.6436,0.6787,0.6841,0.6861,0.6879,0.6987,0.7065,0.7092,0.7255,0.7339,0.7415,0.73,0.6807,0.5832,0.5343,0.4128,0.2043,0.1736,0.1101,0.0,0.0,0.0,0.0,0.0,0.0,0.0,0.0,0.0,0.0,0.0,0.0,0.0,0.0,0.0,0.0,0.0,0.0,0.0,0.0,0.0,0.0,0.3441,0.3527,0.3604,0.3604,0.3604,0.3604,0.3604,0.3829,0.3994,0.3994,0.4303,0.4491,0.4491,0.4491,0.4625,0.4976,0.5003,0.5003,0.0,0.4677,0.4525,0.46,0.4724,0.484,0.4908,0.5131,0.5247,0.5247,0.5358,0.5395,0.5395,0.5395,0.5395,0.5395,0.5395,0.5395,0.5395,0.5395,0.5351,0.5247,0.5247,0.5111,0.4904,0.483,0.4758,0.4691,0.4691,0.4672,0.4604,0.4604,0.4552,0.4491,0.4491,0.4491,0.4491,0.0,0.0,0.0,0.0,0.0,0.0,0.0,0.0,0.0,0.0,0.0,0.0,0.0,0.0,0.5382,0.5454,0.0,0.5996,0.6217,0.6444,0.6675,0.6856,0.6947,0.6991,0.6991,0.7055,0.7125,0.7248,0.7326,0.748,0.758,0.7662,0.7446,0.693,0.6257,0.53,0.4063,0.335,0.2363,0.1008,0.0999,0.0646,0.0,0.0,0.0,0.0,0.0,0.0,0.0,0.0,0.0,0.0,0.0,0.0,0.0,0.0,0.0,0.0,0.0,0.0,0.0,0.3576,0.3604,0.3604,0.3604,0.3604,0.3604,0.3604,0.3829,0.3994,0.3994,0.4303,0.4491,0.4491,0.4491,0.4759,0.5433,0.5378,0.0,0.0,0.4899,0.459,0.4684,0.4863,0.4982,0.5096,0.5281,0.5395,0.5395,0.5395,0.5395,0.5395,0.5395,0.5395,0.5395,0.5395,0.5395,0.5395,0.5395,0.5395,0.5395,0.5395,0.5287,0.513,0.5047,0.4969,0.4887,0.4887,0.4819,0.4691,0.4691,0.4617,0.4491,0.4491,0.4491,0.4491,0.4491,0.4491,0.0,0.0,0.0,0.0,0.0,0.0,0.0,0.0,0.5106,0.5194,0.5224,0.5481,0.5708,0.5823,0.6095,0.6388,0.6532,0.6749,0.6896,0.6923,0.7024,0.7095,0.7095,0.7122,0.7234,0.7405,0.7467,0.7556,0.7794,0.7838,0.7909,0.7982,0.6983,0.6279,0.6029,0.497,0.3767,0.2413,0.2413,0.1711,0.0404,0.0397,0.0246,0.0,0.0,0.0,0.0,0.0,0.0,0.0,0.0,0.0,0.0,0.0,0.0,0.0,0.0,0.0,0.0,0.0,0.3604,0.3604,0.3604,0.3604,0.3604,0.3604,0.3829,0.3994,0.3994,0.4303,0.4491,0.4491,0.4491,0.4759,0.5433,0.4948,0.0,0.546,0.4978,0.4674,0.4691,0.4958,0.5083,0.51,0.5281,0.5395,0.5395,0.5395,0.5395,0.5395,0.5395,0.5395,0.5395,0.5395,0.5395,0.5395,0.5395,0.5395,0.5395,0.5395,0.5385,0.5365,0.5351,0.5148,0.4887,0.4887,0.4819,0.4691,0.4691,0.4617,0.4491,0.4491,0.4491,0.4491,0.4491,0.4491,0.4518,0.4655,0.4775,0.4867,0.4884,0.4982,0.5147,0.0,0.5525,0.5572,0.5701,0.5864,0.5949,0.5963,0.6247,0.6538,0.6651,0.6817,0.693,0.7055,0.7085,0.7095,0.7095,0.7261,0.7398,0.7415,0.7607,0.7777,0.7811,0.7887,0.7971,0.7988,0.7839,0.7235,0.6029,0.5879,0.5122,0.3765,0.3765,0.3115,0.1762,0.1758,0.1145,0.0,0.0,0.0,0.0,0.0,0.0,0.0,0.0,0.0,0.0,0.0,0.0,0.0,0.0,0.0,0.0,0.0,0.3604,0.3604,0.3604,0.3672,0.3726,0.3726,0.3933,0.4129,0.4129,0.4331,0.4491,0.4491,0.4842,0.5355,0.6064,0.5492,0.5382,0.6091,0.5223,0.4731,0.4819,0.4988,0.514,0.5264,0.5361,0.5395,0.5395,0.5395,0.5395,0.5395,0.5395,0.5395,0.5395,0.5395,0.5395,0.5395,0.5395,0.5395,0.5395,0.5395,0.5395,0.5395,0.5395,0.523,0.5012,0.5012,0.4918,0.0,0.4721,0.4617,0.4491,0.4491,0.4491,0.457,0.4976,0.4856,0.4675,0.4884,0.4904,0.4951,0.5243,0.5352,0.5454,0.5664,0.5783,0.5864,0.5922,0.6057,0.619,0.6271,0.6461,0.6654,0.6807,0.6913,0.7028,0.7088,0.7095,0.7095,0.7095,0.7356,0.7506,0.7506,0.7614,0.776,0.788,0.7955,0.7988,0.7988,0.7988,0.7739,0.7185,0.7182,0.6528,0.5172,0.5172,0.447,0.3165,0.3165,0.2453,0.1146,0.1146,0.074,0.0,0.0,0.0,0.0,0.0,0.0,0.0,0.0,0.0,0.0,0.0,0.0,0.0,0.0,0.3604,0.3604,0.3604,0.372,0.3778,0.3737,0.3964,0.4133,0.4133,0.4348,0.4491,0.4491,0.4921,0.5519,0.6231,0.5628,0.5519,0.6258,0.5327,0.4802,0.4884,0.5094,0.5247,0.5392,0.5395,0.5395,0.5395,0.5395,0.5395,0.5395,0.5395,0.5395,0.5395,0.5395,0.5395,0.5395,0.5395,0.5395,0.5395,0.5395,0.5395,0.5395,0.5395,0.5267,0.51,0.51,0.4982,0.484,0.4728,0.4617,0.4543,0.4704,0.4787,0.4932,0.5716,0.5567,0.5146,0.5054,0.5056,0.5172,0.5457,0.562,0.5739,0.584,0.5983,0.6095,0.6095,0.6183,0.6344,0.6484,0.6597,0.6753,0.6862,0.7004,0.7095,0.7095,0.7095,0.7095,0.7095,0.7336,0.7506,0.759,0.7675,0.7807,0.7975,0.7988,0.7988,0.7988,0.7988,0.7988,0.7988,0.7988,0.7537,0.6581,0.6531,0.5877,0.4568,0.4568,0.3867,0.2514,0.2163,0.1247,0.0,0.0,0.0,0.0,0.0,0.0,0.0,0.0,0.0,0.0,0.0,0.0,0.0,0.0,0.0,0.3604,0.3604,0.372,0.3744,0.3631,0.3836,0.4001,0.4001,0.428,0.4491,0.4491,0.4515,0.4814,0.5487,0.4924,0.4814,0.5487,0.5148,0.4884,0.4887,0.5231,0.5388,0.5395,0.5395,0.5395,0.5395,0.5395,0.5395,0.5395,0.5395,0.5395,0.5395,0.5395,0.5395,0.5395,0.5395,0.5395,0.5395,0.5395,0.5395,0.5395,0.5395,0.5267,0.51,0.51,0.4945,0.4697,0.4694,0.4617,0.4625,0.5273,0.546,0.569,0.6727,0.6705,0.615,0.5173,0.524,0.5538,0.5436,0.5694,0.5979,0.5983,0.6142,0.6293,0.6293,0.6296,0.6344,0.6484,0.6597,0.6753,0.6862,0.7004,0.7095,0.7095,0.7095,0.7095,0.7095,0.7105,0.7227,0.757,0.7858,0.7982,0.7988,0.7988,0.7988,0.7988,0.7988,0.7988,0.7988,0.7988,0.7988,0.7939,0.7939,0.7285,0.5929,0.5929,0.5222,0.3915,0.2614,0.1247,0.0,0.0,0.0,0.0,0.0,0.0,0.0,0.0,0.0,0.0,0.0,0.0,0.0,0.0,0.0,0.0,0.3853,0.391,0.3927,0.388,0.4018,0.4146,0.4146,0.4341,0.0,0.0,0.0,0.0,0.0,0.4893,0.4787,0.546,0.5048,0.4813,0.4884,0.5104,0.5257,0.5392,0.5395,0.5395,0.5395,0.5395,0.5395,0.5395,0.5498,0.5545,0.5552,0.561,0.5599,0.5545,0.5545,0.5545,0.5539,0.5436,0.5457,0.5535,0.5433,0.5206,0.4958,0.0,0.486,0.4674,0.46,0.4831,0.5191,0.5433,0.5842,0.6243,0.6334,0.6542,0.6529,0.5622,0.5399,0.5532,0.5742,0.5882,0.602,0.6159,0.6262,0.63,0.63,0.63,0.6344,0.6484,0.6597,0.6753,0.6862,0.7004,0.7095,0.7095,0.7227,0.7255,0.7109,0.7358,0.759,0.7597,0.7689,0.7828,0.7975,0.7988,0.7988,0.7988,0.7988,0.7988,0.7988,0.7988,0.7988,0.7988,0.7988,0.7786,0.7335,0.6431,0.5777,0.5272,0.3016,0.1756,0.1296,0.0392,0.0,0.0,0.0,0.0,0.0,0.0,0.0,0.0,0.0,0.0,0.0,0.0,0.0,0.0,0.0,0.0,0.0,0.0,0.0,0.0,0.0,0.0,0.0,0.0,0.0,0.0,0.0,0.0,0.468,0.5113,0.4855,0.4735,0.4833,0.4945,0.5227,0.5613,0.5613,0.5643,0.5697,0.5697,0.5596,0.5395,0.5494,0.5542,0.5545,0.5603,0.5593,0.5542,0.5542,0.5542,0.5535,0.5436,0.5453,0.5525,0.5338,0.5128,0.0,0.4857,0.4741,0.4624,0.4525,0.4948,0.5578,0.5954,0.6692,0.7292,0.6763,0.6757,0.6715,0.5884,0.5633,0.5671,0.5922,0.6071,0.6139,0.6276,0.63,0.63,0.63,0.63,0.6344,0.6484,0.6552,0.6685,0.6852,0.7004,0.7115,0.7214,0.7356,0.7417,0.727,0.756,0.7719,0.7678,0.7675,0.7777,0.7971,0.7988,0.7988,0.7988,0.7988,0.7988,0.7988,0.7988,0.7988,0.7988,0.7988,0.7988,0.7988,0.7135,0.6481,0.5929,0.4219,0.3167,0.2662,0.1826,0.1405,0.133,0.0885,0.0685,0.0583,0.018,0.0,0.0,0.0,0.0,0.0,0.0,0.0,0.0,0.0,0.0,0.0,0.0,0.0,0.0,0.0,0.0,0.0,0.0,0.0,0.0,0.0,0.0,0.0,0.4491,0.4627,0.0,0.4691,0.483,0.5211,0.5932,0.5936,0.601,0.6174,0.6143,0.5894,0.5448,0.5422,0.5399,0.5405,0.5416,0.5416,0.5405,0.5399,0.5395,0.5392,0.5378,0.5378,0.5365,0.5179,0.0,0.0,0.4745,0.4621,0.4491,0.4498,0.4967,0.5711,0.6766,0.7852,0.857,0.7847,0.7303,0.6743,0.6015,0.5918,0.5993,0.6003,0.6152,0.63,0.63,0.6293,0.6286,0.6286,0.6282,0.6317,0.6453,0.6497,0.6566,0.6858,0.6994,0.7149,0.735,0.7502,0.76,0.76,0.7614,0.7672,0.7797,0.7818,0.7882,0.7978,0.7988,0.7988,0.7988,0.7988,0.7988,0.7988,0.7988,0.7988,0.7988,0.7988,0.7988,0.7988,0.7988,0.7335,0.6079,0.6029,0.5322,0.4112,0.4044,0.3923,0.3703,0.2562,0.201,0.1793,0.0584,0.009,0.009,0.0045,0.0,0.0,0.0,0.0,0.0,0.0,0.0,0.0,0.0,0.0,0.0,0.0,0.0,0.0,0.0,0.0,0.0,0.0,0.0,0.0,0.4491,0.0,0.0,0.0,0.4728,0.4888,0.5184,0.5188,0.5476,0.6059,0.5487,0.5507,0.5982,0.5599,0.5457,0.5569,0.5644,0.563,0.5559,0.5443,0.5395,0.5375,0.0,0.5094,0.5172,0.0,0.0,0.0,0.4704,0.4621,0.4508,0.4624,0.5194,0.6028,0.6948,0.745,0.7583,0.7109,0.6873,0.6637,0.608,0.5963,0.602,0.6173,0.6272,0.63,0.63,0.6173,0.6088,0.6088,0.5996,0.5928,0.5966,0.6247,0.6538,0.6576,0.6898,0.7149,0.735,0.7502,0.76,0.76,0.7794,0.7847,0.7818,0.7867,0.7948,0.7985,0.7988,0.7988,0.7988,0.7988,0.7988,0.7988,0.7988,0.7988,0.7988,0.7988,0.7988,0.7988,0.7988,0.7839,0.7434,0.6481,0.5827,0.5422,0.4447,0.3998,0.3924,0.3515,0.3306,0.315,0.1846,0.1344,0.121,0.0314,0.0,0.0,0.0,0.0,0.0,0.0,0.0,0.0,0.0,0.0,0.0,0.0,0.0,0.0,0.0,0.0,0.0,0.0,0.0,0.0,0.0,0.4491,0.0,0.4614,0.4617,0.4773,0.5144,0.563,0.5872,0.5902,0.0,0.0,0.562,0.5315,0.5213,0.5298,0.5379,0.5369,0.5291,0.5203,0.0,0.0,0.0,0.0,0.0,0.0,0.0,0.468,0.4644,0.4651,0.4684,0.4833,0.5498,0.6433,0.7239,0.7367,0.7178,0.7028,0.6695,0.6367,0.6177,0.6132,0.6152,0.6279,0.63,0.6282,0.6176,0.6091,0.5973,0.5905,0.5861,0.58,0.58,0.6061,0.6318,0.6491,0.6797,0.7146,0.7431,0.76,0.7719,0.7784,0.7891,0.7958,0.787,0.7938,0.7988,0.7988,0.7988,0.7988,0.7988,0.7988,0.7988,0.7988,0.7988,0.7988,0.7988,0.7988,0.7988,0.7988,0.7988,0.7988,0.7988,0.7235,0.6883,0.683,0.6074,0.5713,0.5606,0.4973,0.4642,0.4414,0.2525,0.179,0.1657,0.0449,0.0,0.0,0.0,0.0,0.0,0.0,0.0,0.0,0.0,0.0,0.0,0.0,0.0,0.0,0.0,0.0,0.0,0.0,0.0,0.0,0.0,0.0,0.0,0.4491,0.4491,0.4759,0.5351,0.6267,0.6417,0.5763,0.6561,0.0,0.0,0.0,0.0,0.0,0.0,0.0,0.0,0.0,0.0,0.0,0.0,0.0,0.0,0.0,0.0,0.0,0.4539,0.4646,0.4884,0.5046,0.5754,0.6667,0.7286,0.7237,0.6973,0.7143,0.6645,0.6091,0.6262,0.63,0.63,0.63,0.6282,0.6196,0.6023,0.5946,0.5908,0.5796,0.5742,0.5718,0.5739,0.5898,0.6118,0.6439,0.6715,0.7085,0.7536,0.7706,0.7845,0.7968,0.7988,0.7988,0.7988,0.7988,0.7988,0.7988,0.7988,0.7988,0.7988,0.7988,0.7988,0.7988,0.7988,0.7988,0.7988,0.7988,0.7988,0.7988,0.7988,0.7988,0.7988,0.7988,0.7988,0.7988,0.7988,0.7914,0.7731,0.6572,0.5977,0.5634,0.3077,0.2063,0.1879,0.0494,0.0,0.0,0.0,0.0,0.0,0.0,0.0,0.0,0.0,0.0,0.0,0.0,0.4491,0.4491,0.0,0.0,0.0,0.0,0.0,0.0,0.0,0.0,0.0,0.0,0.4491,0.4543,0.468,0.4844,0.5159,0.5565,0.5159,0.522,0.0,0.0,0.0,0.0,0.0,0.0,0.0,0.0,0.0,0.0,0.0,0.0,0.0,0.0,0.0,0.0,0.4498,0.4607,0.4772,0.5009,0.5413,0.5862,0.6194,0.6239,0.624,0.6398,0.6371,0.6265,0.6293,0.63,0.63,0.63,0.6166,0.6027,0.5996,0.5742,0.5539,0.5606,0.5423,0.5287,0.5446,0.5762,0.6088,0.6306,0.6654,0.7085,0.7536,0.7621,0.7736,0.7958,0.7988,0.7988,0.7988,0.7988,0.7988,0.7988,0.7988,0.7988,0.7988,0.7988,0.7988,0.7988,0.7988,0.7988,0.7988,0.7988,0.7988,0.7988,0.7988,0.7988,0.7988,0.7988,0.7988,0.7988,0.7988,0.7975,0.7938,0.7589,0.7352,0.6976,0.4432,0.34,0.3037,0.0807,0.0,0.0,0.0,0.0,0.0,0.0,0.0,0.0,0.0,0.4491,0.4491,0.4491,0.4491,0.4491,0.4491,0.4491,0.4491,0.0,0.0,0.0,0.0,0.0,0.0,0.0,0.4491,0.4491,0.4491,0.5014,0.5178,0.4976,0.0,0.5221,0.5129,0.4766,0.4641,0.468,0.468,0.468,0.4677,0.4631,0.46,0.46,0.4607,0.461,0.0,0.0,0.0,0.0,0.0,0.4796,0.4942,0.5052,0.5335,0.564,0.5899,0.6084,0.6166,0.6279,0.63,0.63,0.63,0.63,0.63,0.63,0.6142,0.5973,0.5928,0.5627,0.5392,0.5352,0.5201,0.512,0.5226,0.5549,0.5874,0.6101,0.639,0.6793,0.7397,0.7482,0.7617,0.7944,0.7988,0.7988,0.7988,0.7988,0.7988,0.7988,0.7988,0.7988,0.7988,0.7988,0.7988,0.7988,0.7988,0.7988,0.7988,0.7988,0.7988,0.7988,0.7988,0.7988,0.7988,0.7988,0.7988,0.7988,0.7988,0.7988,0.7978,0.7875,0.777,0.7495,0.5501,0.4302,0.349,0.1619,0.0539,0.0,0.0,0.0,0.0,0.0,0.0,0.0,0.0,0.4491,0.4491,0.4491,0.4491,0.4491,0.4491,0.4491,0.4491,0.0,0.0,0.0,0.0,0.0,0.0,0.0,0.0,0.4491,0.4491,0.0,0.0,0.4539,0.5305,0.0,0.0,0.0,0.0,0.0,0.4491,0.4491,0.4491,0.4491,0.4491,0.0,0.0,0.4691,0.0,0.0,0.0,0.0,0.0,0.4938,0.5019,0.5113,0.5318,0.5549,0.5878,0.6088,0.6248,0.6248,0.6272,0.63,0.63,0.63,0.63,0.63,0.6118,0.5912,0.583,0.5525,0.524,0.5117,0.5073,0.5063,0.5093,0.5382,0.5688,0.5946,0.6186,0.6586,0.7227,0.7377,0.7563,0.7894,0.7971,0.7988,0.7988,0.7988,0.7988,0.7988,0.7988,0.7988,0.7988,0.7988,0.7988,0.7988,0.7988,0.7988,0.7988,0.7988,0.7988,0.7988,0.7988,0.7988,0.7988,0.7988,0.7988,0.7988,0.7988,0.7988,0.7982,0.7909,0.7841,0.7639,0.6205,0.5039,0.4043,0.2702,0.1567,0.0762,0.0,0.0,0.0,0.0,0.0,0.0,0.0,0.4491,0.4491,0.4491,0.4491,0.4491,0.4491,0.4491,0.4491,0.0,0.0,0.0,0.0,0.0,0.0,0.0,0.0,0.0,0.0,0.0,0.0,0.467,0.4657,0.0,0.0,0.0,0.0,0.0,0.0,0.4491,0.4491,0.4491,0.0,0.0,0.0,0.0,0.0,0.0,0.0,0.0,0.0,0.484,0.4792,0.5235,0.5264,0.5218,0.5684,0.5928,0.6013,0.6013,0.6149,0.63,0.63,0.63,0.63,0.63,0.604,0.582,0.5803,0.5365,0.4961,0.5076,0.4999,0.4945,0.5076,0.5382,0.5688,0.5946,0.6268,0.6617,0.7051,0.74,0.7641,0.7811,0.7907,0.7988,0.7988,0.7988,0.7988,0.7988,0.7988,0.7988,0.7988,0.7988,0.7988,0.7988,0.7988,0.7988,0.7988,0.7988,0.7988,0.7988,0.7988,0.7988,0.7988,0.7988,0.7988,0.7988,0.7988,0.7988,0.7988,0.7975,0.7887,0.7649,0.6295,0.5663,0.5286,0.3913,0.3349,0.326,0.0,0.0,0.0,0.0,0.0,0.0,0.4491,0.4491,0.4491,0.4491,0.4491,0.4491,0.4491,0.4491,0.4491,0.4491,0.0,0.0,0.0,0.0,0.0,0.0,0.0,0.0,0.0,0.0,0.4658,0.4691,0.4721,0.0,0.0,0.0,0.0,0.0,0.0,0.4491,0.4491,0.4491,0.0,0.0,0.0,0.0,0.0,0.0,0.0,0.0,0.0,0.0,0.5139,0.5192,0.5182,0.5113,0.524,0.5433,0.5681,0.5912,0.6074,0.6142,0.6276,0.63,0.63,0.63,0.6067,0.58,0.58,0.5345,0.4904,0.4961,0.4928,0.4908,0.4961,0.525,0.5583,0.5844,0.5993,0.6257,0.68,0.7061,0.7316,0.7645,0.7814,0.7887,0.7982,0.7988,0.7988,0.7988,0.7988,0.7988,0.7988,0.7988,0.7988,0.7988,0.7988,0.7988,0.7988,0.7988,0.7988,0.7988,0.7988,0.7988,0.7988,0.7988,0.7988,0.7988,0.7988,0.7988,0.7988,0.7988,0.7955,0.7874,0.7159,0.642,0.565,0.4926,0.4241,0.3614,0.0,0.0,0.0,0.0,0.0,0.4491,0.4491,0.4491,0.4491,0.4491,0.4491,0.4508,0.4552,0.4515,0.4508,0.4552,0.4515,0.0,0.0,0.0,0.0,0.0,0.0,0.0,0.0,0.0,0.4731,0.4819,0.4887,0.4911,0.0,0.0,0.4735,0.4684,0.0,0.0,0.0,0.0,0.0,0.0,0.0,0.0,0.0,0.0,0.0,0.0,0.0,0.0,0.0,0.0,0.0,0.5026,0.4968,0.5125,0.5365,0.5725,0.5888,0.6016,0.6162,0.6265,0.63,0.63,0.6067,0.58,0.58,0.5376,0.4951,0.4951,0.4951,0.4951,0.4951,0.5189,0.5477,0.5698,0.5813,0.6047,0.6563,0.6841,0.7082,0.7489,0.7658,0.7807,0.7907,0.7965,0.7988,0.7988,0.7988,0.7988,0.7988,0.7988,0.7988,0.7988,0.7988,0.7988,0.7988,0.7988,0.7988,0.7988,0.7988,0.7988,0.7988,0.7988,0.7988,0.7988,0.7988,0.7988,0.7988,0.7988,0.7988,0.7961,0.7712,0.7073,0.6277,0.6029,0.5354,0.4639,0.0,0.0,0.0,0.0,0.0,0.0,0.4491,0.4491,0.4491,0.4491,0.4491,0.4549,0.467,0.4583,0.4552,0.4674,0.458,0.0,0.0,0.0,0.0,0.0,0.0,0.0,0.0,0.0,0.4833,0.5093,0.4958,0.4961,0.5093,0.4951,0.4836,0.4691,0.0,0.0,0.0,0.0,0.0,0.0,0.0,0.0,0.0,0.0,0.0,0.0,0.0,0.0,0.0,0.0,0.0,0.0,0.0,0.51,0.5133,0.5354,0.5681,0.5993,0.5993,0.6142,0.63,0.63,0.6067,0.58,0.58,0.545,0.5096,0.5096,0.5096,0.5096,0.5096,0.5257,0.5446,0.5566,0.5837,0.6132,0.6474,0.6858,0.7152,0.7356,0.7509,0.7658,0.7801,0.7901,0.7988,0.7988,0.7988,0.7988,0.7988,0.7988,0.7988,0.7988,0.7988,0.7988,0.7988,0.7988,0.7988,0.7988,0.7988,0.7988,0.7988,0.7988,0.7988,0.7988,0.7988,0.7988,0.7988,0.7988,0.7988,0.7961,0.7712,0.76,0.7563,0.7206,0.7095,0.7051,0.0,0.0,0.0,0.0,0.0,0.0,0.0,0.4491,0.4491,0.4491,0.4491,0.4508,0.4556,0.4518,0.4552,0.4677,0.458,0.0,0.0,0.0,0.0,0.0,0.0,0.0,0.0,0.0,0.4911,0.51,0.5192,0.5276,0.5284,0.5135,0.5005,0.4955,0.4891,0.4762,0.0,0.0,0.0,0.0,0.0,0.0,0.0,0.0,0.0,0.0,0.0,0.0,0.0,0.0,0.0,0.0,0.0,0.0,0.0,0.5016,0.5379,0.5749,0.5847,0.5908,0.5945,0.5945,0.58,0.5657,0.5657,0.5382,0.51,0.51,0.51,0.51,0.51,0.5257,0.5511,0.5833,0.5932,0.6131,0.6573,0.6922,0.7197,0.7353,0.7685,0.787,0.7914,0.7961,0.7988,0.7988,0.7988,0.7988,0.7988,0.7988,0.7988,0.7988,0.7988,0.7988,0.7988,0.7988,0.7988,0.7988,0.7988,0.7988,0.7988,0.7988,0.7988,0.7988,0.7988,0.7988,0.7988,0.7988,0.7928,0.7865,0.7675,0.7536,0.7417,0.7169,0.7095,0.7095,0.0,0.0,0.0,0.0,0.0,0.0,0.0,0.4491,0.4491,0.4491,0.4491,0.4511,0.4569,0.4525,0.4576,0.4758,0.4665,0.0,0.0,0.0,0.0,0.0,0.0,0.0,0.4772,0.487,0.5015,0.5304,0.5399,0.5481,0.5481,0.5348,0.5208,0.5096,0.5009,0.4914,0.0,0.0,0.0,0.0,0.0,0.0,0.0,0.0,0.0,0.0,0.0,0.0,0.0,0.0,0.0,0.0,0.0,0.0,0.0,0.0,0.5074,0.5393,0.565,0.5762,0.58,0.58,0.5694,0.5576,0.5549,0.5311,0.5083,0.5029,0.5063,0.51,0.51,0.5257,0.5487,0.5732,0.5871,0.6081,0.6478,0.6837,0.7115,0.7424,0.775,0.7904,0.7904,0.7958,0.7988,0.7988,0.7988,0.7988,0.7988,0.7988,0.7988,0.7988,0.7988,0.7988,0.7988,0.7988,0.7988,0.7988,0.7988,0.7988,0.7988,0.7988,0.7988,0.7988,0.7988,0.7988,0.0,0.7928,0.7896,0.779,0.759,0.7455,0.7398,0.7152,0.7095,0.7095,0.0,0.0,0.0,0.0,0.0,0.0,0.0,0.4491,0.4491,0.4491,0.4491,0.4545,0.466,0.4576,0.4614,0.4864,0.0,0.0,0.0,0.0,0.0,0.0,0.0,0.0,0.4881,0.4897,0.5145,0.5576,0.5576,0.5576,0.5576,0.5576,0.542,0.5113,0.5113,0.5042,0.0,0.0,0.0,0.0,0.0,0.0,0.0,0.0,0.0,0.0,0.0,0.0,0.0,0.0,0.0,0.0,0.0,0.0,0.0,0.0,0.0,0.0,0.0,0.564,0.5739,0.5739,0.564,0.5504,0.5395,0.522,0.0,0.4914,0.5002,0.5103,0.5113,0.5264,0.5405,0.5436,0.564,0.5928,0.6286,0.6685,0.7136,0.7563,0.774,0.7828,0.7828,0.7907,0.7988,0.7988,0.7988,0.7988,0.7988,0.7988,0.7988,0.7988,0.7988,0.7988,0.7988,0.7988,0.7988,0.7988,0.7988,0.7988,0.7988,0.7988,0.7988,0.7988,0.7988,0.7988,0.7978,0.7875,0.7804,0.7767,0.7482,0.7409,0.7336,0.7149,0.7095,0.7095,0.0,0.0,0.0,0.0,0.0,0.0,0.0,0.0,0.0,0.0,0.4491,0.4505,0.4539,0.4511,0.4614,0.0,0.0,0.0,0.0,0.0,0.0,0.0,0.0,0.0,0.4884,0.4992,0.5192,0.545,0.545,0.545,0.545,0.545,0.5409,0.5341,0.5341,0.532,0.0,0.0,0.0,0.0,0.0,0.0,0.0,0.0,0.0,0.0,0.4901,0.4978,0.0,0.0,0.0,0.0,0.0,0.0,0.0,0.0,0.4718,0.4792,0.5016,0.0,0.5128,0.5128,0.5101,0.5067,0.0,0.4996,0.4928,0.4894,0.5002,0.5133,0.5284,0.5371,0.5508,0.5817,0.5895,0.6122,0.6539,0.7085,0.7522,0.7736,0.7892,0.7934,0.7934,0.7968,0.7988,0.7988,0.7988,0.7988,0.7988,0.7988,0.7988,0.7988,0.7988,0.7988,0.7988,0.7988,0.7988,0.7988,0.7988,0.7988,0.7988,0.7988,0.7988,0.7988,0.7988,0.7988,0.7978,0.7875,0.7746,0.7631,0.7444,0.7299,0.7146,0.7109,0.7095,0.7095,0.0,0.0,0.0,0.0,0.0,0.0,0.0,0.0,0.0,0.0,0.0,0.4491,0.4491,0.4491,0.0,0.0,0.0,0.0,0.0,0.0,0.0,0.0,0.0,0.4863,0.4982,0.5059,0.524,0.5501,0.5501,0.5501,0.5501,0.5501,0.5463,0.5395,0.5395,0.5395,0.0,0.0,0.0,0.0,0.0,0.0,0.0,0.0,0.0,0.0,0.4735,0.4802,0.0,0.4891,0.4938,0.4975,0.0,0.0,0.0,0.0,0.4614,0.4634,0.4687,0.486,0.4985,0.4985,0.4985,0.4968,0.4904,0.4863,0.4796,0.4724,0.5175,0.5518,0.5237,0.5683,0.6014,0.5858,0.5905,0.6172,0.6732,0.7265,0.7651,0.7794,0.7897,0.7988,0.7988,0.7988,0.7988,0.7988,0.7988,0.7988,0.7988,0.7988,0.7988,0.7988,0.7988,0.7988,0.7988,0.7988,0.7988,0.7988,0.7988,0.7988,0.7988,0.7988,0.7988,0.7988,0.7988,0.7948,0.7874,0.7777,0.7628,0.7482,0.7326,0.7214,0.7095,0.7095,0.7095,0.7095,0.0,0.0,0.0,0.0,0.0,0.0,0.0,0.0,0.0,0.0,0.0,0.0,0.0,0.0,0.0,0.0,0.0,0.0,0.0,0.0,0.0,0.0,0.4931,0.4975,0.5096,0.512,0.5294,0.5555,0.5555,0.5555,0.5555,0.5555,0.5521,0.5395,0.5395,0.5395,0.0,0.0,0.0,0.0,0.0,0.0,0.0,0.0,0.0,0.0,0.0,0.0,0.0,0.4813,0.488,0.4881,0.4863,0.0,0.0,0.0,0.0,0.0,0.4518,0.4806,0.509,0.5042,0.5049,0.5036,0.4918,0.4819,0.4745,0.4752,0.5444,0.5864,0.5315,0.604,0.6494,0.5818,0.5939,0.6279,0.6812,0.7295,0.7617,0.7763,0.7864,0.7965,0.7988,0.7988,0.7988,0.7988,0.7988,0.7988,0.7988,0.7988,0.7988,0.7988,0.7988,0.7988,0.7988,0.7988,0.7988,0.7988,0.7988,0.7988,0.7988,0.7988,0.7988,0.7988,0.7965,0.788,0.7797,0.7634,0.7489,0.7402,0.72,0.7095,0.7095,0.7095,0.7095,0.7095,0.0,0.0,0.0,0.0,0.0,0.0,0.0,0.0,0.0,0.0,0.0,0.0,0.0,0.0,0.0,0.0,0.0,0.0,0.0,0.0,0.0,0.5327,0.5169,0.5076,0.51,0.5257,0.5382,0.5429,0.5429,0.5429,0.5429,0.5429,0.5419,0.5395,0.5395,0.5395,0.5395,0.0,0.0,0.0,0.5395,0.0,0.0,0.0,0.0,0.0,0.0,0.0,0.0,0.4597,0.4704,0.4874,0.4641,0.0,0.0,0.0,0.0,0.0,0.4648,0.4887,0.5039,0.4819,0.4857,0.4914,0.4894,0.487,0.5085,0.5791,0.5582,0.5552,0.6422,0.6147,0.5888,0.6132,0.6403,0.6675,0.6856,0.7204,0.7461,0.7614,0.7756,0.7896,0.7978,0.7988,0.7988,0.7988,0.7988,0.7988,0.7988,0.7988,0.7988,0.7988,0.7988,0.7988,0.7988,0.7988,0.7988,0.7988,0.7988,0.7988,0.7988,0.7988,0.7988,0.7982,0.7902,0.7831,0.779,0.7519,0.7439,0.7402,0.72,0.7095,0.7095,0.7095,0.7095,0.7095,0.0,0.0,0.0,0.0,0.0,0.0,0.0,0.0,0.0,0.0,0.0,0.0,0.0,0.0,0.0,0.0,0.0,0.0,0.0,0.0,0.5395,0.5395,0.5327,0.5254,0.5254,0.5358,0.5395,0.5395,0.5395,0.5395,0.5395,0.5395,0.5395,0.5395,0.5395,0.5395,0.5395,0.5395,0.0,0.0,0.0,0.0,0.0,0.0,0.0,0.0,0.0,0.0,0.0,0.0,0.4677,0.4772,0.4658,0.0,0.0,0.0,0.0,0.0,0.4576,0.4789,0.4972,0.4942,0.5108,0.5387,0.5871,0.5974,0.6255,0.7185,0.7543,0.755,0.7077,0.7261,0.7286,0.6636,0.6681,0.6848,0.6876,0.7183,0.7443,0.7468,0.7675,0.7811,0.7801,0.7897,0.7924,0.7814,0.7872,0.7882,0.7804,0.7801,0.7801,0.7801,0.7801,0.7838,0.7916,0.7916,0.7907,0.7988,0.7988,0.7988,0.7988,0.7988,0.7944,0.7864,0.7841,0.7723,0.7563,0.7473,0.7322,0.7241,0.7125,0.7095,0.7095,0.7095,0.7095,0.7095,0.0,0.0,0.0,0.0,0.0,0.0,0.0,0.0,0.0,0.0,0.0,0.0,0.0,0.0,0.0,0.0,0.0,0.0,0.0,0.0,0.5358,0.5392,0.5395,0.5395,0.5395,0.5395,0.5395,0.5395,0.5395,0.5412,0.5446,0.5412,0.5416,0.5446,0.5412,0.5395,0.5395,0.5395,0.5395,0.0,0.0,0.0,0.0,0.0,0.0,0.0,0.0,0.0,0.0,0.0,0.0,0.0,0.0,0.0,0.0,0.4525,0.4491,0.4498,0.4535,0.4714,0.4975,0.5237,0.5411,0.5681,0.6463,0.6597,0.6852,0.79,0.8552,0.8586,0.7372,0.7894,0.8151,0.6905,0.6858,0.6933,0.6933,0.7173,0.7329,0.7412,0.757,0.7678,0.7607,0.7804,0.7841,0.7617,0.7699,0.7712,0.7604,0.76,0.76,0.76,0.76,0.7651,0.776,0.7794,0.7889,0.7988,0.7988,0.7971,0.7938,0.7938,0.7902,0.776,0.7723,0.758,0.7412,0.7333,0.7248,0.7095,0.7095,0.7095,0.7095,0.7095,0.7095,0.7095,0.0,0.0,0.0,0.0,0.0,0.0,0.0,0.0,0.0,0.0,0.0,0.0,0.0,0.0,0.0,0.0,0.0,0.0,0.0,0.0,0.5209,0.5388,0.5395,0.5395,0.5395,0.5395,0.5395,0.5395,0.5395,0.5467,0.5569,0.5463,0.547,0.5566,0.5457,0.5395,0.5395,0.5395,0.5395,0.5395,0.5395,0.0,0.0,0.0,0.0,0.0,0.0,0.0,0.0,0.0,0.0,0.0,0.0,0.0,0.4505,0.4494,0.4491,0.4522,0.4665,0.4796,0.507,0.5771,0.5538,0.5267,0.5779,0.5693,0.5836,0.697,0.6627,0.6323,0.7123,0.7058,0.6836,0.6736,0.6896,0.7082,0.7082,0.7098,0.721,0.7398,0.7436,0.7455,0.7587,0.7617,0.7624,0.76,0.7607,0.7611,0.76,0.76,0.76,0.76,0.76,0.7604,0.7614,0.7746,0.7889,0.7988,0.7988,0.7917,0.7828,0.7828,0.775,0.7607,0.7465,0.7436,0.7405,0.7217,0.7105,0.7095,0.7095,0.7095,0.7095,0.7095,0.7095,0.7095,0.0,0.0,0.0,0.0,0.0,0.0,0.0,0.0,0.0,0.0,0.0,0.0,0.0,0.0,0.0,0.0,0.0,0.0,0.0,0.5049,0.5199,0.5388,0.5395,0.5395,0.5395,0.5395,0.5395,0.5395,0.5395,0.5474,0.5586,0.5467,0.5426,0.5481,0.5423,0.5395,0.5395,0.5395,0.5395,0.5395,0.5395,0.0,0.0,0.0,0.0,0.0,0.0,0.0,0.0,0.0,0.4491,0.4491,0.4491,0.4491,0.4491,0.4491,0.4491,0.4501,0.4559,0.4796,0.5081,0.5355,0.5424,0.5727,0.7,0.7522,0.7856,0.8463,0.9004,0.927,0.8965,0.8773,0.8522,0.8028,0.8713,0.9008,0.8321,0.8233,0.7952,0.731,0.7312,0.7356,0.7316,0.7485,0.7519,0.7326,0.7404,0.7414,0.7319,0.7267,0.7267,0.7267,0.7267,0.736,0.7458,0.7509,0.7614,0.7767,0.7855,0.7821,0.7678,0.7678,0.7597,0.7455,0.7443,0.7316,0.7224,0.7122,0.7095,0.7095,0.7095,0.7095,0.7095,0.7095,0.7095,0.7095,0.0,0.0,0.0,0.0,0.0,0.0,0.0,0.0,0.0,0.0,0.0,0.0,0.0,0.0,0.0,0.0,0.0,0.0,0.4836,0.4951,0.5131,0.5281,0.5368,0.5395,0.5395,0.5395,0.5395,0.5395,0.5395,0.5474,0.5586,0.5467,0.5423,0.5467,0.5416,0.5395,0.5395,0.5395,0.5395,0.5395,0.5395,0.5209,0.0,0.0,0.0,0.0,0.0,0.0,0.0,0.0,0.4491,0.4491,0.4491,0.4491,0.4491,0.4491,0.4525,0.4563,0.4563,0.4792,0.5105,0.5367,0.5683,0.6287,0.7516,0.7928,0.8167,0.8486,0.9295,0.9943,0.9974,0.97,0.9401,0.9242,0.9995,1.0308,0.9536,0.9449,0.9144,0.8313,0.8335,0.8362,0.8237,0.8399,0.8442,0.8201,0.8342,0.8358,0.8233,0.7881,0.7665,0.7665,0.7316,0.7146,0.7295,0.7346,0.74,0.7458,0.7604,0.7621,0.7529,0.7529,0.7444,0.7299,0.7299,0.7238,0.7095,0.7095,0.7095,0.7095,0.7095,0.7095,0.7095,0.7095,0.7095,0.7095,0.0,0.0,0.0,0.0,0.0,0.0,0.0,0.0,0.0,0.0,0.0,0.0,0.0,0.0,0.0,0.0,0.0,0.0,0.468,0.4833,0.4951,0.5093,0.5277,0.5392,0.5395,0.5395,0.5395,0.5395,0.5395,0.5474,0.5586,0.5467,0.5477,0.5583,0.5463,0.5395,0.5392,0.5392,0.5392,0.5392,0.5392,0.5267,0.0,0.0,0.0,0.0,0.0,0.0,0.0,0.0,0.4491,0.4491,0.4491,0.4491,0.4491,0.4491,0.46,0.4691,0.4687,0.4802,0.5105,0.5958,0.6435,0.6743,0.6855,0.6333,0.5969,0.6419,0.6555,0.7316,0.9756,0.9263,0.8873,1.0195,1.0544,1.0611,1.0611,1.0611,1.0611,1.0611,1.0611,1.0611,1.0611,1.0611,1.0611,1.0611,1.0611,1.0611,1.0611,0.9536,0.8934,0.8934,0.7753,0.7095,0.7095,0.7292,0.7292,0.7098,0.7295,0.7415,0.7415,0.7415,0.7285,0.7095,0.7095,0.7095,0.7095,0.7095,0.7095,0.7095,0.7095,0.7095,0.7095,0.7095,0.7095,0.7095,0.0,0.0,0.0,0.0,0.0,0.0,0.0,0.0,0.0,0.0,0.0,0.0,0.0,0.0,0.0,0.0,0.0,0.0,0.468,0.4731,0.487,0.509,0.5143,0.525,0.5392,0.5395,0.5446,0.5556,0.5446,0.5474,0.5586,0.5467,0.5419,0.546,0.5416,0.5334,0.5199,0.5199,0.5199,0.5199,0.5199,0.514,0.5083,0.0,0.0,0.0,0.0,0.0,0.0,0.0,0.0,0.0,0.4491,0.4563,0.4631,0.4522,0.46,0.4667,0.4586,0.4792,0.5109,0.5367,0.5816,0.6212,0.6265,0.6667,0.7423,0.8626,0.9481,1.0269,1.1118,1.1682,1.1952,1.1651,1.2433,1.2778,1.1901,1.1809,1.1515,1.0697,1.0611,1.0611,1.0611,1.0611,1.0611,1.0611,1.0611,1.0611,1.0611,1.0265,1.0096,1.0096,0.8969,0.8364,0.8364,0.7583,0.7142,0.7095,0.7142,0.721,0.721,0.721,0.7139,0.7095,0.7095,0.7095,0.7095,0.7095,0.7095,0.7095,0.7095,0.7095,0.7095,0.7095,0.7095,0.7095,0.0,0.0,0.0,0.0,0.0,0.0,0.0,0.0,0.0,0.0,0.0,0.0,0.0,0.0,0.0,0.0,0.0,0.0,0.0,0.4657,0.4799,0.5005,0.5069,0.5203,0.5392,0.5395,0.544,0.5532,0.544,0.5443,0.5532,0.544,0.5395,0.5395,0.5395,0.5277,0.51,0.51,0.5066,0.5019,0.5076,0.5066,0.5005,0.0,0.0,0.0,0.0,0.0,0.0,0.0,0.0,0.0,0.4491,0.4552,0.4624,0.459,0.466,0.4772,0.4738,0.5016,0.5325,0.5349,0.5679,0.6119,0.6588,0.726,0.8256,1.0034,1.0645,1.1192,1.2249,1.2776,1.2962,1.291,1.3584,1.3864,1.3118,1.3027,1.2772,1.2083,1.1997,1.1997,1.1997,1.1997,1.1997,1.1997,1.1997,1.1997,1.1997,1.1558,1.1295,1.1295,1.0183,0.9579,0.9579,0.8838,0.8273,0.7841,0.8273,0.8273,0.7797,0.7316,0.7095,0.7095,0.7095,0.7095,0.7095,0.7095,0.7095,0.7095,0.7095,0.7095,0.7095,0.7095,0.7095,0.7095,0.0,0.0,0.0,0.0,0.0,0.0,0.0,0.0,0.0,0.0,0.4491,0.0,0.0,0.0,0.0,0.0,0.0,0.0,0.0,0.0,0.4758,0.4881,0.5039,0.5216,0.5392,0.5395,0.5395,0.5395,0.5395,0.5395,0.5395,0.5395,0.5395,0.5395,0.5382,0.5254,0.5079,0.5066,0.4985,0.4881,0.5009,0.4988,0.4887,0.4874,0.0,0.0,0.0,0.0,0.0,0.0,0.0,0.0,0.4491,0.4498,0.4535,0.4662,0.4789,0.4914,0.5029,0.5325,0.5603,0.5745,0.5918,0.6348,0.763,0.8022,0.8689,1.0722,1.0655,1.0902,1.3134,1.2848,1.2665,1.3915,1.4088,1.4088,1.4088,1.4088,1.4088,1.4088,1.4088,1.4088,1.4088,1.4088,1.4088,1.4088,1.4088,1.4088,1.4088,1.3069,1.2456,1.2456,1.1338,1.0735,1.0735,1.0654,1.0096,0.9061,1.0096,1.0053,0.9017,0.7797,0.7183,0.7095,0.7228,0.7183,0.7095,0.7095,0.7095,0.7095,0.7095,0.7095,0.7095,0.7095,0.7095,0.7095,0.0,0.0,0.0,0.0,0.0,0.0,0.0,0.0,0.0,0.0,0.0,0.0,0.0,0.0,0.0,0.0,0.0,0.0,0.0,0.0,0.4758,0.4881,0.5172,0.5361,0.5395,0.5395,0.5395,0.5395,0.5395,0.5395,0.5395,0.5395,0.5395,0.5388,0.5233,0.5066,0.4924,0.4836,0.4769,0.4741,0.4772,0.484,0.4877,0.4785,0.4718,0.0,0.0,0.0,0.0,0.0,0.0,0.0,0.4491,0.4573,0.4651,0.4566,0.4704,0.487,0.4809,0.5122,0.5481,0.5596,0.5925,0.6712,0.8566,0.8989,0.9362,1.0645,1.1719,1.2651,1.3167,1.351,1.3756,1.4033,1.4088,1.4088,1.4088,1.4088,1.4088,1.4088,1.4088,1.4088,1.4088,1.4088,1.4088,1.4088,1.4088,1.4088,1.4088,1.3864,1.3688,1.3688,1.2553,1.1938,1.1938,1.1042,1.0481,1.0226,1.0481,1.0481,1.0183,0.9061,0.8017,0.7139,0.8105,0.7973,0.7095,0.7095,0.7095,0.7095,0.7095,0.7095,0.7095,0.7095,0.7095,0.7095,0.0,0.0,0.0,0.0,0.0,0.0,0.0,0.0,0.0,0.0,0.0,0.0,0.0,0.0,0.0,0.0,0.0,0.0,0.0,0.4634,0.4789,0.4978,0.524,0.5395,0.5395,0.532,0.532,0.5395,0.532,0.532,0.5395,0.5395,0.5395,0.5388,0.5199,0.5019,0.4877,0.4755,0.4679,0.4614,0.466,0.4694,0.4701,0.4694,0.4675,0.46,0.4518,0.0,0.0,0.0,0.0,0.0,0.0,0.0,0.4607,0.46,0.4684,0.4823,0.4884,0.5182,0.5576,0.5873,0.6126,0.6834,0.8841,0.9296,0.9712,1.1205,1.2317,1.3033,1.318,1.3574,1.3921,1.4062,1.4088,1.4088,1.4088,1.4088,1.4088,1.4088,1.4088,1.4088,1.4088,1.4088,1.4088,1.4088,1.4088,1.4088,1.4088,1.4088,1.4088,1.4088,1.347,1.316,1.316,1.2559,1.1992,1.1423,1.1992,1.1949,1.1381,1.0226,0.9056,0.8017,0.8627,0.8233,0.7095,0.7095,0.7095,0.7095,0.7095,0.7095,0.7095,0.7095,0.7095,0.7095,0.0,0.0,0.0,0.0,0.0,0.0,0.0,0.0,0.0,0.0,0.0,0.0,0.0,0.0,0.0,0.0,0.0,0.0,0.0,0.4658,0.485,0.5086,0.5277,0.5382,0.5354,0.5196,0.5192,0.5354,0.5169,0.5199,0.5433,0.5405,0.5395,0.5388,0.5172,0.4999,0.4877,0.4728,0.4607,0.4501,0.4631,0.4604,0.4505,0.4631,0.46,0.4491,0.4491,0.4491,0.4491,0.4491,0.0,0.0,0.0,0.0,0.4515,0.4641,0.467,0.4745,0.4958,0.5315,0.5691,0.6153,0.6279,0.6834,0.8841,0.9296,0.9863,1.1885,1.2576,1.2878,1.3153,1.3407,1.37,1.4041,1.4088,1.4088,1.4088,1.4088,1.4088,1.4088,1.4088,1.4088,1.4088,1.4088,1.4088,1.4088,1.4088,1.4088,1.4088,1.4088,1.4088,1.4088,1.4088,1.4088,1.4088,1.4088,1.3603,1.2632,1.3603,1.3561,1.2589,1.1643,1.0486,0.9192,0.9405,0.8711,0.7404,0.7404,0.7404,0.7404,0.7404,0.7404,0.7404,0.7404,0.7272,0.7095,0.0,0.0,0.0,0.0,0.0,0.0,0.0,0.0,0.0,0.0,0.4491,0.4491,0.4491,0.4508,0.0,0.0,0.0,0.0,0.4491,0.0,0.0,0.5093,0.5277,0.533,0.5133,0.511,0.511,0.513,0.4985,0.5159,0.5555,0.5457,0.5395,0.5382,0.507,0.4908,0.487,0.4641,0.4508,0.4491,0.4511,0.4508,0.4491,0.4511,0.4508,0.4491,0.4491,0.4491,0.4491,0.4491,0.4491,0.0,0.0,0.0,0.4494,0.4515,0.4614,0.4701,0.4738,0.5162,0.5664,0.5983,0.6162,0.6834,0.8841,0.9296,0.9863,1.1885,1.2576,1.2878,1.3153,1.3407,1.37,1.4041,1.4088,1.4088,1.4088,1.4088,1.4088,1.4088,1.4088,1.4088,1.4088,1.4088,1.4088,1.4088,1.4088,1.4088,1.4088,1.4088,1.4088,1.4088,1.4088,1.4088,1.4088,1.4088,1.3997,1.3864,1.3997,1.3997,1.3864,1.3695,1.2431,1.0438,1.1423,1.0649,0.8671,0.8671,0.8671,0.8671,0.8671,0.8671,0.8671,0.8671,0.8017,0.7095,0.0,0.0,0.0,0.0,0.0,0.0,0.0,0.0,0.0,0.0,0.0,0.4491,0.4491,0.4491,0.0,0.0,0.0,0.0,0.4614,0.4718,0.0,0.509,0.5196,0.5199,0.51,0.5022,0.4982,0.4982,0.4863,0.5023,0.5494,0.5426,0.5484,0.5596,0.5298,0.5118,0.5016,0.5176,0.4955,0.4543,0.4921,0.4924,0.4701,0.4556,0.4597,0.4697,0.4552,0.4491,0.4491,0.4491,0.4491,0.4491,0.4491,0.0,0.0,0.0,0.4539,0.4665,0.5006,0.5354,0.5681,0.6064,0.6248,0.6834,0.8841,0.9296,0.9863,1.1885,1.2405,1.263,1.2931,1.32,1.3453,1.3753,1.3981,1.4088,1.4088,1.4088,1.4088,1.4088,1.4088,1.4088,1.4088,1.4088,1.4088,1.4088,1.4088,1.4088,1.4088,1.4088,1.4088,1.4088,1.4088,1.4088,1.4088,1.4088,1.4088,1.4088,1.4088,1.4088,1.4088,1.4088,1.3167,1.1595,1.2066,1.1381,0.9836,0.9836,0.9836,0.9836,0.9836,0.9836,0.9836,0.9836,0.9531,0.8965,0.0,0.0,0.0,0.0,0.0,0.0,0.0,0.0,0.0,0.0,0.0,0.0,0.4491,0.0,0.0,0.0,0.0,0.0,0.4655,0.0,0.0,0.0,0.0,0.5063,0.4988,0.4921,0.487,0.486,0.4748,0.4972,0.5453,0.5453,0.5631,0.5938,0.5875,0.5592,0.5201,0.5733,0.5423,0.4635,0.5133,0.5173,0.4901,0.4778,0.4863,0.4992,0.4716,0.4607,0.4593,0.4515,0.4491,0.4491,0.4491,0.4491,0.0,0.0,0.0,0.4597,0.5088,0.5328,0.5572,0.6023,0.6184,0.6705,0.849,0.8917,0.948,1.1508,1.1922,1.2061,1.2592,1.2924,1.3193,1.3447,1.3781,1.3975,1.3975,1.4041,1.4088,1.4088,1.4088,1.4088,1.4088,1.4088,1.4088,1.4088,1.4088,1.4088,1.4088,1.4088,1.4088,1.4088,1.4088,1.4088,1.4088,1.4088,1.4088,1.4088,1.4088,1.4088,1.4088,1.4088,1.3603,1.2766,1.2766,1.212,1.1037,1.1037,1.1037,1.1037,1.1037,1.1037,1.1037,1.1037,1.0869,1.0476,0.0,0.0,0.0,0.0,0.0,0.0,0.0,0.0,0.0,0.0,0.0,0.0,0.4491,0.4491,0.4491,0.4491,0.0,0.0,0.0,0.0,0.0,0.0,0.0,0.0,0.4718,0.485,0.485,0.4704,0.4694,0.4996,0.5579,0.5579,0.5849,0.6294,0.6793,0.6394,0.543,0.6102,0.5796,0.4894,0.4924,0.4904,0.4948,0.5245,0.5358,0.5334,0.5003,0.4864,0.485,0.459,0.4491,0.4491,0.4491,0.4491,0.4491,0.0,0.0,0.0,0.4706,0.4935,0.5197,0.5545,0.5833,0.6337,0.7592,0.7897,0.8461,1.0447,1.0901,1.1168,1.2133,1.2603,1.2911,1.318,1.344,1.3626,1.3626,1.3908,1.4088,1.4088,1.4088,1.4088,1.4088,1.4088,1.4088,1.4088,1.4088,1.4088,1.4088,1.4088,1.4088,1.4088,1.4088,1.4088,1.4088,1.4088,1.4088,1.4088,1.4088,1.4088,1.4088,1.4088,1.4088,1.3997,1.3997,1.3336,1.22,1.22,1.22,1.22,1.22,1.22,1.22,1.22,1.1509,1.058,0.0,0.0,0.0,0.0,0.0,0.0,0.0,0.0,0.0,0.0,0.0,0.0,0.0,0.4491,0.4491,0.4491,0.4491,0.0,0.0,0.0,0.0,0.0,0.0,0.0,0.4697,0.484,0.4796,0.4573,0.4573,0.4802,0.5294,0.5294,0.5488,0.5863,0.6143,0.5989,0.5589,0.6664,0.6249,0.4985,0.6117,0.6089,0.5348,0.5392,0.5515,0.5606,0.5311,0.5081,0.487,0.4792,0.4655,0.4491,0.4491,0.4491,0.4491,0.4491,0.4491,0.4545,0.4769,0.4884,0.5059,0.5491,0.5739,0.6174,0.7331,0.7694,0.8385,1.0372,1.0783,1.1124,1.2114,1.2583,1.2817,1.2931,1.3166,1.3387,1.358,1.3693,1.3874,1.4062,1.4088,1.4088,1.4088,1.4088,1.4088,1.4088,1.4088,1.4001,1.3773,1.376,1.376,1.376,1.376,1.3895,1.4082,1.4088,1.4088,1.4088,1.4088,1.4088,1.4088,1.4088,1.4088,1.4088,1.4088,1.3864,1.347,1.347,1.347,1.347,1.347,1.347,1.347,1.347,1.3054,1.2421,0.0,0.0,0.0,0.0,0.0,0.0,0.0,0.0,0.4491,0.4491,0.0,0.0,0.0,0.0,0.4491,0.4491,0.4491,0.4491,0.4491,0.4491,0.0,0.0,0.0,0.0,0.4694,0.484,0.4796,0.4566,0.4617,0.4769,0.5029,0.5076,0.5267,0.5549,0.583,0.5989,0.6116,0.7293,0.7093,0.6036,0.7289,0.708,0.6035,0.6159,0.6101,0.5915,0.5651,0.5382,0.5192,0.5009,0.4823,0.4634,0.4583,0.4532,0.4491,0.4491,0.4491,0.4535,0.4711,0.4802,0.4952,0.5403,0.5586,0.5895,0.6809,0.711,0.7757,0.9803,1.0278,1.0714,1.204,1.2465,1.2636,1.2636,1.2891,1.312,1.332,1.348,1.3673,1.3915,1.4028,1.4088,1.4088,1.4088,1.4048,1.3948,1.3941,1.3814,1.3473,1.346,1.35,1.36,1.36,1.3746,1.4082,1.4088,1.4088,1.4088,1.4088,1.4088,1.4088,1.4088,1.4088,1.4088,1.4088,1.4088,1.4088,1.4088,1.4088,1.4088,1.4088,1.4088,1.4088,1.4088,1.3961,1.3637,0.0,0.0,0.0,0.0,0.0,0.0,0.0,0.0,0.4491,0.4494,0.0,0.0,0.0,0.0,0.0,0.4498,0.4498,0.4494,0.4491,0.4491,0.0,0.0,0.0,0.0,0.4691,0.4836,0.484,0.4691,0.4833,0.4877,0.4884,0.5022,0.5199,0.5408,0.5954,0.6481,0.698,0.7986,0.8248,0.8019,0.8294,0.7783,0.6979,0.753,0.7134,0.6262,0.5922,0.581,0.5735,0.5265,0.5019,0.4867,0.4741,0.4614,0.4491,0.4491,0.4491,0.4491,0.0,0.0,0.0,0.5262,0.5378,0.5498,0.5908,0.5973,0.6563,0.8629,0.9167,0.9884,1.1885,1.2268,1.2305,1.2305,1.2583,1.277,1.2784,1.3247,1.358,1.36,1.3901,1.4075,1.4088,1.4088,1.3968,1.3626,1.36,1.3473,1.3213,1.32,1.3327,1.3567,1.3593,1.374,1.4075,1.4082,1.4088,1.4088,1.4088,1.4088,1.4088,1.4088,1.4088,1.4088,1.4088,1.4088,1.4088,1.4088,1.4088,1.4088,1.4088,1.4088,1.4088,1.4088,1.4075,1.3981,0.0,0.0,0.0,0.0,0.0,0.4655,0.4655,0.4563,0.4532,0.0,0.0,0.0,0.4655,0.4655,0.4655,0.4655,0.4655,0.4607,0.4498,0.4491,0.4491,0.4491,0.4638,0.4691,0.4691,0.4731,0.4731,0.4691,0.4651,0.4675,0.4755,0.4796,0.4894,0.5074,0.5849,0.6577,0.7259,0.8059,0.8349,0.8256,0.7994,0.766,0.7287,0.6708,0.6426,0.6289,0.6201,0.5989,0.5783,0.5657,0.5339,0.4995,0.4772,0.4614,0.4491,0.4491,0.4491,0.4491,0.4491,0.0,0.0,0.0,0.0,0.0,0.5467,0.5579,0.6016,0.7629,0.8479,0.9408,1.0941,1.1805,1.2305,1.2305,1.2371,1.2536,1.2757,1.2931,1.3153,1.3553,1.3673,1.3848,1.4068,1.4088,1.3968,1.3626,1.36,1.342,1.2945,1.2911,1.2951,1.3032,1.342,1.364,1.3726,1.3981,1.4088,1.4088,1.4088,1.4088,1.4088,1.4088,1.4088,1.4088,1.4088,1.4088,1.4088,1.4088,1.4088,1.4088,1.4088,1.4088,1.4088,1.4088,1.3814,1.346,0.0,0.0,0.0,0.6029,0.5652,0.5336,0.5336,0.4937,0.4829,0.0,0.0,0.0,0.4785,0.484,0.485,0.4792,0.4728,0.4682,0.4593,0.4525,0.4491,0.4491,0.4576,0.4657,0.4782,0.4724,0.4721,0.4785,0.4662,0.46,0.4624,0.4624,0.4812,0.5191,0.6015,0.6866,0.7705,0.8324,0.8789,0.9106,0.9206,0.8731,0.7905,0.7509,0.6977,0.6381,0.632,0.6184,0.5983,0.5918,0.5599,0.5176,0.488,0.4724,0.4655,0.4528,0.4535,0.4586,0.4586,0.4539,0.4556,0.4806,0.0,0.0,0.5759,0.5943,0.6413,0.8093,0.8855,0.968,1.0997,1.1747,1.2164,1.2285,1.2305,1.2365,1.2569,1.2703,1.2911,1.3227,1.3447,1.362,1.3721,1.3828,1.3728,1.33,1.3273,1.306,1.2623,1.2596,1.2656,1.2784,1.3086,1.3387,1.36,1.3773,1.3968,1.4088,1.4088,1.4088,1.4088,1.4088,1.4088,1.4088,1.4088,1.4088,1.4088,1.4088,1.4088,1.4088,1.4088,1.4088,1.4088,1.4088,1.3874,1.3581,0.0,0.0,0.6818,0.7596,0.6897,0.6233,0.625,0.5476,0.5198,0.0,0.5448,0.4982,0.5013,0.5069,0.5073,0.4979,0.4813,0.4707,0.4694,0.4576,0.4491,0.4491,0.4491,0.4627,0.4857,0.4762,0.4758,0.4864,0.4758,0.4641,0.4491,0.457,0.4921,0.5542,0.6367,0.7247,0.8169,0.8681,0.9372,1.0157,1.083,1.0189,0.8861,0.9183,0.8328,0.6875,0.6606,0.6514,0.6451,0.6122,0.5752,0.5392,0.5064,0.4969,0.4908,0.4631,0.4648,0.4735,0.4721,0.4644,0.4638,0.4975,0.4921,0.0,0.6233,0.6497,0.7009,0.8843,0.9383,0.9915,1.1172,1.1491,1.1647,1.1859,1.2004,1.2154,1.2298,1.2569,1.275,1.2784,1.322,1.3413,1.3233,1.3407,1.336,1.2831,1.2757,1.2616,1.2318,1.2305,1.2425,1.2723,1.2764,1.3045,1.35,1.3573,1.3733,1.4041,1.4075,1.4088,1.4088,1.4088,1.4088,1.4088,1.4088,1.4088,1.4088,1.4088,1.4088,1.4088,1.4088,1.4088,1.4088,1.4088,1.4068,1.4008,0.0,0.758,0.7735,0.7928,0.7053,0.6415,0.6572,0.563,0.5064,0.5496,0.5404,0.5399,0.5603,0.5443,0.5337,0.531,0.503,0.4823,0.4701,0.4576,0.4491,0.4491,0.4491,0.4576,0.4731,0.4707,0.4704,0.4735,0.4704,0.4641,0.4519,0.5054,0.5378,0.5569,0.6902,0.7613,0.7877,0.9045,0.9746,1.0036,0.9532,0.9738,1.0304,0.9685,0.9461,0.9339,0.8229,0.7845,0.7638,0.6421,0.5888,0.5664,0.5402,0.5306,0.5248,0.4918,0.4931,0.4988,0.4904,0.4853,0.485,0.4908,0.4972,0.0,0.5223,0.5246,0.545,0.6096,0.682,0.7503,0.8084,0.8856,0.9436,0.9485,1.0313,1.1264,1.2154,1.2351,1.2516,1.2757,1.2891,1.3038,1.3193,1.326,1.3146,1.2811,1.2563,1.2365,1.2305,1.2305,1.2325,1.2385,1.2656,1.2844,1.2958,1.336,1.3633,1.3693,1.3975,1.4088,1.4088,1.4088,1.4088,1.4088,1.4088,1.4088,1.4088,1.4088,1.4088,1.4088,1.4088,1.4088,1.4088,1.4088,1.3935,1.3713,0.7194,0.7624,0.7994,0.7994,0.7191,0.6746,0.727,0.6474,0.6233,0.7395,0.7743,0.7351,0.5968,0.6119,0.6127,0.5549,0.5199,0.4931,0.4813,0.466,0.4569,0.4494,0.4491,0.4563,0.4687,0.4644,0.4641,0.4691,0.4641,0.4566,0.4519,0.5191,0.5785,0.635,0.7285,0.7988,0.8475,0.9013,0.9499,0.9937,1.0232,1.0565,1.088,1.0667,1.0466,1.0208,0.9465,0.8768,0.7959,0.6504,0.5942,0.5864,0.5569,0.5559,0.5508,0.5103,0.5128,0.5213,0.5032,0.4941,0.4955,0.5104,0.5081,0.0,0.0,0.5728,0.5833,0.6542,0.6953,0.7312,0.7664,0.8145,0.8557,0.8677,0.9773,1.0743,1.1144,1.182,1.2358,1.2543,1.2697,1.2784,1.2759,1.2893,1.2891,1.2583,1.2385,1.2305,1.2305,1.2305,1.2305,1.2305,1.2445,1.263,1.2784,1.3085,1.3273,1.3387,1.3581,1.3647,1.3654,1.3801,1.3788,1.3667,1.3961,1.4001,1.3874,1.4021,1.4088,1.4088,1.4088,1.4088,1.4068,1.3921,1.3868,1.3868,0.7218,0.7898,0.8409,0.8409,0.7733,0.7451,0.818,0.7526,0.7555,0.9276,0.9698,0.8897,0.6437,0.6721,0.6694,0.5796,0.5386,0.5106,0.5053,0.4823,0.4679,0.4583,0.4522,0.4563,0.4687,0.4597,0.458,0.4646,0.4717,0.4737,0.4708,0.5546,0.6399,0.7242,0.7755,0.8436,0.9204,0.9051,0.9345,1.0047,1.1383,1.1559,1.1147,1.1685,1.1491,1.09,1.0642,0.9531,0.8011,0.6839,0.6245,0.6027,0.5759,0.5915,0.6054,0.5416,0.5498,0.5723,0.5334,0.5143,0.5138,0.5385,0.5247,0.5315,0.0,0.0,0.0,0.726,0.7302,0.7308,0.7621,0.7626,0.7702,0.7932,0.9053,0.9856,0.9771,1.1003,1.1969,1.2211,1.2516,1.2603,1.2325,1.2509,1.2536,1.2318,1.2251,1.2245,1.2298,1.2305,1.2305,1.2305,1.2305,1.2418,1.2697,1.2757,1.2911,1.312,1.318,1.3213,1.322,1.3413,1.3387,1.324,1.3774,1.3868,1.3626,1.3968,1.4088,1.4088,1.4088,1.4088,1.4055,1.3814,1.3881,1.4055,0.9195,0.962,0.9855,0.9855,0.9398,0.9079,0.9291,0.8477,0.8075,0.8637,0.8195,0.7773,0.7588,0.6716,0.6163,0.6214,0.5699,0.5419,0.5504,0.4996,0.4745,0.4863,0.4634,0.4563,0.4687,0.4674,0.4634,0.4515,0.5276,0.5571,0.5406,0.6794,0.7521,0.7668,0.8614,0.9095,0.9224,0.9486,1.0074,1.0902,1.1625,1.168,1.1447,1.2329,1.2746,1.2795,1.2139,1.0303,0.8168,0.8007,0.7192,0.6242,0.6034,0.6716,0.7342,0.6068,0.6438,0.7038,0.6012,0.5711,0.5681,0.5586,0.5633,0.5638,0.5334,0.0,0.5498,0.5431,0.0,0.546,0.569,0.0,0.0,0.5723,0.6635,0.7607,0.8469,0.9622,1.0736,1.1813,1.2178,1.2338,1.2305,1.2134,1.21,1.2285,1.2064,1.2067,1.2285,1.2305,1.2305,1.2305,1.2305,1.2318,1.2351,1.265,1.2804,1.2844,1.308,1.3213,1.3213,1.324,1.324,1.3227,1.3513,1.3633,1.3626,1.3968,1.4088,1.4088,1.4088,1.4088,1.4082,1.4048,1.4055,1.4082,0.8253,0.8812,0.9175,0.8684,0.8576,0.8749,0.9311,0.9882,1.0159,0.9908,1.0282,1.0226,0.9301,0.841,0.8036,0.8341,0.7306,0.6604,0.6577,0.6197,0.5643,0.4925,0.4711,0.4655,0.4691,0.4631,0.4556,0.4491,0.4856,0.5211,0.5515,0.614,0.7071,0.8232,0.8659,0.9295,1.0,0.9953,1.0147,1.0534,1.1122,1.1289,1.1349,1.2965,1.3601,1.3584,1.2484,1.1407,1.0333,0.9468,0.8391,0.7481,0.7905,0.7525,0.69,0.6799,0.6706,0.6508,0.5949,0.6226,0.6525,0.5867,0.6144,0.6348,0.5575,0.5379,0.5378,0.5277,0.0,0.0,0.0,0.0,0.0,0.0,0.6975,0.8039,0.8805,1.0043,1.105,1.1562,1.1717,1.1857,1.2037,1.198,1.2027,1.2278,1.2067,1.2033,1.2285,1.2305,1.2305,1.2305,1.2305,1.2305,1.2305,1.2425,1.2522,1.2529,1.2619,1.2685,1.2692,1.2859,1.2846,1.2719,1.3327,1.3507,1.3427,1.3895,1.4088,1.4088,1.4088,1.4088,1.4068,1.3895,1.3941,1.4062,0.7973,0.8478,0.8848,0.8215,0.8437,0.8958,0.9659,1.091,1.1621,1.1267,1.1866,1.1942,1.0832,1.0079,0.9773,1.0108,0.9014,0.824,0.809,0.7398,0.6732,0.6117,0.5248,0.4919,0.5251,0.4794,0.4532,0.4491,0.4677,0.503,0.5515,0.5923,0.6915,0.8379,0.8798,0.9544,1.0472,1.0461,1.0536,1.0762,1.1269,1.1658,1.1984,1.3333,1.3948,1.3971,1.2989,1.2402,1.1946,1.0878,0.9722,0.886,0.9485,0.8821,0.7819,0.8043,0.7798,0.7272,0.6548,0.6864,0.7162,0.6068,0.628,0.6517,0.5713,0.5508,0.5457,0.5457,0.6086,0.0,0.0,0.0,0.6985,0.6953,0.0,0.8574,0.9201,1.0085,1.0849,1.1255,1.1342,1.151,1.1724,1.1712,1.1784,1.2151,1.1911,1.1911,1.2285,1.2305,1.2305,1.2305,1.2305,1.2305,1.2305,1.2305,1.2305,1.2305,1.2305,1.2305,1.2311,1.2563,1.2589,1.2465,1.3167,1.3407,1.3367,1.3881,1.4088,1.4088,1.4088,1.4088,1.4062,1.3841,1.3901,1.4055,0.9621,0.9635,0.9664,0.9635,1.0113,1.0623,1.0902,1.1202,1.1615,1.2188,1.1683,1.1467,1.1975,1.1142,1.0632,1.0764,1.0496,1.0235,1.0109,0.8343,0.7845,0.9093,0.6424,0.5429,0.6608,0.5363,0.4641,0.4491,0.5164,0.5487,0.5538,0.6956,0.7676,0.7809,0.9363,1.0083,1.0157,1.0989,1.171,1.2258,1.2603,1.3253,1.3935,1.3434,1.3587,1.4088,1.4033,1.3201,1.2082,1.207,1.1193,1.0151,1.0181,1.0785,1.1261,0.9985,1.0307,1.0567,0.8349,0.7766,0.745,0.6125,0.5832,0.5754,0.5467,0.5515,0.5583,0.5583,0.6483,0.7253,0.7218,0.7936,0.8477,0.8366,0.8258,0.0,0.0,0.9051,0.94,1.0837,1.1256,1.1395,1.1402,1.1182,1.1256,1.1873,1.1603,1.1655,1.2271,1.2305,1.2305,1.2305,1.2305,1.2305,1.2305,1.2305,1.2305,1.2305,1.2305,1.2305,1.2305,1.2311,1.2509,1.279,1.308,1.334,1.3613,1.3961,1.4088,1.4088,1.4088,1.4088,1.4088,1.4075,1.4082,1.4088,0.9715,0.984,0.9967,0.9967,1.0325,1.0754,1.1209,1.169,1.2291,1.3047,1.2955,1.3101,1.3939,1.2829,1.2476,1.3503,1.262,1.1886,1.1594,1.0627,0.9914,0.9575,0.7504,0.6593,0.7078,0.5698,0.5097,0.5369,0.5591,0.6234,0.7267,0.7062,0.7708,0.9032,0.9262,0.9855,1.0742,1.143,1.1837,1.2094,1.2583,1.3326,1.4068,1.3868,1.3915,1.4088,1.4088,1.3805,1.3419,1.3419,1.2551,1.1583,1.2249,1.1636,1.075,1.0953,1.0806,1.0391,0.9597,0.9894,1.006,0.8613,0.818,0.7834,0.6766,0.6059,0.5589,0.5589,0.6433,0.7181,0.7283,0.7999,0.8743,0.9203,0.9236,0.9326,0.0,0.9579,0.9661,1.033,1.0675,1.0929,1.1122,1.1049,1.1236,1.1859,1.159,1.1648,1.2271,1.2305,1.2305,1.2305,1.2305,1.2305,1.2305,1.2305,1.2305,1.2305,1.2305,1.2305,1.2305,1.2305,1.2358,1.2516,1.2993,1.3267,1.3394,1.3888,1.4088,1.4088,1.4088,1.4088,1.4088,1.4088,1.4088,1.4088,1.0043,1.0147,1.0241,1.0134,1.0448,1.0875,1.1322,1.2011,1.2746,1.35,1.3786,1.4249,1.503,1.4295,1.4116,1.5052,1.4289,1.3498,1.2983,1.2224,1.1543,1.0962,0.9067,0.8187,0.8523,0.7201,0.6527,0.6586,0.6586,0.7046,0.7954,0.7422,0.7895,0.9167,0.9329,0.9938,1.0928,1.1832,1.2281,1.2435,1.3025,1.3608,1.4088,1.4088,1.4088,1.4088,1.4088,1.4088,1.4088,1.4088,1.3529,1.2904,1.3587,1.2785,1.1671,1.2239,1.1925,1.1329,1.0875,1.1215,1.1357,1.0,0.9593,0.9143,0.7681,0.6876,0.6412,0.6281,0.6865,0.7597,0.8382,0.8929,0.9478,1.0205,1.0217,1.0095,0.0,0.9886,0.9866,0.9953,1.0221,1.0553,1.0847,1.0742,1.0969,1.1657,1.1436,1.157,1.2265,1.2305,1.2305,1.2305,1.2305,1.2305,1.2305,1.2305,1.2305,1.2305,1.2305,1.2305,1.2305,1.2305,1.2365,1.2485,1.2993,1.3267,1.336,1.3888,1.4088,1.4088,1.4088,1.4088,1.4088,1.4088,1.4088,1.4088,1.0667,1.0633,1.0566,1.0254,1.0655,1.1116,1.1389,1.2234,1.3005,1.354,1.4133,1.4763,1.5351,1.5418,1.5418,1.5418,1.5418,1.5057,1.4208,1.3037,1.2672,1.3247,1.1041,1.0112,1.084,0.9701,0.8776,0.809,0.8058,0.7899,0.7658,0.808,0.8269,0.8321,0.9564,1.0281,1.0687,1.2147,1.2965,1.33,1.3861,1.4088,1.4088,1.4088,1.4088,1.4088,1.4088,1.4088,1.4088,1.4088,1.4088,1.4088,1.4088,1.4088,1.4035,1.3706,1.3626,1.3356,1.2138,1.1824,1.1552,1.0376,1.0032,0.963,0.8254,0.8014,0.7985,0.7644,0.7722,0.8456,1.043,1.0572,1.0604,1.1278,1.1149,1.0661,0.982,0.9927,1.0,0.974,0.9947,1.0227,1.0546,1.0281,1.0474,1.1302,1.1149,1.1376,1.2251,1.2285,1.2285,1.2305,1.2305,1.2305,1.2305,1.2305,1.2305,1.2305,1.2305,1.2305,1.2305,1.2318,1.2509,1.2777,1.3086,1.334,1.3606,1.3961,1.4088,1.4088,1.4088,1.4088,1.4088,1.4088,1.4088,1.4088,1.0895,1.127,1.1544,1.1464,1.1363,1.1483,1.1997,1.2496,1.3079,1.3861,1.4482,1.507,1.5658,1.5718,1.5718,1.5718,1.5718,1.5531,1.509,1.4351,1.3999,1.4146,1.2251,1.1302,1.1627,0.9977,0.9241,0.9569,0.8923,0.9026,0.978,0.9476,0.9307,0.9349,0.9864,1.0281,1.0673,1.1919,1.2979,1.3874,1.4028,1.4088,1.4088,1.4088,1.4088,1.4088,1.4088,1.4088,1.4088,1.4088,1.4088,1.4088,1.4088,1.4088,1.4075,1.3995,1.3975,1.3913,1.3583,1.348,1.3367,1.2779,1.2024,1.1172,1.0363,0.9622,0.9033,0.8746,0.8804,0.9246,1.0317,1.0448,1.0544,1.1015,1.0675,1.0261,1.004,0.988,0.9846,0.9987,1.0067,1.0117,1.0221,1.016,1.0388,1.1056,1.1035,1.1376,1.2251,1.2098,1.2078,1.2291,1.2305,1.2305,1.2305,1.2305,1.2305,1.2305,1.2305,1.2305,1.2311,1.2569,1.2589,1.2458,1.3206,1.3413,1.332,1.3874,1.4088,1.4088,1.4088,1.4088,1.4088,1.4088,1.4088,1.4088,1.1376,1.1886,1.2335,1.2432,1.2318,1.2318,1.2645,1.2953,1.3367,1.4001,1.464,1.5129,1.5418,1.5678,1.5784,1.5784,1.5784,1.5651,1.5237,1.5017,1.473,1.4349,1.3422,1.2861,1.2656,1.1483,1.0874,1.0876,1.0249,1.0085,1.0354,0.993,0.9613,0.9499,0.98,1.0198,1.0687,1.2091,1.316,1.3908,1.4035,1.4088,0.0,1.4088,1.4088,1.4088,1.4088,1.4088,1.4088,1.4088,1.4088,1.4088,1.4088,1.4088,1.4088,1.4088,1.4088,1.4088,1.4088,1.4088,1.4048,1.3881,1.3331,1.2632,1.1682,1.0946,1.0368,1.0088,0.9653,0.9707,1.0973,1.0773,1.0526,1.0916,1.0608,1.0267,1.0134,1.0087,1.011,1.0114,1.0083,1.0083,1.0083,1.0083,1.0254,1.0581,1.0848,1.1263,1.1884,1.2011,1.2131,1.2298,1.2305,1.2305,1.2305,1.2305,1.2305,1.2305,1.2305,1.2305,1.2311,1.2516,1.2569,1.2569,1.3173,1.3393,1.3393,1.3895,1.4088,1.4088,1.4088,1.4088,1.4166,1.4615,1.4489,1.4088,1.202,1.2529,1.3032,1.3227,1.3333,1.3394,1.3434,1.358,1.382,1.4162,1.476,1.5122,1.5122,1.5524,1.5784,1.5784,1.5784,1.5618,1.5156,1.5277,1.5057,1.4289,1.4429,1.4239,1.3726,1.34,1.2806,1.202,1.161,1.0962,1.0167,0.9873,0.9586,0.9284,0.9606,1.0164,1.0928,1.2518,1.336,1.3686,1.3981,1.4088,1.4088,1.4088,1.4088,1.4088,1.4088,1.4088,1.4088,1.4088,1.4088,1.4088,1.4088,1.4088,1.4088,1.4088,1.4088,1.4088,1.4088,1.4088,1.4088,1.4088,1.4088,1.3778,1.2525,1.2071,1.1784,1.1438,1.0465,1.0228,1.1914,1.1305,1.0637,1.0995,1.0841,1.0559,1.0267,1.0452,1.0479,1.0154,1.0147,0.0,0.9983,1.0043,1.0134,1.0174,1.0648,1.1096,1.1463,1.1931,1.2225,1.2298,1.2305,1.2305,1.2305,1.2305,1.2305,1.2305,1.2305,1.2305,1.2305,1.2385,1.2538,1.2804,1.3153,1.3447,1.3626,1.3968,1.4088,1.4088,1.4088,1.4088,1.4208,1.5296,1.5095,1.4334,1.263,1.3313,1.3794,1.356,1.3926,1.4376,1.4623,1.4496,1.4476,1.4814,1.5317,1.5678,1.5678,1.5718,1.5784,1.5784,1.5784,1.5738,1.5685,1.5504,1.5324,1.5177,1.475,1.4426,1.4326,1.3607,1.3006,1.263,1.181,1.1102,1.0506,1.018,0.9886,0.9619,0.9913,1.0768,1.2051,1.2866,1.352,1.4015,1.4068,1.4088,1.4088,1.4088,1.4088,1.4088,1.4088,1.4088,1.4088,1.4088,1.4088,1.4088,1.4088,1.4088,1.4088,1.4088,1.4088,1.4088,1.4088,1.4088,1.4088,1.4088,1.4088,1.3906,1.3159,1.2962,1.2772,1.2229,1.1924,1.1814,1.1955,1.1556,1.1257,1.1329,1.1102,1.0902,1.0848,1.0713,1.0479,1.0154,1.0334,1.0194,0.9437,0.9804,1.0221,1.0492,1.0606,1.1008,1.1785,1.1657,1.1804,1.2285,1.2305,1.2305,1.2305,1.2305,1.2305,1.2305,1.2305,1.2305,1.2318,1.2819,1.2939,1.2831,1.3628,1.3821,1.3626,1.3968,1.4088,1.4088,1.4088,1.4088,1.4208,1.5296,1.5579,1.5538,1.3667,1.4015,1.4315,1.4322,1.4563,1.485,1.5144,1.5197,1.5144,1.5028,1.5204,1.5384,1.5384,1.5651,1.5784,1.5784,1.5784,1.5784,1.5784,1.5698,1.5558,1.5404,1.5124,1.483,1.4529,1.3955,1.3367,1.2784,1.2011,1.1316,1.0586,1.0254,0.996,0.9735,1.0307,1.1129,1.2124,1.2886,1.346,1.3868,1.4021,1.4088,1.4088,1.4088,1.4088,1.4088,1.4088,1.4088,1.4088,1.4088,1.4088,1.4088,1.4088,1.4088,1.4088,1.4088,1.4088,1.4088,1.4088,1.4088,1.4088,1.4088,1.4088,1.4015,1.3728,1.3427,1.3126,1.2832,1.2525,1.2258,1.2118,1.185,1.1657,1.1657,1.141,1.1169,1.1015,1.0875,1.0707,1.0412,1.0506,1.0425,0.9967,1.018,1.0214,0.99,1.0332,1.0841,1.1383,1.157,1.1857,1.2285,1.2305,1.2305,1.2305,1.2305,1.2305,1.2305,1.2496,1.2569,1.2589,1.3006,1.3213,1.3233,1.3667,1.3861,1.3881,1.4028,1.4088,1.4088,1.4088,1.4088,1.4208,1.5296,1.5696,1.5861,1.4629,1.4663,1.4763,1.4981,1.5062,1.5182,1.5357,1.5645,1.5665,1.5211,1.515,1.515,1.515,1.5558,1.5784,1.5784,1.5784,1.5784,1.5784,1.5784,1.5732,1.5498,1.5431,1.5184,1.4716,1.4355,1.3774,1.2978,1.2382,1.1611,1.068,1.0347,1.0087,0.9943,1.0848,1.1598,1.2147,1.2946,1.3433,1.372,1.3988,1.4088,1.4088,1.4088,1.4088,1.4088,1.4088,1.4088,1.4088,1.4088,1.4088,1.4088,1.4088,1.4088,1.4088,1.4088,1.4088,1.4088,1.4088,1.4088,1.4088,1.4088,1.4088,1.4055,1.3928,1.354,1.3173,1.3046,1.2639,1.2305,1.2305,1.2118,1.198,1.1913,1.167,1.1396,1.1042,1.0995,1.0862,1.0539,1.0492,1.0472,1.0412,1.0352,1.002,0.9357,1.0094,1.0747,1.1062,1.1523,1.1937,1.2291,1.2305,1.2305,1.2305,1.2305,1.2305,1.2305,1.2576,1.2723,1.2797,1.3066,1.3367,1.3606,1.3906,1.431,1.4783,1.4783,1.4783,1.4783,1.4783,1.4783,1.4901,1.5992,1.6388,1.6552,1.5022,1.513,1.5244,1.5048,1.5177,1.5364,1.5391,1.5645,1.5764,1.5711,1.5752,1.5752,1.5752,1.5751,1.5784,1.5784,1.5784,1.5784,1.5784,1.5784,1.5771,1.5744,1.5538,1.5371,1.5317,1.4763,1.4133,1.352,1.2998,1.2114,1.0949,1.0687,1.0539,1.0559,1.167,1.2395,1.2744,1.3333,1.3733,1.4048,1.4075,1.4088,1.4088,1.4088,1.4088,1.4088,1.4088,1.4088,1.4088,1.4088,1.4088,1.4088,1.4088,1.4088,1.4088,1.4088,1.4088,1.4088,1.4088,1.4088,1.4088,1.4088,1.4088,1.3948,1.3414,1.3253,1.3053,1.2505,1.2345,1.2305,1.2305,1.2278,1.2178,1.1946,1.1879,1.1665,1.1076,1.0995,1.0788,1.0221,1.016,1.0053,0.9822,0.9526,0.9411,0.9626,1.0244,1.0834,1.1322,1.1402,1.1724,1.2285,1.2305,1.2305,1.2305,1.2305,1.2305,1.2305,1.2331,1.2522,1.2797,1.3066,1.3367,1.3654,1.4964,1.6078,1.7017,1.7017,1.7017,1.7017,1.7017,1.7017,1.7139,1.827,1.8669,1.8829,1.5504,1.5438,1.5418,1.5471,1.5438,1.5451,1.5631,1.5752,1.5784,1.5784,1.5784,1.5784,1.5784,1.5784,1.5784,1.5784,1.5784,1.5784,1.5784,1.5784,1.5784,1.5784,1.5718,1.5571,1.5398,1.5164,1.4676,1.3908,1.3313,1.2599,1.177,1.1517,1.1477,1.1637,1.2315,1.2777,1.3053,1.3427,1.3773,1.4088,1.4088,1.4088,1.4108,1.4282,1.4349,1.4369,1.4549,1.466,1.466,1.466,1.4382,1.4088,1.4088,1.4088,1.4088,1.4088,1.4088,1.4088,1.4088,1.4088,1.4088,1.4088,1.4088,1.3981,1.3527,1.334,1.3086,1.2697,1.2425,1.2305,1.2305,1.2305,1.2265,1.2144,1.2131,1.1984,1.1611,1.1363,1.1102,1.0688,1.0488,1.0365,1.0251,0.994,0.9886,1.0218,1.0131,1.0318,1.0875,1.1236,1.1617,1.2067,1.2211,1.2305,1.2305,1.2305,1.2305,1.2305,1.2672,1.2913,1.3079,1.352,1.4159,1.4875,1.5437,1.6314,1.7302,1.7302,1.7302,1.7302,1.7302,1.7302,1.7374,1.7827,1.7989,1.8149,1.5784,1.5665,1.5585,1.5792,1.5658,1.5591,1.5751,1.5784,1.5784,1.5784,1.5784,1.5784,1.5784,1.5784,1.5784,1.5784,1.5784,1.5784,1.5784,1.5784,1.5784,1.5784,1.5784,1.5732,1.5531,1.5438,1.5097,1.4476,1.3888,1.3287,1.2685,1.2342,1.2275,1.2452,1.2878,1.318,1.3487,1.3733,1.4075,1.4349,1.4349,1.4349,1.4369,1.4576,1.4649,1.4676,1.4934,1.5008,1.5008,1.5008,1.4733,1.4349,1.4349,1.4282,1.4215,1.4215,1.4155,1.4088,1.4088,1.4088,1.4088,1.4088,1.4088,1.4008,1.3666,1.338,1.31,1.2737,1.2452,1.2305,1.2305,1.2305,1.2271,1.2191,1.2245,1.2171,1.179,1.1557,1.1282,1.1029,1.0693,1.0492,1.0586,1.0214,1.0114,1.0439,1.0157,1.0231,1.0814,1.1202,1.1603,1.1984,1.2191,1.2445,1.2696,1.2696,1.2879,1.3164,1.3296,1.3603,1.4098,1.4741,1.5636,1.6675,1.6675,1.7285,1.8261,1.8261,1.8261,1.8261,1.8261,1.8261,1.8261,1.8261,1.8261,1.839,1.5784,1.5778,1.5778,1.5784,1.5778,1.5778,1.5784,1.5784,1.5784,1.5784,1.5784,1.5784,1.5784,1.5784,1.5784,1.5784,1.5784,1.5784,1.5784,1.5784,1.5784,1.5784,1.5784,1.5784,1.5778,1.5545,1.5391,1.5384,1.479,1.4159,1.3573,1.3052,1.2777,1.2804,1.3367,1.3801,1.4095,1.4389,1.4683,1.4995,1.4995,1.4995,1.4995,1.5001,1.5001,1.5001,1.5008,1.5008,1.5008,1.5008,1.5008,1.4995,1.4995,1.475,1.4516,1.4516,1.4309,1.4088,1.4088,1.4088,1.4088,1.4088,1.4088,1.4008,1.3666,1.338,1.3039,1.2432,1.2305,1.2305,1.2305,1.2305,1.2204,1.1953,1.2118,1.2098,1.1475,1.1395,1.1282,1.1029,1.0474,1.0241,1.0566,1.0064,0.9813,1.01,1.0419,1.0834,1.1349,1.1389,1.169,1.2278,1.2298,1.2732,1.3673,1.3673,1.4171,1.5163,1.4178,1.4562,1.6168,1.6916,1.7868,1.8957,1.8957,1.9559,2.0566,2.0566,2.0566,2.0566,2.0566,2.0566,2.0566,2.0566,2.0566,2.0566,1.5784,1.5784,1.5784,1.5784,1.5784,1.5784,1.5784,1.5784,1.5784,1.5784,1.5784,1.5784,1.5784,1.5784,1.5784,1.5784,1.5784,1.5784,1.5784,1.5784,1.5784,1.5784,1.5784,1.5784,1.5784,1.5738,1.5591,1.5398,1.501,1.4623,1.4193,1.4048,1.4062,1.4311,1.4462,1.4596,1.4733,1.4783,1.4877,1.5008,1.5008,1.5008,1.5028,1.5184,1.5257,1.5284,1.5484,1.5558,1.5558,1.5558,1.5558,1.5558,1.5558,1.5217,1.4783,1.4583,1.4456,1.4342,1.4142,1.4088,1.4088,1.4088,1.4088,1.4008,1.3666,1.3253,1.2878,1.2683,1.2445,1.2305,1.2305,1.2305,1.2271,1.2178,1.2238,1.2238,1.2051,1.185,1.1617,1.1323,1.0949,1.0675,1.06,1.0425,1.0352,1.0445,1.0539,1.0673,1.0861,1.1437,1.2128,1.2956,1.3165,1.3745,1.47,1.4736,1.4522,1.4178,1.4996,1.5964,1.6947,1.7186,1.7908,1.8997,1.8997,1.9599,2.0605,2.0605,2.0605,2.0605,2.0605,2.0605,2.0605,2.0605,2.0605,2.0605,1.5784,1.5784,1.5784,1.5784,1.5784,1.5784,1.5784,1.5784,1.5784,1.5784,1.5784,1.5784,1.5784,1.5784,1.5784,1.5784,1.5784,1.5784,1.5784,1.5784,1.5784,1.5784,1.5784,1.5784,1.5784,1.5784,1.5738,1.5558,1.5264,1.503,1.4843,1.4736,1.4783,1.5008,1.5008,1.5068,1.5169,1.5169,1.519,1.5291,1.5291,1.5291,1.5311,1.5491,1.5558,1.5585,1.5718,1.5784,1.5784,1.5784,1.5784,1.5784,1.5784,1.5578,1.5231,1.4937,1.4689,1.4482,1.4302,1.4168,1.4088,1.4088,1.4088,1.4008,1.3666,1.3353,1.3058,1.2831,1.2636,1.2438,1.2325,1.2305,1.2305,1.2305,1.2305,1.2305,1.2305,1.2051,1.1792,1.1429,1.1269,1.1042,1.0787,1.0854,1.0882,1.0882,1.1022,1.1082,1.1082,1.184,1.2641,1.3439,1.3991,1.4736,1.572,1.5728,1.5655,1.5549,1.6911,1.7651,1.7775,1.832,1.8917,1.9599,1.9599,1.9962,2.0605,2.0605,2.0605,2.0605,2.0605,2.0605,2.0605,2.0605,2.0605,2.0605,1.5784,1.5784,1.5784,1.5784,1.5784,1.5784,1.5784,1.5784,1.5784,1.5784,1.5784,1.5784,1.5784,1.5784,1.5784,1.5784,1.5784,1.5784,1.5784,1.5784,1.5784,1.5784,1.5784,1.5784,1.5784,1.5784,1.5784,1.5784,1.5558,1.5424,1.5424,1.515,1.5068,1.5068,1.5068,1.517,1.5424,1.5424,1.5585,1.5784,1.5784,1.5784,1.5784,1.5784,1.5784,1.5784,1.5784,1.5784,1.5784,1.5784,1.5784,1.5784,1.5784,1.5784,1.5772,1.5484,1.501,1.4569,1.4529,1.4322,1.4115,1.4088,1.4088,1.4015,1.3693,1.362,1.3447,1.2965,1.2831,1.273,1.2418,1.2345,1.2331,1.2331,1.2318,1.2305,1.2305,1.2107,1.1826,1.1455,1.1422,1.1343,1.1049,1.1283,1.1415,1.1389,1.1703,1.1906,1.1906,1.2655,1.329,1.3795,1.4772,1.5772,1.6751,1.6742,1.7399,1.8695,1.9457,1.9383,1.8685,1.9985,2.0605,2.0605,2.0605,2.0605,2.0605,2.0605,2.0605,2.0605,2.0605,2.0605,2.0605,2.0605,2.0605,2.0605,1.5784,1.5784,1.5784,1.5784,1.5784,1.5784,1.5784,1.5784,1.5784,1.5784,1.5784,1.5784,1.5784,1.5784,1.5784,1.5784,1.5784,1.5784,1.5784,1.5784,1.5784,1.5784,1.5784,1.5784,1.5784,1.5784,1.5784,1.5784,1.5758,1.5732,1.5678,1.5658,1.5625,1.5625,1.5625,1.5665,1.5732,1.5732,1.5718,1.5784,1.5784,1.5784,1.5784,1.5784,1.5784,1.5784,1.5784,1.5784,1.5784,1.5784,1.5784,1.5784,1.5784,1.5784,1.5772,1.5484,1.5297,1.509,1.4643,1.4469,1.4362,1.4142,1.4088,1.4068,1.4001,1.3766,1.356,1.342,1.3253,1.308,1.3006,1.2837,1.2683,1.2683,1.2489,1.2305,1.2305,1.2245,1.2091,1.1832,1.1764,1.165,1.1349,1.159,1.167,1.1409,1.1703,1.1906,1.1906,1.3761,1.4814,1.4835,1.5755,1.686,1.8117,1.8117,1.8607,1.9582,1.9089,1.9267,2.0091,2.044,2.0605,2.0605,2.0605,2.0605,2.0605,2.0605,2.0605,2.0605,2.0605,2.0605,2.0605,2.0605,2.0605,2.0605,1.5784,1.5784,1.5784,1.5784,1.5784,1.5784,1.5784,1.5784,1.5784,1.5784,1.5784,1.5784,1.5784,1.5784,1.5784,1.5784,1.5784,1.5784,1.5784,1.5784,1.5784,1.5784,1.5784,1.5784,1.5784,1.5784,1.5784,1.5784,1.5784,1.5784,1.5784,1.5784,1.5784,1.5784,1.5784,1.5784,1.5784,1.5784,1.5784,1.5784,1.5784,1.5784,1.5784,1.5784,1.5784,1.5784,1.5784,1.5784,1.5784,1.5784,1.5784,1.5784,1.5784,1.5784,1.5751,1.5645,1.5504,1.5324,1.5003,1.4823,1.4656,1.4355,1.4182,1.4088,1.4088,1.3961,1.3808,1.3633,1.3473,1.3367,1.3233,1.3073,1.2951,1.2804,1.265,1.2496,1.2318,1.2305,1.2191,1.194,1.202,1.1951,1.1657,1.1897,1.2004,1.1837,1.1977,1.2281,1.2706,1.4533,1.5546,1.5474,1.7018,1.8176,1.889,1.9085,1.9416,1.9922,1.9602,1.986,2.0605,2.0605,2.0605,2.0605,2.0605,2.0605,2.0605,2.0605,2.0605,2.0605,2.0605,2.0605,2.0605,2.0605,2.0605,2.0605,1.5784,1.5784,1.5784,1.5784,1.5784,1.5784,1.5784,1.5784,1.5784,1.5784,1.5784,1.5784,1.5784,1.5784,1.5784,1.5784,1.5784,1.5784,1.5784,1.5784,1.5784,1.5784,1.5784,1.5784,1.5784,1.5784,1.5784,1.5784,1.5784,1.5784,1.5784,1.5784,1.5784,1.5784,1.5784,1.5784,1.5784,1.5784,1.5784,1.5784,1.5784,1.5784,1.5784,1.5784,1.5784,1.5784,1.5784,1.5784,1.5784,1.5784,1.5784,1.5784,1.5784,1.5784,1.5784,1.5784,1.5658,1.5451,1.5404,1.5184,1.4941,1.4596,1.4335,1.4142,1.4095,1.4088,1.4015,1.372,1.3666,1.3593,1.3387,1.3307,1.3173,1.2904,1.2817,1.2683,1.2345,1.2409,1.243,1.2208,1.2508,1.2599,1.2208,1.2508,1.2659,1.2519,1.2659,1.3112,1.395,1.5365,1.6139,1.6226,1.822,1.9316,1.9375,1.9805,2.0019,2.0019,2.0429,2.0605,2.0605,2.0605,2.0605,2.0605,2.0605,2.0605,2.0605,2.0605,2.0605,2.0605,2.0605,2.0605,2.0605,2.0605,2.0605,2.0605,1.5784,1.5784,1.5784,1.5784,1.5784,1.5784,1.5784,1.5784,1.5784,1.5784,1.5784,1.5784,1.5784,1.5784,1.5784,1.5784,1.5784,1.5784,1.5784,1.5784,1.5784,1.5784,1.5784,1.5784,1.5784,1.5784,1.5784,1.5784,1.5784,1.5784,1.5784,1.5784,1.5784,1.5784,1.5784,1.5784,1.5784,1.5784,1.5784,1.5784,1.5784,1.5784,1.5784,1.5784,1.5784,1.5784,1.5784,1.5784,1.5784,1.5784,1.5784,1.5784,1.5784,1.5784,1.5784,1.5784,1.5751,1.5712,1.5464,1.5184,1.4941,1.4596,1.4489,1.4389,1.4142,1.4088,1.4075,1.4028,1.4015,1.4008,1.3961,1.3748,1.344,1.3186,1.2958,1.2683,1.2345,1.2989,1.3477,1.3425,1.4204,1.4399,1.3498,1.424,1.4414,1.3564,1.4279,1.4972,1.5446,1.6826,1.7717,1.8087,1.8861,1.9453,1.9814,2.0244,2.0507,2.0507,2.0576,2.0605,2.0605,2.0605,2.0605,2.0605,2.0605,2.0605,2.0605,2.0605,2.0605,2.0605,2.0605,2.0605,2.0605,2.0605,2.0605,2.0605,1.5784,1.5784,1.5784,1.5784,1.5784,1.5784,1.5784,1.5784,1.5784,1.5784,1.5784,1.5784,1.5784,1.5784,1.5784,1.5784,1.5784,1.5784,1.5784,1.5784,1.5784,1.5784,1.5784,1.5784,1.5784,1.5784,1.5784,1.5784,1.5784,1.5784,1.5784,1.5784,1.5784,1.5784,1.5784,1.5784,1.5784,1.5784,1.5784,1.5784,1.5784,1.5784,1.5784,1.5784,1.5784,1.5784,1.5784,1.5784,1.5784,1.5784,1.5784,1.5784,1.5784,1.5784,1.5784,1.5784,1.5784,1.5751,1.5665,1.5418,1.5164,1.503,1.4756,1.4482,1.4349,1.4202,1.4088,1.4088,1.4088,1.4088,1.4088,1.3975,1.3788,1.3453,1.3606,1.3672,1.336,1.3996,1.4522,1.4522,1.5113,1.5343,1.4871,1.5442,1.5659,1.5178,1.5585,1.6139,1.6881,1.7753,1.8561,1.925,1.9725,2.0106,2.0264,2.0507,2.0605,2.0605,2.0605,2.0605,2.0605,2.0605,2.0605,2.0605,2.0605,2.0605,2.0605,2.0605,2.0605,2.0605,2.0605,2.0605,2.0605,2.0605,2.0605,2.0605,1.5784,1.5784,1.5784,1.5784,1.5784,1.5784,1.5784,1.5784,1.5784,1.5784,1.5784,1.5784,1.5784,1.5784,1.5784,1.5784,1.5784,1.5784,1.5784,1.5784,1.5784,1.5784,1.5784,1.5784,1.5784,1.5784,1.5784,1.5784,1.5784,1.5784,1.5784,1.5784,1.5784,1.5784,1.5784,1.5784,1.5784,1.5784,1.5784,1.5784,1.5784,1.5784,1.5784,1.5784,1.5784,1.5784,1.5784,1.5784,1.5784,1.5784,1.5784,1.5784,1.5784,1.5784,1.5784,1.5784,1.5784,1.5784,1.5784,1.5665,1.5478,1.5418,1.5057,1.4689,1.4506,1.4349,1.4168,1.4102,1.4088,1.4088,1.4088,1.4088,1.4072,1.4008,1.4421,1.4763,1.4728,1.5373,1.5815,1.5815,1.6278,1.6523,1.6303,1.6745,1.6983,1.6757,1.6946,1.7448,1.8322,1.8665,1.9221,2.0021,2.0429,2.0605,2.0605,2.0605,2.0605,2.0605,2.0605,2.0605,2.0605,2.0605,2.0605,2.0605,2.0605,2.0605,2.0605,2.0605,2.0605,2.0605,2.0605,2.0605,2.0605,2.0605,2.0605,2.0605,1.5784,1.5784,1.5784,1.5784,1.5784,1.5784,1.5784,1.5784,1.5784,1.5784,1.5784,1.5784,1.5784,1.5784,1.5784,1.5784,1.5784,1.5784,1.5784,1.5784,1.5784,1.5784,1.5784,1.5784,1.5784,1.5784,1.5784,1.5784,1.5784,1.5784,1.5784,1.5784,1.5784,1.5784,1.5784,1.5784,1.5784,1.5784,1.5784,1.5784,1.5784,1.5784,1.5784,1.5784,1.5784,1.5784,1.5784,1.5784,1.5784,1.5784,1.5784,1.5784,1.5784,1.5784,1.5784,1.5784,1.5784,1.5784,1.5784,1.5764,1.5732,1.5464,1.5364,1.519,1.4643,1.4502,1.4409,1.4142,1.4088,1.4088,1.4088,1.4088,1.4351,1.5076,1.5235,1.5488,1.616,1.709,1.7694,1.7694,1.8506,1.8708,1.7851,1.8553,1.8719,1.785,1.8599,1.9259,1.9731,1.978,2.0022,2.0546,2.0586,2.0605,2.0605,2.0605,2.0605,2.0605,2.0605,2.0605,2.0605,2.0605,2.0605,2.0605,2.0605,2.0605,2.0605,2.0605,2.0605,2.0605,2.0605,2.0605,2.0605,2.0605,2.0605,2.0605,1.5784,1.5784,1.5784,1.5784,1.5784,1.5784,1.5784,1.5784,1.5784,1.5784,1.5784,1.5784,1.5784,1.5784,1.5784,1.5784,1.5784,1.5784,1.5784,1.5784,1.5784,1.5784,1.5784,1.5784,1.5784,1.5784,1.5784,1.5784,1.5784,1.5784,1.5784,1.5784,1.5784,1.5784,1.5784,1.5784,1.5784,1.5784,1.5784,1.5784,1.5784,1.5784,1.5784,1.5784,1.5784,1.5784,1.5784,1.5784,1.5784,1.5784,1.5784,1.5784,1.5784,1.5784,1.5784,1.5784,1.5784,1.5784,1.5784,1.5784,1.5758,1.5691,1.5531,1.5337,1.5117,1.4783,1.4489,1.4382,1.4215,1.4088,1.4088,1.4088,1.4413,1.5375,1.5901,1.6496,1.7449,1.8266,1.8765,1.8765,1.929,1.9519,1.9173,1.9724,1.9964,1.9612,1.9888,2.0184,2.0312,2.0312,2.0429,2.0595,2.0605,2.0605,2.0605,2.0605,2.0605,2.0605,2.0605,2.0605,2.0605,2.0605,2.0605,2.0605,2.0605,2.0605,2.0605,2.0605,2.0605,2.0605,2.0605,2.0605,2.0605,2.0605,2.0605,2.0605,1.5784,1.5784,1.5784,1.5784,1.5784,1.5784,1.5784,1.5784,1.5784,1.5784,1.5784,1.5784,1.5784,1.5784,1.5784,1.5784,1.5784,1.5784,1.5784,1.5784,1.5784,1.5784,1.5784,1.5784,1.5784,1.5784,1.5784,1.5784,1.5784,1.5784,1.5784,1.5784,1.5784,1.5784,1.5784,1.5784,1.5784,1.5784,1.5784,1.5784,1.5784,1.5784,1.5784,1.5784,1.5784,1.5784,1.5784,1.5784,1.5784,1.5784,1.5784,1.5784,1.5784,1.5784,1.5784,1.5784,1.5784,1.5784,1.5784,1.5784,1.5784,1.5784,1.5678,1.5597,1.5904,1.5642,1.5383,1.5569,1.5447,1.5183,1.4671,1.4615,1.4936,1.6026,1.6597,1.7389,1.8823,1.9402,1.9725,1.9725,1.9941,2.0117,2.0117,2.0429,2.0605,2.0605,2.0605,2.0605,2.0605,2.0605,2.0605,2.0605,2.0605,2.0605,2.0605,2.0605,2.0605,2.0605,2.0605,2.0605,2.0605,2.0605,2.0605,2.0605,2.0605,2.0605,2.0605,2.0605,2.0605,2.0605,2.0605,2.0605,2.0605,2.0605,2.0605,2.0605,1.5784,1.5784,1.5784,1.5784,1.5784,1.5784,1.5784,1.5784,1.5784,1.5784,1.5784,1.5784,1.5784,1.5784,1.5784,1.5784,1.5784,1.5784,1.5784,1.5784,1.5784,1.5784,1.5784,1.5784,1.5784,1.5784,1.5784,1.5784,1.5784,1.5784,1.5784,1.5784,1.5784,1.5784,1.5784,1.5784,1.5784,1.5784,1.5784,1.5784,1.5784,1.5784,1.5784,1.5784,1.5784,1.5784,1.5784,1.5784,1.5784,1.5784,1.5784,1.5784,1.5784,1.5784,1.5784,1.5784,1.5784,1.5784,1.5784,1.5784,1.5784,1.5784,1.5784,1.6068,1.697,1.7199,1.7368,1.7909,1.8012,1.753,1.6012,1.5703,1.6075,1.7131,1.7293,1.806,2.0284,2.0605,2.0605,2.0605,2.0605,2.0605,2.0605,2.0605,2.0605,2.0605,2.0605,2.0605,2.0605,2.0605,2.0605,2.0605,2.0605,2.0605,2.0605,2.0605,2.0605,2.0605,2.0605,2.0605,2.0605,2.0605,2.0605,2.0605,2.0605,2.0605,2.0605,2.0605,2.0605,2.0605,2.0605,2.0605,2.0605,2.0605,2.0605,2.0605,1.5784,1.5784,1.5784,1.5784,1.5784,1.5784,1.5784,1.5784,1.5784,1.5784,1.5784,1.5784,1.5784,1.5784,1.5784,1.5784,1.5784,1.5784,1.5784,1.5784,1.5784,1.5784,1.5784,1.5784,1.5784,1.5784,1.5784,1.5784,1.5784,1.5784,1.5784,1.5784,1.5784,1.5784,1.5784,1.5784,1.5784,1.5784,1.5784,1.5784,1.5784,1.5784,1.5784,1.5784,1.5784,1.5784,1.5784,1.5784,1.5784,1.5784,1.5784,1.5784,1.5784,1.5784,1.5784,1.5784,1.5784,1.5784,1.5784,1.5784,1.5784,1.5784,1.5784,1.6129,1.7279,1.7378,1.7506,1.8548,1.8561,1.8185,1.7446,1.7298,1.759,1.8353,1.847,1.8997,2.0401,2.0605,2.0605,2.0605,2.0605,2.0605,2.0605,2.0605,2.0605,2.0605,2.0605,2.0605,2.0605,2.0605,2.0605,2.0605,2.0605,2.0605,2.0605,2.0605,2.0605,2.0605,2.0605,2.0605,2.0605,2.0605,2.0605,2.0605,2.0605,2.0605,2.0605,2.0605,2.0605,2.0605,2.0605,2.0605,2.0605,2.0605,2.0605,2.0605,1.5784,1.5784,1.5784,1.5784,1.5784,1.5784,1.5784,1.5784,1.5784,1.5784,1.5784,1.5784,1.5784,1.5784,1.5784,1.5784,1.5784,1.5784,1.5784,1.5784,1.5784,1.5784,1.5784,1.5784,1.5784,1.5784,1.5784,1.5784,1.5784,1.5784,1.5784,1.5784,1.5784,1.5784,1.5784,1.5784,1.5784,1.5784,1.5784,1.5784,1.5784,1.5784,1.5784,1.5784,1.5784,1.5784,1.5784,1.5784,1.5784,1.5784,1.5784,1.5784,1.5784,1.5784,1.5784,1.5784,1.5784,1.5784,1.5784,1.5784,1.5784,1.5784,1.5784,1.6244,1.7994,1.824,1.8534,2.0097,2.0277,1.9855,1.9047,1.8731,1.8765,1.9187,1.9096,1.9362,2.045,2.0605,2.0605,2.0605,2.0605,2.0605,2.0605,2.0605,2.0605,2.0605,2.0605,2.0605,2.0605,2.0605,2.0605,2.0605,2.0605,2.0605,2.0605,2.0605,2.0605,2.0605,2.0605,2.0605,2.0605,2.0605,2.0605,2.0605,2.0605,2.0605,2.0605,2.0605,2.0605,2.0605,2.0605,2.0605,2.0605,2.0605,2.0605,2.0605,1.5784,1.5784,1.5784,1.5784,1.5784,1.5784,1.5784,1.5784,1.5784,1.5784,1.5784,1.5784,1.5784,1.5784,1.5784,1.5784,1.5784,1.5784,1.5784,1.5784,1.5784,1.5784,1.5784,1.5784,1.5784,1.5784,1.5784,1.5784,1.5784,1.5784,1.5784,1.5784,1.5784,1.5784,1.5784,1.5784,1.5784,1.5784,1.5784,1.5784,1.5784,1.5784,1.5784,1.5784,1.5784,1.5784,1.5784,1.5784,1.5784,1.5784,1.5784,1.5784,1.5784,1.5784,1.5784,1.5784,1.5879,1.5967,1.5967,1.6062,1.6103,1.6015,1.6062,1.6702,1.8993,1.9579,2.021,2.2155,2.2568,2.2115,2.0679,2.0094,1.9839,1.9811,1.9474,1.9536,2.0508,2.0635,2.0605,2.0605,2.0605,2.0605,2.0605,2.0605,2.0605,2.0605,2.0605,2.0605,2.0605,2.0605,2.0605,2.0605,2.0605,2.0605,2.0605,2.0605,2.0605,2.0605,2.0605,2.0605,2.0605,2.0605,2.0605,2.0605,2.0605,2.0605,2.0605,2.0605,2.0605,2.0605,2.0605,2.0605,2.0605,2.0605,2.0634,2.075,1.5784,1.5784,1.5784,1.5784,1.5784,1.5784,1.5784,1.5784,1.5784,1.5784,1.5784,1.5784,1.5784,1.5784,1.5784,1.5784,1.5784,1.5784,1.5784,1.5784,1.5784,1.5784,1.5784,1.5784,1.5784,1.5784,1.5784,1.5784,1.5784,1.5784,1.5784,1.5784,1.5784,1.5784,1.5784,1.5784,1.5784,1.5784,1.5784,1.5784,1.5784,1.5784,1.5784,1.5784,1.5784,1.5784,1.5784,1.5784,1.5784,1.5784,1.5784,1.5784,1.5784,1.5784,1.5784,1.5784,1.6527,1.7271,1.7271,1.7994,1.8488,1.7498,1.7994,1.8856,1.936,2.0215,2.1319,2.2703,2.2955,2.2785,2.2134,2.1938,2.1774,2.1447,2.1034,2.0804,2.1054,2.0791,2.0605,2.0605,2.0605,2.0605,2.0605,2.0605,2.0605,2.0605,2.0605,2.0605,2.0605,2.0605,2.0605,2.0605,2.0605,2.0605,2.0605,2.0605,2.0605,2.0605,2.0605,2.0605,2.0605,2.0605,2.0605,2.0605,2.0605,2.0605,2.0605,2.0605,2.0605,2.0605,2.0605,2.0605,2.0605,2.0605,2.1088,2.1811,1.5784,1.5784,1.5784,1.5784,1.5784,1.5784,1.5784,1.5784,1.5784,1.5784,1.5784,1.5784,1.5784,1.5784,1.5784,1.5784,1.5784,1.5784,1.5784,1.5784,1.5784,1.5784,1.5784,1.5784,1.5784,1.5784,1.5784,1.5784,1.5784,1.5784,1.5784,1.5784,1.5784,1.5784,1.5784,1.5784,1.5784,1.5784,1.5784,1.5784,1.5784,1.5784,1.5784,1.5784,1.5784,1.5784,1.5784,1.5784,1.5784,1.5784,1.5784,1.5927,1.6527,1.6716,1.6803,1.739,1.8033,1.8549,1.8549,1.8993,1.936,1.8726,1.9451,2.0215,1.9625,2.044,2.1658,2.2862,2.3091,2.3033,2.2808,2.2646,2.2441,2.2217,2.1826,2.1475,2.122,2.1035,2.081,2.0635,2.0605,2.0605,2.0605,2.0605,2.0605,2.0605,2.0605,2.0605,2.0605,2.0605,2.0605,2.0605,2.0605,2.0605,2.0605,2.0781,2.0889,2.0879,2.0703,2.0605,2.0615,2.0791,2.0889,2.0889,2.0889,2.0889,2.0869,2.0693,2.0605,2.0605,2.0605,2.0605,2.0605,2.0605,2.1193,2.2065,1.5784,1.5784,1.5784,1.5784,1.5784,1.5784,1.5784,1.5784,1.5784,1.5784,1.5784,1.5784,1.5784,1.5784,1.5784,1.5784,1.5784,1.5784,1.5784,1.5784,1.5784,1.5784,1.5784,1.5784,1.5784,1.5784,1.5784,1.5784,1.5784,1.5784,1.5784,1.5784,1.5784,1.5784,1.5784,1.5784,1.5784,1.5784,1.5784,1.5784,1.5784,1.5784,1.5784,1.5784,1.5784,1.5784,1.5784,1.5784,1.5832,1.6062,1.6103,1.6339,1.7591,1.801,1.8187,1.9222,1.9633,1.9807,1.9807,1.9943,2.0087,1.9852,2.0711,2.1302,2.0079,2.0755,2.1889,2.2906,2.3091,2.3091,2.3091,2.2808,2.2617,2.2617,2.2266,2.1865,2.1463,2.1288,2.1094,2.0723,2.0684,2.0684,2.0684,2.0791,2.083,2.083,2.083,2.083,2.083,2.0762,2.0752,2.083,2.0752,2.0752,2.083,2.1162,2.1307,2.1307,2.0967,2.083,2.084,2.1172,2.1307,2.1307,2.1307,2.1268,2.1161,2.083,2.0674,2.0605,2.0605,2.0605,2.0644,2.0972,2.1603,2.2328,1.5784,1.5784,1.5784,1.5784,1.5784,1.5784,1.5784,1.5784,1.5784,1.5784,1.5784,1.5784,1.5784,1.5784,1.5784,1.5784,1.5784,1.5784,1.5784,1.5784,1.5784,1.5784,1.5784,1.5784,1.5784,1.5784,1.5784,1.5784,1.5784,1.5784,1.5784,1.5784,1.5784,1.5784,1.5784,1.5784,1.5784,1.5784,1.5784,1.5784,1.5784,1.5784,1.5784,1.5784,1.5784,1.5784,1.5784,1.5784,1.5967,1.7084,1.7458,1.7684,1.8864,1.9268,1.9268,1.9443,2.026,2.1069,2.1069,2.181,2.2359,2.1302,2.1943,2.2536,2.1346,2.1987,2.2906,2.3047,2.3091,2.3091,2.3091,2.3052,2.3013,2.3013,2.2705,2.2412,2.2353,2.1658,2.1171,2.1112,2.1103,2.1103,2.1103,2.1484,2.1709,2.1709,2.1709,2.1709,2.1709,2.1348,2.1318,2.1699,2.1338,2.1318,2.1699,2.1768,2.1797,2.1797,2.1738,2.1709,2.175,2.1768,2.1797,2.1797,2.1797,2.1582,2.119,2.1132,2.0918,2.0605,2.0605,2.0605,2.0789,2.2489,2.3184,2.3551,1.5784,1.5784,1.5784,1.5784,1.5784,1.5784,1.5784,1.5784,1.5784,1.5784,1.5784,1.5784,1.5784,1.5784,1.5784,1.5784,1.5784,1.5784,1.5784,1.5784,1.5784,1.5784,1.5784,1.5784,1.5784,1.5784,1.5784,1.5784,1.5784,1.5784,1.5784,1.5784,1.5784,1.5784,1.5784,1.5784,1.5784,1.5784,1.5784,1.5784,1.5784,1.5784,1.5784,1.5784,1.5784,1.5784,1.5784,1.5784,1.5967,1.7271,1.7692,1.8056,1.9898,2.0531,2.0621,2.1311,2.1898,2.2306,2.2306,2.2677,2.296,2.2448,2.2731,2.296,2.2448,2.2721,2.3091,2.3091,2.3091,2.3091,2.3091,2.3091,2.3091,2.3091,2.2945,2.2783,2.2549,2.2187,2.1824,2.1621,2.1592,2.1592,2.1592,2.1777,2.1885,2.1885,2.1885,2.1885,2.1885,2.1699,2.1689,2.1875,2.1699,2.1689,2.1885,2.2119,2.2236,2.2236,2.2471,2.2344,2.1894,2.2129,2.2236,2.2236,2.2236,2.1992,2.1582,2.1298,2.0967,2.0605,2.0605,2.0934,2.1489,2.2339,2.3368,2.4445]}]]